[[{"header":{"parameterUnit":"m.s-1","parameterCategory":1,"la1":30.6,"la2":29.2853,"lo1":-89.7004,"lo2":-87.6739,"dy":0.0162,"dx":0.0183,"nx":112,"ny":82,"refTime":"2023-09-17T18:00:00:Z","depth":0,"parameterNumber":2,"parameterNumberName":"U-component_of_WINDS"},"data":[0.0,0.0,0.0,0.0,0.0,0.0,0.0,0.0,0.0,0.0,0.0,0.0,0.0,0.0,0.0,0.0,0.0,0.0,0.0,0.0,0.0,0.0,0.0,0.0,0.0,0.0,0.0,0.0,0.0,0.0,0.0,0.0,0.0,0.0,0.0,0.0,0.0,0.0,0.0,0.0,0.0,0.0,0.0,0.0,0.0,0.0,0.0,0.0,0.0,0.0,0.0,0.0,0.0,0.0,0.0,0.0,0.0,0.0,0.0,0.0,0.0,0.0,0.0,0.0,0.0,0.0,0.0,0.0,0.0,0.0,0.0,0.0,0.0,0.0,0.0,0.0,0.0,0.0,0.0,0.0,0.0,0.0,0.0,0.0,0.0,0.0,0.0,0.0,0.0,0.0,2.4005,2.5452,2.7723,2.8704,2.7673,2.7767,2.6822,2.4323,0.0,0.0,0.0,0.0,0.0,0.0,0.0,0.0,0.0,0.0,0.0,0.0,0.0,0.0,0.0,0.0,0.0,0.0,0.0,0.0,0.0,0.0,0.0,0.0,0.0,0.0,0.0,0.0,0.0,0.0,0.0,0.0,0.0,0.0,0.0,0.0,0.0,0.0,0.0,0.0,0.0,0.0,0.0,0.0,0.0,0.0,0.0,0.0,0.0,0.0,0.0,0.0,0.0,0.0,0.0,0.0,0.0,0.0,0.0,0.0,0.0,0.0,0.0,0.0,0.0,0.0,0.0,0.0,0.0,0.0,0.0,0.0,0.0,0.0,0.0,0.0,0.0,0.0,0.0,0.0,0.0,0.0,0.0,0.0,0.0,0.0,0.0,0.0,0.0,0.0,0.0,0.0,0.0,0.0,0.0,0.0,0.0,0.0,0.0,0.0,0.0,0.0,0.0,0.0,2.5147,2.5631,2.7013,2.7791,2.7623,2.8541,2.8208,2.6058,0.0,0.0,0.0,0.0,0.0,0.0,0.0,0.0,0.0,0.0,0.0,0.0,0.0,0.0,0.0,0.0,0.0,0.0,0.0,0.0,0.0,0.0,0.0,0.0,0.0,0.0,0.0,0.0,0.0,0.0,0.0,0.0,0.0,0.0,0.0,0.0,0.0,0.0,0.0,0.0,0.0,0.0,0.0,0.0,0.0,0.0,0.0,0.0,0.0,0.0,0.0,0.0,0.0,0.0,0.0,0.0,0.0,0.0,0.0,0.0,0.0,0.0,0.0,0.0,0.0,0.0,0.0,0.0,0.0,0.0,0.0,0.0,0.0,0.0,0.0,0.0,0.0,0.0,0.0,0.0,0.0,0.0,0.0,0.0,0.0,0.0,0.0,0.0,0.0,0.0,0.0,0.0,0.0,0.0,0.0,0.0,0.0,0.0,0.0,0.0,0.0,0.0,0.0,2.3784,2.4812,2.5595,2.6231,2.6572,2.6572,2.7078,2.659,2.4678,2.3474,0.0,0.0,0.0,0.0,0.0,0.0,0.0,0.0,0.0,0.0,0.0,0.0,0.0,0.0,0.0,0.0,0.0,0.0,0.0,0.0,0.0,0.0,0.0,0.0,0.0,0.0,0.0,0.0,0.0,0.0,0.0,0.0,0.0,0.0,0.0,0.0,0.0,0.0,0.0,0.0,0.0,0.0,0.0,0.0,0.0,0.0,0.0,0.0,0.0,0.0,0.0,0.0,0.0,0.0,0.0,0.0,0.0,0.0,0.0,0.0,0.0,0.0,0.0,0.0,0.0,0.0,0.0,0.0,0.0,0.0,0.0,0.0,0.0,0.0,0.0,0.0,0.0,0.0,0.0,0.0,0.0,0.0,0.0,0.0,0.0,0.0,0.0,0.0,0.0,0.0,0.0,0.0,0.0,0.0,0.0,0.0,0.0,0.0,0.0,0.0,0.0,0.0,2.3809,2.4606,2.5601,2.5693,2.5693,2.5693,2.5693,2.4988,2.3369,2.2783,0.0,0.0,0.0,0.0,0.0,0.0,0.0,0.0,0.0,0.0,0.0,0.0,0.0,0.0,0.0,0.0,0.0,0.0,0.0,0.0,0.0,0.0,0.0,0.0,0.0,0.0,0.0,0.0,0.0,0.0,0.0,0.0,0.0,0.0,0.0,0.0,0.0,0.0,0.0,0.0,0.0,0.0,0.0,0.0,0.0,0.0,0.0,0.0,0.0,0.0,0.0,0.0,0.0,0.0,0.0,0.0,0.0,0.0,0.0,0.0,0.0,0.0,0.0,0.0,0.0,0.0,0.0,0.0,0.0,0.0,0.0,0.0,0.0,0.0,0.0,0.0,0.0,0.0,0.0,0.0,0.0,0.0,0.0,0.0,0.0,0.0,0.0,0.0,0.0,0.0,0.0,0.0,0.0,0.0,0.0,0.0,0.0,0.0,0.0,0.0,0.0,0.0,2.5368,2.5601,2.5698,2.5693,2.5693,2.5693,2.5693,2.5132,2.3823,2.2945,0.0,0.0,0.0,0.0,0.0,0.0,0.0,0.0,0.0,0.0,0.0,0.0,0.0,0.0,0.0,0.0,0.0,0.0,0.0,0.0,0.0,0.0,0.0,0.0,0.0,0.0,0.0,0.0,0.0,0.0,0.0,0.0,0.0,0.0,0.0,0.0,0.0,0.0,0.0,0.0,0.0,0.0,0.0,0.0,0.0,0.0,0.0,0.0,0.0,0.0,0.0,0.0,0.0,0.0,0.0,0.0,0.0,0.0,0.0,0.0,0.0,0.0,0.0,0.0,0.0,0.0,0.0,0.0,0.0,0.0,0.0,0.0,0.0,0.0,0.0,0.0,0.0,0.0,0.0,0.0,0.0,0.0,0.0,0.0,0.0,0.0,0.0,0.0,0.0,0.0,0.0,0.0,0.0,0.0,0.0,0.0,0.0,0.0,0.0,0.0,0.0,0.0,2.5157,2.5815,2.6113,2.6362,2.6498,2.6498,2.6498,2.5844,2.4259,0.0,0.0,0.0,0.0,0.0,0.0,0.0,0.0,0.0,0.0,0.0,0.0,0.0,0.0,0.0,0.0,0.0,0.0,0.0,0.0,0.0,0.0,0.0,0.0,0.0,0.0,0.0,0.0,0.0,0.0,0.0,0.0,0.0,0.0,0.0,0.0,0.0,0.0,0.0,0.0,0.0,0.0,0.0,0.0,0.0,0.0,0.0,0.0,0.0,0.0,0.0,0.0,0.0,0.0,0.0,0.0,0.0,0.0,0.0,0.0,0.0,0.0,0.0,0.0,0.0,0.0,0.0,0.0,0.0,0.0,0.0,0.0,0.0,0.0,0.0,0.0,0.0,0.0,0.0,0.0,0.0,0.0,0.0,0.0,0.0,0.0,0.0,0.0,0.0,0.0,0.0,0.0,0.0,0.0,0.0,0.0,0.0,0.0,0.0,0.0,0.0,0.0,2.4336,2.5406,2.6225,2.6562,2.6836,2.6986,2.6986,2.6986,2.6328,2.4727,0.0,0.0,0.0,0.0,0.0,0.0,0.0,0.0,0.0,0.0,0.0,0.0,0.0,0.0,0.0,0.0,0.0,0.0,0.0,0.0,0.0,0.0,0.0,0.0,0.0,0.0,0.0,0.0,0.0,0.0,0.0,0.0,0.0,0.0,0.0,0.0,0.0,0.0,0.0,0.0,0.0,0.0,0.0,0.0,0.0,0.0,0.0,0.0,0.0,0.0,0.0,0.0,0.0,0.0,0.0,0.0,0.0,0.0,0.0,0.0,0.0,0.0,0.0,0.0,0.0,0.0,0.0,0.0,0.0,0.0,0.0,0.0,0.0,0.0,0.0,0.0,0.0,0.0,0.0,0.0,0.0,0.0,0.0,0.0,0.0,0.0,0.0,0.0,0.0,0.0,0.0,0.0,0.0,0.0,0.0,0.0,0.0,0.0,0.0,0.0,0.0,0.0,2.5601,2.6459,2.7031,2.7031,2.7006,2.7006,2.7006,2.7006,2.6465,0.0,0.0,0.0,0.0,0.0,0.0,0.0,0.0,0.0,0.0,0.0,0.0,0.0,0.0,0.0,0.0,0.0,0.0,0.0,0.0,0.0,0.0,0.0,0.0,0.0,0.0,0.0,0.0,0.0,0.0,0.0,0.0,0.0,0.0,0.0,0.0,0.0,0.0,0.0,0.0,0.0,0.0,0.0,0.0,0.0,0.0,0.0,0.0,0.0,0.0,0.0,0.0,0.0,0.0,0.0,0.0,0.0,0.0,0.0,0.0,0.0,0.0,0.0,0.0,0.0,0.0,0.0,0.0,0.0,0.0,0.0,0.0,0.0,0.0,0.0,0.0,0.0,0.0,0.0,0.0,0.0,0.0,0.0,0.0,0.0,0.0,0.0,0.0,0.0,0.0,0.0,0.0,0.0,0.0,0.0,0.0,0.0,0.0,0.0,0.0,0.0,0.0,0.0,2.5679,2.6758,2.7506,2.7506,2.7734,2.791,2.791,2.791,2.7363,2.6099,0.0,0.0,0.0,0.0,0.0,0.0,0.0,0.0,0.0,0.0,0.0,0.0,0.0,0.0,0.0,0.0,0.0,0.0,0.0,0.0,0.0,0.0,0.0,0.0,0.0,0.0,0.0,0.0,0.0,0.0,0.0,0.0,0.0,0.0,0.0,0.0,0.0,0.0,0.0,0.0,0.0,0.0,0.0,0.0,0.0,0.0,0.0,0.0,0.0,0.0,0.0,0.0,0.0,0.0,0.0,0.0,0.0,0.0,0.0,0.0,0.0,0.0,0.0,0.0,0.0,0.0,0.0,0.0,0.0,0.0,0.0,0.0,0.0,0.0,0.0,0.0,0.0,0.0,0.0,0.0,0.0,0.0,0.0,0.0,0.0,0.0,0.0,0.0,0.0,0.0,0.0,0.0,0.0,0.0,0.0,0.0,0.0,0.0,0.0,0.0,0.0,0.0,2.6465,2.7324,2.7936,2.7936,2.8301,2.8535,2.8535,2.8711,2.832,2.7226,0.0,0.0,0.0,0.0,0.0,0.0,0.0,0.0,0.0,0.0,0.0,0.0,0.0,0.0,0.0,0.0,0.0,0.0,0.0,0.0,0.0,0.0,0.0,0.0,0.0,0.0,0.0,0.0,0.0,0.0,0.0,0.0,0.0,0.0,0.0,0.0,0.0,0.0,0.0,0.0,0.0,0.0,0.0,0.0,0.0,0.0,0.0,0.0,0.0,0.0,0.0,0.0,0.0,0.0,0.0,0.0,0.0,0.0,0.0,0.0,0.0,0.0,0.0,0.0,0.0,0.0,0.0,0.0,0.0,0.0,0.0,0.0,0.0,0.0,0.0,0.0,0.0,0.0,0.0,0.0,0.0,0.0,0.0,0.0,0.0,0.0,0.0,0.0,0.0,0.0,0.0,0.0,0.0,0.0,0.0,0.0,0.0,0.0,0.0,0.0,0.0,0.0,2.7643,2.8125,2.8418,2.8418,2.875,2.8957,2.8957,2.9383,2.9246,2.8398,0.0,0.0,0.0,0.0,0.0,0.0,0.0,0.0,0.0,0.0,0.0,0.0,0.0,0.0,0.0,0.0,0.0,0.0,0.0,0.0,0.0,0.0,0.0,0.0,0.0,0.0,0.0,0.0,0.0,0.0,0.0,0.0,0.0,0.0,0.0,0.0,0.0,0.0,0.0,0.0,0.0,0.0,0.0,0.0,0.0,0.0,0.0,0.0,0.0,0.0,0.0,0.0,0.0,0.0,0.0,0.0,0.0,0.0,0.0,0.0,2.4502,2.4113,0.0,0.0,0.0,0.0,0.0,0.0,0.0,0.0,0.0,0.0,0.0,0.0,0.0,0.0,0.0,0.0,0.0,0.0,0.0,0.0,0.0,0.0,0.0,0.0,0.0,0.0,0.0,0.0,0.0,0.0,0.0,0.0,0.0,0.0,0.0,0.0,0.0,0.0,0.0,0.0,2.8151,2.8855,2.9324,2.9324,2.9403,2.9461,2.9461,2.954,2.9383,2.8828,2.8586,0.0,0.0,0.0,0.0,0.0,0.0,0.0,0.0,0.0,0.0,0.0,0.0,0.0,0.0,0.0,0.0,0.0,0.0,0.0,0.0,0.0,0.0,0.0,0.0,0.0,0.0,0.0,0.0,0.0,0.0,0.0,0.0,0.0,0.0,0.0,0.0,0.0,0.0,0.0,0.0,0.0,0.0,0.0,0.0,0.0,0.0,0.0,0.0,0.0,0.0,0.0,0.0,0.0,0.0,0.0,0.0,0.0,0.0,0.0,2.5734,2.5397,0.0,0.0,0.0,0.0,0.0,0.0,0.0,0.0,0.0,0.0,0.0,0.0,0.0,0.0,0.0,0.0,0.0,0.0,0.0,0.0,0.0,0.0,0.0,0.0,0.0,0.0,0.0,0.0,0.0,0.0,0.0,0.0,0.0,0.0,0.0,0.0,0.0,0.0,0.0,0.0,2.8875,2.9324,2.9598,2.9598,2.9774,2.9891,2.9891,3.0106,3.0019,2.957,2.9336,0.0,0.0,0.0,0.0,0.0,0.0,0.0,0.0,0.0,0.0,0.0,0.0,0.0,0.0,0.0,0.0,0.0,0.0,0.0,0.0,0.0,0.0,0.0,0.0,0.0,0.0,0.0,0.0,0.0,0.0,0.0,0.0,0.0,0.0,0.0,0.0,0.0,0.0,0.0,0.0,0.0,0.0,0.0,0.0,0.0,0.0,0.0,0.0,0.0,0.0,0.0,0.0,0.0,2.5911,2.5805,2.5805,2.6104,2.5873,2.5377,2.7112,2.6876,2.5371,2.6367,0.0,0.0,0.0,0.0,0.0,0.0,0.0,0.0,0.0,0.0,0.0,0.0,0.0,0.0,0.0,0.0,0.0,0.0,0.0,0.0,0.0,0.0,2.5551,2.5997,2.6372,2.6933,2.8055,0.0,0.0,0.0,0.0,0.0,0.0,0.0,0.0,0.0,0.0,0.0,2.9618,2.9774,2.9833,2.9833,3.0117,3.0312,3.0312,3.0664,3.0723,3.0351,3.0028,2.9637,0.0,0.0,0.0,0.0,0.0,0.0,0.0,0.0,0.0,0.0,0.0,0.0,0.0,0.0,0.0,0.0,0.0,0.0,0.0,0.0,0.0,0.0,0.0,0.0,0.0,0.0,0.0,0.0,0.0,0.0,0.0,0.0,2.4888,2.6028,0.0,0.0,0.0,0.0,0.0,0.0,0.0,0.0,0.0,0.0,0.0,0.0,0.0,2.7072,2.7388,2.6538,2.6093,2.6092,2.5105,2.4607,2.4672,2.6129,2.6174,2.5207,2.6912,0.0,2.5304,2.5462,0.0,0.0,0.0,0.0,0.0,0.0,0.0,0.0,0.0,0.0,0.0,0.0,0.0,0.0,0.0,0.0,0.0,0.0,0.0,0.0,0.0,0.0,2.6763,2.6831,2.7192,2.759,2.7736,2.6684,2.5864,2.635,2.6702,2.6914,0.0,0.0,0.0,0.0,0.0,0.0,3.0098,3.0469,3.0723,3.0723,3.0762,3.0801,3.0801,3.0859,3.0859,3.0801,3.0742,3.0508,3.0039,2.998,0.0,0.0,0.0,0.0,0.0,0.0,0.0,0.0,0.0,0.0,0.0,0.0,0.0,0.0,0.0,0.0,0.0,0.0,0.0,0.0,0.0,0.0,0.0,0.0,0.0,0.0,0.0,0.0,0.0,2.4386,2.4887,2.6329,2.556,2.5433,0.0,0.0,0.0,0.0,0.0,0.0,0.0,0.0,0.0,2.6474,2.6666,2.661,2.6252,2.6009,2.5869,2.5869,2.565,2.5527,2.5571,2.6519,2.6669,2.6221,2.6943,2.6878,2.6247,2.6133,2.6092,2.6151,0.0,0.0,0.0,0.0,2.5915,2.4919,2.5572,2.538,2.4814,2.4379,0.0,0.0,0.0,0.0,0.0,0.0,0.0,2.642,2.6406,2.6875,2.7441,2.7676,2.8066,2.8437,2.8718,2.8308,2.7812,2.7519,2.7793,2.8059,2.8059,2.875,0.0,0.0,0.0,3.0293,3.0547,3.0762,3.0976,3.1211,3.125,3.1348,3.1612,3.1631,3.1631,3.1631,3.1631,3.1406,3.0957,3.0703,3.0195,0.0,0.0,0.0,0.0,0.0,0.0,0.0,0.0,0.0,0.0,0.0,0.0,0.0,0.0,0.0,0.0,0.0,0.0,0.0,0.0,0.0,0.0,0.0,0.0,0.0,0.0,0.0,0.0,2.4863,2.523,2.6901,2.6158,2.6041,0.0,0.0,0.0,0.0,0.0,0.0,2.6867,2.7239,2.7011,2.6023,2.6408,2.6229,2.5458,2.5815,2.603,2.605,2.6387,2.6543,2.6562,2.6875,2.6986,2.6986,2.6986,2.6986,2.6984,2.6839,2.6651,2.6498,2.6996,2.6647,2.595,2.6871,2.6225,2.5098,2.6324,2.6247,2.559,2.559,2.5781,2.5971,2.5688,0.0,0.0,0.0,0.0,2.7305,2.709,2.7624,2.8249,2.8562,2.8848,2.918,2.952,2.9598,2.9403,2.8777,2.8965,2.9219,2.9101,2.9531,0.0,3.0332,3.0469,3.0703,3.1152,3.1211,3.1328,3.1641,3.168,3.1816,3.2179,3.2198,3.2198,3.2198,3.2198,3.2042,3.1699,3.1387,3.0996,3.0547,0.0,0.0,0.0,0.0,0.0,0.0,0.0,0.0,0.0,0.0,0.0,0.0,0.0,0.0,0.0,0.0,0.0,0.0,0.0,0.0,0.0,0.0,0.0,0.0,0.0,0.0,0.0,0.0,0.0,2.8568,2.6728,0.0,0.0,0.0,0.0,2.692,2.7387,2.737,2.6735,2.6731,2.6426,2.5741,2.6168,2.6403,2.6353,2.6738,2.6928,2.6928,2.6947,2.6973,2.6967,2.6986,2.6986,2.6986,2.6986,2.6986,2.7012,2.6984,2.6501,2.5752,2.5785,2.553,2.5196,2.5652,2.5991,2.6372,2.6828,2.6939,2.6889,2.6889,2.6908,2.6928,2.6889,2.6953,0.0,0.0,2.7936,2.832,2.8664,2.9121,2.95,2.952,2.9559,2.9579,2.9598,2.9598,2.9579,2.954,2.9872,3.0,2.9637,0.0,3.084,3.0859,3.1191,3.1601,3.2081,3.214,3.214,3.2159,3.2159,3.2179,3.2198,3.2198,3.2198,3.2198,3.2198,3.2179,3.2179,3.214,3.1894,3.1435,3.1396,0.0,0.0,0.0,0.0,0.0,0.0,0.0,0.0,0.0,0.0,0.0,0.0,0.0,0.0,0.0,0.0,0.0,0.0,0.0,0.0,0.0,0.0,0.0,0.0,0.0,0.0,0.0,0.0,2.6967,2.6323,0.0,2.7165,2.6955,2.6766,2.6766,2.684,2.674,2.6512,2.6743,2.6765,2.6537,2.6973,2.7233,2.7233,2.7637,2.7832,2.7832,2.8105,2.8215,2.8215,2.8535,2.8652,2.8652,2.8652,2.8652,2.8652,2.8652,2.7832,2.6537,2.6537,2.6465,2.6348,2.6479,2.6635,2.6816,2.6947,2.6986,2.707,2.7344,2.7617,2.7891,2.8137,2.8437,2.8718,2.8875,2.9031,2.9188,2.9297,2.9481,2.9676,2.9902,3.0009,3.0137,3.0703,3.082,3.0898,3.1221,3.0947,3.0684,3.0801,3.1328,3.1749,3.1749,3.1866,3.2022,3.2179,3.2198,3.2296,3.257,3.2609,3.2676,3.2949,3.2969,3.2969,3.2969,3.2969,3.2851,3.2578,3.2609,3.2394,3.1983,3.1934,3.1582,0.0,0.0,0.0,0.0,0.0,0.0,0.0,0.0,0.0,0.0,0.0,0.0,0.0,0.0,0.0,0.0,0.0,0.0,0.0,0.0,0.0,0.0,0.0,0.0,0.0,2.5566,2.5717,2.6292,2.6117,2.6254,2.6995,2.6771,2.6652,2.6771,2.667,2.666,2.6842,2.709,2.7305,2.7441,2.7871,2.8086,2.8086,2.8542,2.8758,2.873,2.9004,2.9141,2.9141,2.9461,2.9598,2.9598,2.9598,2.9598,2.9598,2.9598,2.8933,2.7871,2.7689,2.763,2.763,2.763,2.7754,2.7871,2.7871,2.7871,2.793,2.823,2.8523,2.8797,2.9062,2.9336,2.9598,2.9598,2.9696,2.9813,2.9813,3.0028,3.0293,3.0586,3.0762,3.1016,3.1601,3.1738,3.1816,3.214,3.1749,3.1406,3.1699,3.1973,3.2237,3.2394,3.2413,3.2511,3.2804,3.2843,3.3,3.3398,3.3437,3.3555,3.3828,3.3711,3.3711,3.3848,3.3711,3.3574,3.3437,3.3301,3.3117,3.2843,3.2707,3.2305,3.1738,0.0,0.0,0.0,0.0,0.0,0.0,0.0,0.0,0.0,0.0,0.0,0.0,0.0,0.0,0.0,0.0,0.0,0.0,0.0,0.0,0.0,0.0,0.0,2.6076,2.5977,2.6134,2.6821,2.6182,2.6154,2.7265,2.6796,2.6582,2.6986,2.7025,2.7246,2.7702,2.7741,2.7936,2.832,2.873,2.8937,2.8937,2.9414,2.9657,2.9657,2.9676,2.9676,2.9676,2.9676,2.9676,2.9676,2.9676,2.9676,2.9676,2.9676,2.9676,2.9637,2.9121,2.8918,2.8918,2.8918,2.9199,2.9598,2.9598,2.9598,2.9598,2.9598,2.9618,2.9618,2.9618,2.9618,2.9637,2.9657,2.995,3.0234,3.0254,3.0898,3.1513,3.1513,3.1855,3.2198,3.2218,3.2218,3.2237,3.2257,3.2257,3.2257,3.2218,3.2237,3.2394,3.2773,3.2851,0.0,3.4016,3.4114,3.429,3.4648,3.4707,3.4707,3.4707,3.4336,3.429,3.4668,3.4316,3.431,3.4687,3.4349,3.4114,3.4114,3.3672,3.3406,3.3406,0.0,0.0,0.0,0.0,0.0,0.0,0.0,0.0,0.0,0.0,0.0,0.0,0.0,0.0,0.0,0.0,0.0,0.0,0.0,0.0,0.0,2.4809,2.5908,2.5947,2.5831,2.5956,2.6471,2.6344,2.6452,2.7053,2.6934,2.7012,2.7487,2.7773,2.8125,2.8555,2.8894,2.9129,2.9246,2.9629,2.9844,2.9844,3.0605,3.0976,3.0976,3.1338,3.1475,3.1475,3.1475,3.1475,3.1475,3.1475,3.1475,3.1475,3.1475,3.1475,3.1358,2.995,2.9422,2.9422,2.9422,2.95,2.9598,2.9598,2.9598,2.9598,2.9598,2.9813,3.0019,3.0019,3.0254,3.0586,3.0898,3.1074,3.123,3.1543,3.1846,3.2022,3.2022,3.212,3.2276,3.2559,3.2617,3.2843,3.3469,3.3586,3.3391,3.2734,3.3176,3.3625,3.3743,3.3984,3.4258,3.4492,3.4531,3.457,3.4687,3.4707,3.4707,3.4707,3.459,3.457,3.4687,3.459,3.457,3.4687,3.459,3.4531,3.4531,3.4101,3.3887,0.0,0.0,0.0,0.0,0.0,0.0,0.0,0.0,0.0,0.0,0.0,0.0,0.0,0.0,0.0,0.0,0.0,0.0,0.0,0.0,0.0,0.0,2.5179,2.6175,2.6333,2.6146,2.6172,2.6602,2.6816,2.709,2.7519,2.7715,2.7988,2.8464,2.8718,2.9004,2.9434,2.9687,3.0028,3.0371,3.0625,3.084,3.1045,3.1523,3.1797,3.1797,3.2081,3.2198,3.2198,3.2198,3.2198,3.2198,3.2198,3.2198,3.2198,3.2198,3.2198,3.2101,0.0,0.0,0.0,0.0,3.0693,3.0693,3.0693,3.0693,3.0693,3.0693,3.0849,3.1045,3.1045,3.124,3.1484,3.1719,3.1797,3.1855,3.214,3.2335,3.2452,3.2452,3.2726,3.3058,3.3281,3.3476,3.375,3.4238,3.4336,0.0,3.2662,3.3502,3.4336,3.4336,3.4551,3.4766,3.4961,3.498,3.5059,3.5234,3.5254,3.5254,3.5254,3.5098,0.0,0.0,0.0,3.498,3.498,3.498,0.0,0.0,0.0,3.4466,3.4662,3.418,0.0,0.0,3.2851,3.2824,0.0,0.0,0.0,0.0,0.0,0.0,0.0,0.0,0.0,0.0,0.0,0.0,0.0,0.0,0.0,0.0,2.5923,2.668,2.709,2.6875,2.6797,2.7129,2.7539,2.7995,2.8398,2.8769,2.918,2.9637,2.9676,2.9872,3.0312,3.0351,0.0,0.0,0.0,3.1777,3.2198,3.2237,3.2296,3.2335,3.2394,3.2433,3.2492,3.2492,3.2492,3.2492,3.2492,3.2492,3.2492,3.2492,3.2492,3.2472,3.2276,3.2198,3.2198,3.2198,3.2198,3.2198,3.2198,0.0,0.0,3.2198,3.2198,3.2198,3.2198,3.2198,3.2218,3.2257,3.2296,3.2355,3.2394,3.2695,3.3008,3.3008,3.3594,3.4108,3.3915,3.4303,3.4641,3.4483,3.447,3.3941,3.2326,3.3377,3.447,3.447,3.4508,3.4749,3.5377,3.5469,3.5605,3.5942,3.5982,0.0,3.5982,3.5684,3.5625,3.5962,3.5664,3.5469,3.5469,3.5469,3.5469,3.5469,3.5059,3.5059,3.5469,3.5059,3.4844,3.4824,3.3965,3.3769,0.0,0.0,0.0,0.0,0.0,0.0,0.0,0.0,0.0,0.0,0.0,0.0,0.0,0.0,0.0,2.5043,2.6412,2.7585,2.7988,2.8262,2.834,2.8086,2.8418,2.8848,2.9305,2.9422,2.9657,3.0039,3.0078,3.043,3.1211,3.1269,3.1504,3.2061,3.2081,3.212,3.2198,3.2531,3.2851,3.3184,3.3535,0.0,3.4219,3.4219,3.4219,3.4219,3.4219,3.4219,3.4219,3.4219,3.4219,3.4062,3.2726,3.2198,3.2198,3.2198,3.2198,3.2198,3.2198,3.2198,3.2198,3.2198,3.2198,3.2198,3.2198,3.2198,0.0,3.2578,3.293,3.3262,3.3645,3.4023,3.4336,3.4336,3.4453,3.4178,3.2655,3.3591,3.4357,3.3157,3.2942,3.2931,3.295,3.2957,3.2942,3.2942,3.3251,3.4056,3.5675,3.5864,3.5903,3.5982,3.5982,3.5982,3.5982,3.5937,3.5937,3.6016,3.5937,3.5864,3.5864,3.5864,3.5864,3.5864,3.5767,3.5767,3.5864,3.5767,3.5728,3.5742,3.4863,3.4492,0.0,0.0,0.0,0.0,0.0,0.0,0.0,0.0,0.0,0.0,0.0,2.3359,2.4027,0.0,2.5684,2.6568,2.7448,2.823,2.8875,2.9297,2.9394,2.9012,2.9297,2.9648,2.9891,3.0126,3.041,3.082,3.0859,3.1152,3.1816,3.1836,3.2031,3.2511,3.2511,3.2726,3.3156,3.3371,3.3652,3.4062,3.4277,3.4492,3.4707,3.4707,3.4707,3.4707,3.4707,3.4707,3.4707,3.4707,3.4707,3.4609,3.3769,3.3469,3.3469,3.3469,3.3469,3.3469,3.3469,3.3469,3.3469,3.3469,3.3469,3.3469,3.3469,3.3469,3.3476,3.3691,3.3906,3.4121,3.4336,3.3858,3.3317,3.3317,3.2747,3.1946,3.0993,3.1697,3.2303,3.1548,3.1409,3.1164,3.0487,3.0142,3.0308,3.127,3.2436,3.3205,3.3152,3.3985,3.4227,3.3256,3.3152,3.3152,3.3152,3.3152,3.3552,3.4555,3.459,3.5021,3.5947,3.5982,3.5982,3.5982,3.5982,3.5982,3.5982,3.5982,3.5982,3.5982,3.5566,3.5351,0.0,0.0,0.0,0.0,0.0,0.0,0.0,2.1777,2.2206,2.3086,2.3887,2.4652,2.5336,2.5879,2.6654,2.8066,2.8496,2.8906,2.9618,3.0059,3.0215,2.9891,3.0146,3.0332,3.0332,3.0742,3.1152,3.1474,3.1601,3.1836,3.2296,3.2316,3.255,3.3027,3.3047,3.3418,3.4212,3.4231,3.4446,3.4824,3.4824,3.4883,3.4961,3.4961,3.4961,3.4961,3.4961,3.4961,3.4961,3.4961,3.4961,3.4961,3.4961,3.4961,3.4941,3.4766,3.4707,3.4707,3.4707,3.4707,3.4707,3.4707,3.4707,3.4707,3.4707,3.4458,3.4162,3.4162,3.3936,3.3728,3.3728,3.2664,3.1587,3.1587,3.0685,2.9706,2.9371,2.9794,3.0203,2.9812,2.9741,2.9294,2.7744,2.7179,2.7563,2.9472,3.1104,3.1667,3.0451,3.1667,3.2018,3.0487,3.031,3.031,3.031,3.031,3.0982,3.2525,3.263,3.3482,3.5382,3.5451,3.5621,3.5982,3.5982,3.5982,3.5982,3.5982,3.5982,3.5982,3.5982,3.5982,1.9701,1.9879,2.0918,2.2012,2.2305,2.2793,0.0,2.4883,2.4906,2.5762,2.6328,2.668,2.6777,2.7461,2.8066,2.8262,2.9238,3.0019,3.0117,3.0527,3.0801,3.0742,3.0781,3.082,3.082,3.1191,3.1435,3.1504,3.1875,3.2316,3.2695,3.2734,3.3105,3.3938,3.3958,3.416,3.4629,3.4629,3.4863,3.5312,3.5312,3.5508,3.5845,3.5845,3.5845,3.5845,3.5845,3.5845,3.5845,3.5845,3.5845,3.5845,3.5845,3.5845,3.5747,3.5,3.4707,3.4707,3.4707,3.4707,3.4707,3.4707,3.4707,3.4707,3.4707,3.3548,3.2232,3.2232,3.1265,3.027,3.027,3.0366,3.0476,3.0476,3.0368,2.9799,2.8115,2.9083,2.9812,2.8141,2.7816,2.7744,2.7542,2.6064,2.5566,2.7542,2.7996,2.8665,3.0097,3.0487,3.0558,3.031,3.031,3.031,3.031,3.031,3.038,3.0593,3.0628,3.1492,3.3413,3.3517,3.4314,3.5947,3.5982,3.5982,3.5982,3.5982,3.5982,3.5982,3.5982,3.5982,2.2383,2.2168,2.2383,2.3694,2.4027,2.4297,2.5445,2.5562,2.5703,2.6582,2.7285,2.7754,2.7754,2.8457,2.9149,2.9355,2.9844,3.0293,3.0566,3.0762,3.0976,3.123,3.125,3.125,3.125,3.1641,3.1992,3.2246,3.2441,3.2832,3.3528,3.3567,3.3809,3.4414,3.4434,3.4648,3.5098,3.5098,3.5312,3.5762,3.5762,3.5859,3.5982,3.5982,3.5982,3.5982,3.5982,3.5982,3.5913,3.4815,3.4383,3.428,3.3117,3.27,3.2908,3.4757,3.5469,3.5301,3.4199,3.3826,3.3638,3.251,3.2149,3.2149,3.2149,3.1599,3.0994,3.0994,3.0539,3.006,3.006,2.936,2.8665,2.8665,2.7801,2.6765,2.5991,2.6415,2.6728,2.5955,2.5822,2.5822,2.5822,2.5139,2.4894,2.5676,2.6779,2.736,2.7019,2.7981,2.8233,2.7092,2.6983,2.6983,2.6983,2.6983,2.7475,2.8593,2.8665,2.9544,3.1421,3.1527,3.1878,3.2665,3.27,3.27,3.27,3.27,3.27,3.27,3.27,3.27,2.3669,2.3669,2.3728,2.4828,2.5356,2.5684,2.5991,2.6147,2.642,2.707,2.7871,2.8457,2.8457,2.916,2.9872,3.0137,3.0312,3.0508,3.084,3.0996,3.1172,3.1484,3.1689,3.1875,3.1875,3.2148,3.2492,3.2773,3.3008,3.3418,3.4075,3.4212,3.4453,3.4883,3.4883,3.5117,3.5566,3.5566,3.5723,3.5982,3.5982,3.5982,3.5982,3.5982,3.5743,3.5226,3.5226,3.4918,3.4296,3.2943,3.242,3.2281,3.084,3.031,3.0628,3.3413,3.4452,3.4227,3.2874,3.242,3.2158,3.077,3.031,3.031,3.031,2.9919,2.9544,2.9544,2.9151,2.8721,2.8721,2.7728,2.6721,2.6721,2.5602,2.4599,2.4599,2.4599,2.4599,2.4599,2.4599,2.4599,2.4599,2.4599,2.4599,2.4599,2.5786,2.6174,2.4784,2.5822,2.6137,2.4747,2.4599,2.4599,2.4599,2.4599,2.5212,2.6612,2.6721,2.7563,2.9472,2.9544,2.9777,3.0274,3.031,3.0359,3.0423,3.0423,3.0472,3.0535,3.0535,3.0284,2.2441,2.3435,2.4492,2.4965,2.6016,2.6953,2.6947,2.7305,2.7643,2.7663,2.832,2.8879,2.8879,2.959,3.0176,3.0195,3.0566,3.0879,3.0898,3.125,3.1504,3.1494,3.2246,3.2754,3.2754,3.2773,3.2793,3.2793,3.3586,3.4075,3.4114,3.4453,3.4883,3.5351,3.5371,3.5566,3.5962,3.5962,3.5982,3.5982,3.5982,3.5982,3.5982,3.5982,3.5021,3.3274,3.3274,3.2246,3.0487,3.0416,3.038,3.038,3.031,3.031,3.031,3.0416,3.0487,3.0451,3.0416,3.038,3.038,3.031,3.031,3.031,3.031,2.9008,2.7578,2.7578,2.621,2.4784,2.4784,2.4747,2.471,2.471,2.4636,2.4599,2.4599,2.4599,2.4599,2.4599,2.4599,2.4599,2.4599,2.4599,2.4599,2.4599,2.4636,2.4673,2.4599,2.4636,2.4673,2.4599,2.4599,2.4599,2.4599,2.4599,2.4636,2.4673,2.471,2.5566,2.7505,2.7578,2.8449,3.0274,3.031,3.0439,3.0766,3.0766,3.0911,3.1166,3.1166,3.0187,2.3594,2.4489,2.5503,2.6568,2.735,2.793,2.8196,2.8398,2.8496,2.8496,2.8711,2.8898,2.8898,2.9629,3.0195,3.0195,3.0586,3.0898,3.0898,3.125,3.1621,3.1914,3.2441,3.291,3.3184,3.3203,3.334,3.3645,3.3938,3.4368,3.4922,3.5078,3.5351,3.5801,3.5801,3.5879,3.5982,3.5982,3.5982,3.5982,3.4746,3.4123,3.4089,3.2804,3.1878,3.128,3.128,3.0911,3.0203,2.8972,2.8449,2.8305,2.7019,2.6524,2.6524,2.6524,2.6524,2.6692,2.7981,2.8449,2.8233,2.6946,2.6524,2.6524,2.6524,2.6101,2.5566,2.5566,2.5102,2.4599,2.4599,2.4599,2.4599,2.4599,2.4599,2.4599,2.4599,2.4599,2.4599,2.4599,2.4599,2.4599,2.4599,2.4599,2.4666,2.4903,2.4719,2.4599,2.4599,2.4599,2.4679,2.4917,2.493,2.501,2.5159,2.5211,2.5211,2.5211,2.5211,2.5475,2.6139,2.6176,2.6463,2.7107,2.7107,2.7165,2.7265,2.7265,2.7323,2.7424,2.7424,2.706,2.4625,2.5503,2.644,2.7598,2.8203,2.8594,2.882,2.8898,2.8898,2.8898,2.8898,2.8937,2.9121,2.9726,3.0195,3.0195,3.0586,3.0937,3.1094,3.1484,3.1914,3.2374,3.2754,3.3184,3.3613,3.3652,3.3769,3.4075,3.4407,3.4818,3.5371,3.5527,3.5742,3.5982,3.5982,3.5982,3.5982,3.5982,3.5655,3.4986,3.3778,3.2839,3.2123,3.0876,2.9919,2.9294,2.9294,2.89,2.8182,2.6961,2.6466,2.6357,2.5102,2.4599,2.4599,2.4599,2.4599,2.4784,2.6042,2.6466,2.6247,2.4991,2.4599,2.4599,2.4599,2.4599,2.4599,2.4599,2.4599,2.4599,2.4599,2.4599,2.4599,2.4599,2.4599,2.4599,2.4599,2.4599,2.4599,2.4599,2.4679,2.4796,2.4796,2.4839,2.4973,2.5211,2.5077,2.4906,2.4906,2.4906,2.4986,2.5211,2.5237,2.5304,2.5504,2.5518,2.5518,2.5518,2.5518,2.5518,2.5518,2.5518,2.5518,2.5518,2.5518,2.5558,2.5678,2.5678,2.5732,2.5825,2.5825,2.5825,2.5562,2.642,2.7285,2.8144,2.8652,2.8918,2.8918,2.8918,2.8918,2.8898,2.8898,2.9043,2.9461,2.9891,3.0156,3.0156,3.0566,3.1035,3.1435,3.1894,3.2355,3.2734,3.3184,3.3581,3.3927,3.4069,3.4141,3.4044,3.4889,3.541,3.543,3.5699,3.5845,3.5845,3.5777,3.569,3.569,3.569,3.4796,3.3066,3.2961,3.1948,3.0168,3.0061,2.9043,2.736,2.736,2.6284,2.4599,2.4599,2.4599,2.4599,2.4599,2.4599,2.4599,2.4599,2.4599,2.4599,2.4599,2.4599,2.4599,2.4599,2.4599,2.4599,2.4599,2.4599,2.4599,2.4599,2.4599,2.4599,2.4599,2.4599,2.4599,2.4599,2.4599,2.4599,2.4613,2.4626,2.4626,2.4639,2.4903,2.5104,2.5104,2.5331,2.5518,2.5531,2.5531,2.5531,2.5518,2.5518,2.5518,2.5531,2.5531,2.5545,2.5558,2.5558,2.5558,2.5558,2.5558,2.5558,2.5558,2.5558,2.5558,2.5558,2.5558,2.5692,2.6011,2.6011,2.6158,2.6386,2.6386,2.6386,2.6855,2.7559,2.8164,2.9051,2.9344,2.9422,2.9422,2.9422,2.9316,2.8957,2.8898,2.882,2.8652,2.9246,2.9755,2.9755,3.0419,3.1035,3.1435,3.1894,3.2355,3.2734,3.3457,3.3412,3.2059,3.3841,3.4456,3.3028,3.4447,3.5527,3.584,3.4602,3.3916,3.3916,3.2525,3.1738,3.1738,3.1738,3.1527,3.1017,2.9615,2.8701,2.8177,2.6707,2.5772,2.5359,2.5359,2.5065,2.4599,2.4599,2.4599,2.4599,2.4599,2.4599,2.4599,2.4599,2.4599,2.4599,2.4599,2.4599,2.4599,2.4599,2.4599,2.4599,2.4599,2.4599,2.4599,2.4599,2.4599,2.4599,2.4599,2.4599,2.4599,2.4599,2.4599,2.4653,2.4917,2.497,2.5024,2.5251,2.5344,2.5398,2.5398,2.5464,2.5585,2.585,2.5877,2.5758,2.5545,2.5518,2.5598,2.5864,2.5877,2.5932,2.6146,2.6172,2.6172,2.6172,2.6172,2.6172,2.6172,2.6172,2.6172,2.6172,2.6172,2.6199,2.6319,2.6319,2.6319,2.6386,2.6386,2.6386,2.7624,2.8242,2.8769,2.9657,2.9735,2.9559,2.9336,2.9277,2.916,2.873,2.8652,2.8633,2.8574,2.9149,2.9598,2.9598,3.0341,3.1113,3.1719,3.2042,3.2492,3.3293,3.3046,3.2534,3.1838,3.2458,3.251,3.1618,3.4097,3.5423,3.4796,3.3778,3.2804,3.1948,3.0876,3.031,3.031,3.031,2.9884,2.9043,2.7996,2.7034,2.6174,2.5102,2.4599,2.4599,2.4599,2.4599,2.4599,2.4599,2.4599,2.4599,2.4599,2.4599,2.4599,2.4599,2.4599,2.4599,2.4599,2.4599,2.4599,2.4599,2.4599,2.4599,2.4599,2.4599,2.4599,2.4599,2.4599,2.4599,2.4599,2.4693,2.4836,2.4836,2.4893,2.5064,2.5237,2.5277,2.5358,2.5651,2.5705,2.5745,2.5879,2.5892,2.5959,2.6158,2.6185,2.6118,2.5919,2.5892,2.5959,2.6172,2.6185,2.6252,2.6373,2.6386,2.6386,2.6386,2.6386,2.6386,2.6386,2.6386,2.6386,2.6386,2.6386,2.6386,2.6386,2.6386,2.6386,2.6386,2.6386,2.6386,2.8151,2.873,2.9199,3.0,2.995,2.9559,2.9023,2.8937,2.8867,2.8398,2.834,2.8496,2.8848,2.9277,2.9618,2.9676,3.0391,3.125,3.2081,3.2237,3.2633,3.3585,3.2278,3.143,3.1699,3.0545,2.9839,2.9938,3.324,3.4521,3.2909,3.256,3.1562,2.9599,2.9527,2.9527,2.9527,2.9527,2.8721,2.7106,2.7106,2.621,2.4599,2.4599,2.4599,2.4599,2.4599,2.4599,2.4599,2.4599,2.4599,2.4599,2.4599,2.4599,2.4599,2.4599,2.4599,2.4599,2.4599,2.4599,2.4599,2.4599,2.4599,2.4599,2.4599,2.4599,2.4599,2.4599,2.4626,2.4653,2.4653,2.4917,2.5144,2.5144,2.5331,2.5518,2.5558,2.5598,2.5705,2.5998,2.6051,2.6131,2.6346,2.6386,2.6386,2.6386,2.6386,2.6386,2.6386,2.6386,2.6386,2.6386,2.6386,2.6386,2.6386,2.6386,2.6386,2.6386,2.6386,2.6386,2.6386,2.6386,2.6386,2.6386,2.6386,2.6386,2.6386,2.6386,2.6413,2.6453,2.6453,2.6466,2.9031,2.9422,2.957,3.0078,3.0137,2.9883,2.9074,2.9199,2.9266,2.8457,2.8574,2.8801,2.8879,2.9277,2.9715,3.0039,3.084,3.1582,3.212,3.2492,3.2445,3.1785,3.1757,3.0735,2.8053,2.927,2.957,2.8089,3.0042,3.1158,3.0805,2.9329,2.7599,2.5662,2.5602,2.5602,2.5602,2.5602,2.5419,2.5102,2.5102,2.4918,2.4599,2.4599,2.4599,2.4599,2.4599,2.4599,2.4599,2.4599,2.4599,2.4599,2.4599,2.4599,2.4599,2.4599,2.4599,2.4599,2.4599,2.4599,2.4599,2.4599,2.4599,2.4599,2.4599,2.4599,2.4599,2.4599,2.481,2.4997,2.4997,2.5224,2.5438,2.5438,2.5478,2.5585,2.5864,2.6105,2.6253,2.6306,2.6319,2.6333,2.6386,2.6386,2.6386,2.6386,2.6386,2.6386,2.6386,2.6386,2.6386,2.6386,2.6386,2.6386,2.6386,2.6386,2.6386,2.6386,2.6386,2.6386,2.6386,2.6386,2.6386,2.6386,2.6386,2.6386,2.6386,2.6386,2.6507,2.6747,2.6747,2.6881,2.8945,2.9238,2.9336,2.9794,2.9891,2.9676,2.8789,2.8926,2.8984,2.8171,2.8301,2.8652,2.8859,2.9277,2.9735,3.0137,3.0937,3.168,3.214,3.176,3.1485,3.155,3.0054,2.8534,2.7314,2.7278,2.6946,2.6064,2.6801,2.7765,2.8793,2.7034,2.5566,2.4636,2.4599,2.4599,2.4599,2.4599,2.4599,2.4599,2.4599,2.4599,2.4599,2.4599,2.4599,2.4599,2.4599,2.4599,2.4599,2.4599,2.4599,2.4599,2.4599,2.4599,2.4599,2.4599,2.4599,2.4599,2.4599,2.4693,2.4863,2.4863,2.4719,2.4626,2.4823,2.4863,2.4903,2.5013,2.5197,2.5304,2.5304,2.5518,2.5745,2.5745,2.5852,2.6012,2.6185,2.6293,2.6386,2.6386,2.6386,2.6386,2.6386,2.6386,2.6386,2.6386,2.6386,2.6386,2.6386,2.6386,2.6386,2.6386,2.6386,2.6386,2.6386,2.6386,2.6386,2.6386,2.6386,2.6386,2.6386,2.6386,2.6386,2.6386,2.6533,2.6613,2.6613,2.6774,2.6921,2.7054,2.7054,2.7175,2.8691,2.8898,2.9004,2.9383,2.9598,2.9481,2.8516,2.8691,2.8828,2.7995,2.8093,2.8437,2.8965,2.9336,2.9774,3.0254,3.1016,3.168,3.214,3.104,3.0484,3.12,2.8379,2.6511,2.6866,2.5492,2.4599,2.4599,2.4599,2.5286,2.6794,2.5419,2.4599,2.4599,2.4599,2.4599,2.4599,2.4599,2.4599,2.4599,2.4599,2.4599,2.4599,2.4599,2.4599,2.4599,2.4599,2.4599,2.4599,2.4599,2.4599,2.4599,2.4599,2.4599,2.4613,2.4666,2.4693,2.4706,2.4759,2.4983,2.517,2.517,2.501,2.4826,2.5104,2.517,2.5224,2.5451,2.5558,2.5611,2.5611,2.5864,2.6091,2.6091,2.6265,2.6386,2.6386,2.6386,2.6386,2.6386,2.6386,2.6386,2.6386,2.6386,2.6386,2.6386,2.6386,2.6386,2.6386,2.6386,2.6386,2.6386,2.6386,2.6386,2.6386,2.6386,2.6386,2.6386,2.6386,2.6413,2.648,2.648,2.6507,2.6573,2.68,2.6921,2.6921,2.7148,2.7336,2.7403,2.7403,2.7429,2.8691,2.8898,2.8898,2.8937,2.957,2.9824,2.8574,2.8953,2.9305,2.8418,2.8262,2.8535,2.9383,2.9579,2.9872,3.0684,3.1211,3.168,3.214,3.104,2.9983,2.9343,2.7551,2.5995,2.4974,2.471,2.4599,2.4599,2.4599,2.4673,2.4844,2.471,2.4599,2.4599,2.4599,2.4599,2.4599,2.4599,2.4599,2.4599,2.4599,2.4599,2.4599,2.4599,2.4599,2.4599,2.4599,2.4599,2.4599,2.4599,2.4599,2.4599,2.4599,2.4599,2.4639,2.4943,2.5037,2.5077,2.5344,2.5451,2.5478,2.5478,2.5451,2.5438,2.5464,2.5478,2.5478,2.5504,2.5705,2.5957,2.5957,2.6172,2.6346,2.6346,2.6373,2.6386,2.6386,2.6386,2.6386,2.6386,2.6386,2.6386,2.6386,2.6386,2.6386,2.6386,2.6386,2.6386,2.6386,2.6386,2.6386,2.6386,2.6386,2.6386,2.6386,2.6386,2.6386,2.6386,2.6386,2.6507,2.6734,2.6747,2.6907,2.7229,2.7255,2.7269,2.7269,2.7296,2.7443,2.7655,2.7655,2.7844,2.8379,2.8535,2.8594,2.882,2.9152,2.9269,2.8789,2.8926,2.9004,2.8418,2.8301,2.8582,2.9442,2.9598,2.9891,3.0742,3.0441,3.0445,3.1618,2.9108,2.7507,2.8504,2.6384,2.4756,2.4619,2.4599,2.4599,2.4599,2.4599,2.4599,2.4599,2.4599,2.4599,2.4599,2.4599,2.4599,2.4599,2.4599,2.4599,2.4599,2.4599,2.4599,2.4599,2.4599,2.4599,2.4599,2.4599,2.4599,2.4599,2.4599,2.4599,2.4613,2.4836,2.4903,2.4943,2.5237,2.5344,2.5358,2.5478,2.5625,2.5824,2.5824,2.5892,2.6012,2.5838,2.5824,2.5812,2.5985,2.6132,2.6252,2.6252,2.6306,2.6386,2.6386,2.6386,2.6386,2.6386,2.6386,2.6386,2.6386,2.6386,2.6386,2.6386,2.6386,2.6386,2.6386,2.6386,2.6386,2.6386,2.6386,2.6386,2.6386,2.6386,2.6466,2.664,2.6653,2.672,2.6948,2.6961,2.7015,2.7081,2.7094,2.7148,2.7309,2.7483,2.7522,2.7522,2.775,2.7898,2.8005,2.8005,2.8072,2.8015,2.823,2.8398,2.8781,2.8898,2.8898,2.8898,2.8898,2.8809,2.8379,2.8398,2.8672,2.9285,2.9618,2.9989,3.0586,2.968,2.9536,3.145,2.7773,2.5786,2.8173,2.5612,2.3875,2.4412,2.4546,2.4599,2.4599,2.4599,2.4599,2.4599,2.4599,2.4599,2.4599,2.4599,2.4599,2.4599,2.4599,2.4599,2.4599,2.4599,2.4599,2.4599,2.4599,2.4599,2.4599,2.4599,2.4653,2.477,2.477,2.4786,2.4879,2.513,2.5211,2.5237,2.5531,2.5638,2.5651,2.5745,2.5905,2.6118,2.6118,2.6265,2.6346,2.6185,2.6118,2.6172,2.6333,2.6386,2.6386,2.6386,2.6386,2.6386,2.6386,2.6386,2.6386,2.6386,2.6386,2.6386,2.6386,2.6386,2.6386,2.6386,2.6386,2.6386,2.6386,2.6386,2.6386,2.6386,2.6466,2.652,2.652,2.66,2.6694,2.6774,2.6907,2.7041,2.7296,2.7309,2.7349,2.7429,2.7429,2.7483,2.7563,2.7764,2.7871,2.7829,2.8085,2.8179,2.8179,2.8179,2.8179,2.7585,2.7995,2.8398,2.8781,2.8898,2.8898,2.8898,2.8898,2.8809,2.8379,2.8633,2.8879,2.8898,2.9609,3.0195,3.0195,2.9191,2.9285,3.1849,2.7706,2.5461,2.8275,2.5456,2.3532,2.4155,2.4426,2.4599,2.4599,2.4599,2.4599,2.4599,2.4599,2.4599,2.4599,2.4599,2.4599,2.4599,2.4599,2.4599,2.4599,2.4599,2.4599,2.4599,2.4599,2.4599,2.4599,2.4599,2.4796,2.5077,2.5077,2.5251,2.5504,2.5504,2.5504,2.5545,2.5877,2.5998,2.6038,2.6279,2.6386,2.6386,2.6386,2.6386,2.6386,2.6386,2.6386,2.6386,2.6386,2.6386,2.6386,2.6386,2.6386,2.6386,2.6386,2.6386,2.6386,2.6386,2.6386,2.6386,2.6386,2.6386,2.6386,2.6386,2.6386,2.6386,2.6386,2.6386,2.6386,2.6386,2.664,2.6814,2.6814,2.7081,2.7134,2.6854,2.7094,2.7309,2.7309,2.7309,2.7443,2.7682,2.7696,2.7829,2.8165,2.8179,2.8179,2.8179,2.8179,2.8179,2.8179,2.8179,2.8179,2.7109,2.7324,2.7598,2.832,2.8281,2.8203,2.8762,2.8691,2.8457,2.832,2.8398,2.8672,2.9258,2.9618,2.9989,3.0566,2.9407,2.8756,2.9787,2.6736,2.497,2.6503,2.5194,2.4252,2.4439,2.4546,2.4599,2.4599,2.4599,2.4599,2.4599,2.4599,2.4599,2.4599,2.4599,2.4599,2.4599,2.4599,2.4599,2.4599,2.4599,2.4599,2.4599,2.4599,2.4743,2.4943,2.4943,2.5104,2.5371,2.5371,2.5424,2.5531,2.5732,2.585,2.5891,2.6185,2.6253,2.6305,2.636,2.6386,2.6386,2.6386,2.6386,2.6386,2.6386,2.6386,2.6386,2.6386,2.6386,2.6386,2.6386,2.6386,2.6386,2.6386,2.6386,2.6386,2.6386,2.6386,2.6386,2.6386,2.6386,2.6386,2.6386,2.6386,2.6386,2.6386,2.6386,2.6386,2.6386,2.664,2.6787,2.6787,2.7268,2.7522,2.7428,2.7509,2.7684,2.7898,2.7911,2.7951,2.8045,2.8045,2.8085,2.8179,2.8179,2.8179,2.8179,2.8179,2.8179,2.8179,2.8179,2.8179,2.666,2.6869,2.7226,2.8086,2.8015,2.7917,2.873,2.8594,2.834,2.8496,2.8535,2.875,2.9461,2.9735,2.981,2.9726,2.8976,2.8367,2.8228,2.6025,2.4525,2.4825,2.4627,2.4439,2.4439,2.4532,2.4599,2.4599,2.4599,2.4599,2.4599,2.4599,2.4599,2.4599,2.4599,2.4599,2.4599,2.4599,2.4599,2.4599,2.4599,2.4599,2.4599,2.4719,2.4903,2.5128,2.5197,2.5411,0.0,2.5678,2.5745,2.5865,2.6091,2.6158,2.6185,2.6319,2.6386,2.6386,2.6386,2.6386,2.6386,2.6386,2.6386,2.6386,2.6386,2.6386,2.6386,2.6386,2.6386,2.6386,2.6386,2.6386,2.6386,2.6386,2.6386,2.6386,2.6386,2.6386,2.6386,2.6386,2.6386,2.6386,2.6386,2.6386,2.6386,2.6386,2.6386,2.6426,2.6533,2.6814,2.7028,2.7134,2.7575,2.7911,2.7911,2.7911,2.7991,2.8179,2.8179,2.8179,2.8179,2.8179,2.8179,2.8179,2.8179,2.8179,2.8179,2.8179,2.8179,2.8179,2.8179,2.8179,0.0,2.6621,2.7129,2.7988,2.7936,2.7858,2.8664,2.8574,0.0,2.8801,2.8898,2.9062,2.9559,2.997,2.9738,2.8264,2.8251,2.8094,2.7212,2.551,2.4113,2.3434,2.3875,2.4222,2.4209,2.4426,2.4599,2.4599,2.4599,2.4599,2.4599,2.4599,2.4599,2.4599,2.4599,2.4599,2.4599,2.4599,2.4599,2.4599,2.4599,2.4613,2.4639,2.4957,2.5104,2.5195,2.5424,2.5718,2.6024,2.6024,2.6185,2.6386,2.6386,2.6386,2.6386,2.6386,2.6386,2.6386,2.6386,2.6386,2.6386,2.6386,2.6386,2.6386,2.6386,2.6386,2.6386,2.6386,2.6386,2.6386,2.6386,2.6386,2.6386,2.6386,2.6386,2.6386,2.6386,2.6386,2.6386,2.6386,2.6386,2.6386,2.6386,2.6386,2.6386,2.6386,2.6413,2.652,2.6787,2.7094,2.7443,2.7669,2.8005,2.8179,2.8179,2.8179,2.8179,2.8179,2.8179,2.8179,2.8179,2.8179,2.8179,2.8179,2.8179,2.8179,2.8179,2.8179,2.8179,2.8179,2.8179,2.8179,2.5835,0.0,2.6225,2.7109,2.7246,2.7383,0.0,2.8359,2.8418,2.8801,2.8898,2.916,2.9902,3.0137,3.0198,3.0151,2.9161,2.8064,2.7086,2.5226,2.3876,2.3705,2.4182,2.4412,2.4222,2.4426,2.4599,2.4599,2.4599,2.4599,2.4599,2.4599,2.4599,2.4599,2.4599,2.4599,2.4599,2.4599,2.4599,2.4599,2.4599,2.4719,2.4983,2.505,2.5369,2.5797,2.5864,2.6051,2.6332,2.6332,2.6333,2.6386,2.6386,2.6386,2.6386,2.6386,2.6386,2.6386,2.6386,2.6386,2.6386,2.6386,2.6386,2.6386,2.6386,2.6386,2.6386,2.6386,2.6386,2.6386,2.6386,2.6386,2.6386,2.6386,2.6386,2.6386,2.6386,2.6386,2.6386,2.6386,2.6386,2.6386,2.6386,2.6386,2.6386,2.6386,2.6573,2.6747,2.6774,2.7281,2.7629,2.7696,2.8005,2.8179,2.8179,2.8179,2.8179,2.8179,2.8179,2.8179,2.8179,2.8179,2.8179,2.8179,2.8179,2.8179,2.8179,2.8179,2.8179,2.8179,2.8179,2.8179,2.5693,2.5854,2.6167,2.683,2.7168,2.7539,2.8379,2.8574,2.875,2.9375,2.9355,2.9473,3.0351,2.9833,2.9471,2.9993,2.8738,2.7317,2.6135,2.4596,2.3621,2.379,2.4168,2.4422,2.4409,2.4506,2.4599,2.4599,2.4599,2.4599,2.4599,2.4599,2.4599,2.4599,2.4599,2.4599,2.4599,2.4599,2.4599,2.4599,2.4599,2.4796,2.5077,2.5224,2.5569,2.5998,2.6131,2.6279,2.6386,2.6386,2.6386,2.6386,2.6386,2.6386,2.6386,2.6386,2.6386,2.6386,2.6386,2.6386,2.6386,2.6386,2.6386,2.6386,2.6386,2.6386,2.6386,2.6386,2.6386,2.6386,2.6386,2.6386,2.6386,2.6386,2.6386,2.6386,2.6386,2.6386,2.6386,2.6386,2.6386,2.6386,2.6386,2.6386,2.644,2.6573,2.672,2.688,2.7188,2.7495,2.7749,2.7924,2.8085,2.8179,2.8179,2.8179,2.8179,2.8179,2.8179,2.8179,2.8179,2.8179,2.8179,2.8179,2.8179,2.8179,2.8179,2.8179,2.8179,2.8179,2.8179,2.8179,2.5674,2.6152,2.668,2.7031,2.7428,2.7917,2.873,2.8898,2.916,3.0019,2.995,2.997,3.082,2.9479,2.8541,2.9434,2.8137,2.6487,2.4878,2.3956,2.3554,2.3843,2.4088,2.4342,2.4519,2.4572,2.4599,2.4599,2.4599,2.4599,2.4599,2.4599,2.4599,2.4599,2.4599,2.4599,2.4599,2.4599,2.4599,2.4599,2.4599,2.4823,2.5157,2.5398,2.5705,2.6078,2.6279,2.6386,2.6386,2.6386,2.6386,2.6386,2.6386,2.6386,2.6386,2.6386,2.6386,2.6386,2.6386,2.6386,2.6386,2.6386,2.6386,2.6386,2.6386,2.6386,2.6386,2.6386,2.6386,2.6386,2.6386,2.6386,2.6386,2.6386,2.6386,2.6386,2.6386,2.6386,2.6386,2.6386,2.6386,2.6386,2.6386,2.6426,2.6533,2.6787,2.6894,2.7134,2.7629,2.7736,2.7898,2.8165,2.8179,2.8179,2.8179,2.8179,2.8179,2.8179,2.8179,2.8179,2.8179,2.8179,2.8179,2.8179,2.8179,2.8179,2.8179,2.8179,2.8179,2.8179,2.8179,2.8179,2.5601,2.6582,2.7506,2.7585,2.7643,2.7917,2.873,2.8898,2.916,3.0019,3.0137,3.0371,3.1269,2.9725,2.9129,3.137,2.9538,2.6823,2.3956,2.3829,2.4088,2.4128,2.4396,2.4452,2.4289,2.4452,2.4599,2.4599,2.4599,2.4599,2.4599,2.4599,2.4599,2.4599,2.4599,2.4599,2.4599,2.4599,2.4599,2.4599,2.4599,2.4879,2.5451,2.5491,2.5812,2.6319,2.6373,2.6386,2.6386,2.6386,2.6386,2.6386,2.6386,2.6386,2.6386,2.6386,2.6386,2.6386,2.6386,2.6386,2.6386,2.6386,2.6386,2.6386,2.6386,2.6386,2.6386,2.6386,2.6386,2.6386,2.6386,2.6386,2.6386,2.6386,2.6386,2.6386,2.6386,2.6386,2.6386,2.6386,2.6386,2.6386,2.6386,2.6587,2.6734,2.6774,2.7241,2.7602,2.7682,2.7965,2.8138,2.8179,2.8179,2.8179,2.8179,2.8179,2.8179,2.8179,2.8179,2.8179,2.8179,2.8179,2.8179,2.8179,2.8179,2.8179,2.8179,2.8179,2.8179,2.8179,2.8179,2.8179,2.5581,2.6479,2.7422,2.7917,2.8386,2.8894,2.9473,2.9609,2.9785,3.043,3.0566,3.0762,3.1406,2.9362,2.7515,2.7214,2.7024,2.6084,2.3649,2.3701,2.4022,2.4182,2.4329,2.4372,2.4399,2.4519,2.4599,2.4599,2.4599,2.4599,2.4599,2.4599,2.4599,2.4599,2.4599,2.4599,2.4599,2.4599,2.4599,2.4599,2.4599,2.4826,2.5291,2.5438,2.5745,2.6198,2.6319,2.6386,2.6386,2.6386,2.6386,2.6386,2.6386,2.6386,2.6386,2.6386,2.6386,2.6386,2.6386,2.6386,2.6386,2.6386,2.6386,2.6386,2.6386,2.6386,2.6386,2.6386,2.6386,2.6386,2.6386,2.6386,2.6386,2.6386,2.6386,2.6386,2.6386,2.6386,2.6386,2.6386,2.6386,2.6386,2.6386,2.6627,2.6881,2.7041,2.7428,2.7762,2.7965,2.8098,2.8179,2.8179,2.8179,2.8179,2.8179,2.8179,2.8179,2.8179,2.8179,2.8179,2.8179,2.8179,2.8179,2.8179,2.8179,2.8179,2.8179,2.8179,2.8179,2.8179,2.8179,2.8179,2.5449,2.6264,2.7187,2.7949,2.8738,2.9461,3.0059,3.0117,3.0234,3.0898,3.0722,3.0699,3.1629,2.9635,2.6874,2.3975,2.4953,2.5469,2.376,2.3781,2.4062,2.4275,2.4302,2.4359,2.4572,2.4599,2.4599,2.4599,2.4599,2.4599,2.4599,2.4599,2.4599,2.4599,2.4599,2.4599,2.4599,2.4599,2.4599,2.4599,2.4599,2.4796,2.5128,2.5384,2.5678,2.6011,2.6266,2.6386,2.6386,2.6386,2.6386,2.6386,2.6386,2.6386,2.6386,2.6386,2.6386,2.6386,2.6386,2.6386,2.6386,2.6386,2.6386,2.6386,2.6386,2.6386,2.6386,2.6386,2.6386,2.6386,2.6386,2.6386,2.6386,2.6386,2.6386,2.6386,2.6386,2.6386,2.6386,2.6386,2.6386,2.6413,2.648,2.6734,2.7028,2.7362,2.7657,2.7924,2.8152,2.8179,2.8179,2.8179,2.8179,2.8179,2.8179,2.8179,2.8179,2.8179,2.8179,2.8179,2.8179,2.8179,2.8179,2.8179,2.8179,2.8179,2.8179,2.8179,2.8179,2.8179,2.8179,2.8179,2.5024,2.6055,2.7129,2.7624,2.8073,2.8711,2.9922,2.9931,3.0009,3.1211,3.0152,2.98,3.2262,3.1513,2.9373,2.5871,2.5903,2.5842,2.4341,2.4359,2.4546,2.4572,2.4572,2.4572,2.4599,2.4599,2.4599,2.4599,2.4599,2.4599,2.4599,2.4599,2.4599,2.4599,2.4599,2.4599,2.4599,2.4599,2.4599,2.4599,2.4599,2.4796,2.5128,2.5384,2.5678,2.6011,2.6266,2.6386,2.6386,2.6386,2.6386,2.6386,2.6386,2.6386,2.6386,2.6386,2.6386,2.6386,2.6386,2.6386,2.6386,2.6386,2.6386,2.6386,2.6386,2.6386,2.6386,2.6386,2.6386,2.6386,2.6386,2.6386,2.6386,2.6386,2.6386,2.6386,2.6386,2.6386,2.6386,2.6386,2.6386,2.648,2.6747,2.7041,2.7376,2.7629,2.7965,2.8165,2.8179,2.8179,2.8179,2.8179,2.8179,2.8179,2.8179,2.8179,2.8179,2.8179,2.8179,2.8179,2.8179,2.8179,2.8179,2.8179,2.8179,2.8179,2.8179,2.8179,2.8179,2.8179,2.8179,2.8179,2.4965,2.6236,2.7428,2.7285,2.8184,2.9246,2.9735,3.0146,3.0556,3.1035,2.9931,2.8703,2.8,2.7671,2.6769,2.4499,2.4477,2.4654,2.4264,2.4412,2.4599,2.4599,2.4599,2.4599,2.4599,2.4599,2.4599,2.4599,2.4599,2.4599,2.4599,2.4599,2.4599,2.4599,2.4599,2.4599,2.4599,2.4599,2.4599,2.4599,2.4599,2.4653,2.4823,2.5291,2.5571,2.5705,2.6186,2.6386,2.6386,2.6386,2.6386,2.6386,2.6386,2.6386,2.6386,2.6386,2.6386,2.6386,2.6386,2.6386,2.6386,2.6386,2.6386,2.6386,2.6386,2.6386,2.6386,2.6386,2.6386,2.6386,2.6386,2.6386,2.6386,2.6386,2.6386,2.6386,2.6386,2.6386,2.6386,2.6386,2.6386,2.648,2.6734,2.7068,2.7403,2.7655,2.7991,2.8179,2.8179,2.8179,2.8179,2.8179,2.8179,2.8179,2.8179,2.8179,2.8179,2.8179,2.8179,2.8179,2.8179,2.8179,2.8179,2.8179,2.8179,2.8179,2.8179,2.8179,2.8179,2.8179,2.8179,2.8179,2.5195,2.6348,2.7487,2.7422,2.8301,2.9128,2.8858,2.9441,3.0126,3.0392,2.9495,2.7936,2.5528,2.539,2.5344,2.4428,2.4091,2.4008,2.4302,2.4479,2.4599,2.4599,2.4599,2.4599,2.4599,2.4599,2.4599,2.4599,2.4599,2.4599,2.4599,2.4599,2.4599,2.4599,2.4599,2.4599,2.4599,2.4599,2.4599,2.4599,2.4599,2.4599,2.4613,2.5213,2.5518,2.5545,2.6132,2.6386,2.6386,2.6386,2.6386,2.6386,2.6386,2.6386,2.6386,2.6386,2.6386,2.6386,2.6386,2.6386,2.6386,2.6386,2.6386,2.6386,2.6386,2.6386,2.6386,2.6386,2.6386,2.6386,2.6386,2.6386,2.6386,2.6386,2.6386,2.6386,2.6386,2.6386,2.6386,2.6386,2.6466,2.6613,2.6907,2.7215,2.7495,2.7789,2.8058,2.8179,2.8179,2.8179,2.8179,2.8179,2.8179,2.8179,2.8179,2.8179,2.8179,2.8179,2.8179,2.8179,2.8179,2.8179,2.8179,2.8179,2.8179,2.8179,2.8179,2.8179,2.8179,2.8179,2.8179,2.8179,2.5698,2.6342,2.7226,2.8066,2.8301,2.8083,2.73,2.7674,2.8463,2.9313,2.8779,2.7635,2.5804,2.5752,2.6046,2.6339,2.5149,2.4302,2.4559,2.4599,2.4599,2.4599,2.4599,2.4599,2.4599,2.4599,2.4599,2.4599,2.4599,2.4599,2.4599,2.4599,2.4599,2.4599,2.4599,2.4599,2.4599,2.4599,2.4599,2.4599,2.4599,2.4599,2.4613,2.5199,2.5504,2.5545,2.6132,2.6386,2.6386,2.6386,2.6386,2.6386,2.6386,2.6386,2.6386,2.6386,2.6386,2.6386,2.6386,2.6386,2.6386,2.6386,2.6386,2.6386,2.6386,2.6386,2.6386,2.6386,2.6386,2.6386,2.6386,2.6386,2.6386,2.6386,2.6386,2.6386,2.6386,2.6386,2.6386,2.6386,2.6627,2.6921,2.7255,2.7509,2.7802,2.8138,2.8179,2.8179,2.8179,2.8179,2.8179,2.8179,2.8179,2.8179,2.8179,2.8179,2.8179,2.8179,2.8179,2.8179,2.8179,2.8179,2.8179,2.8179,2.8179,2.8179,2.8179,2.8179,2.8179,2.8179,2.8179,2.8179,2.4781,2.6328,2.7832,2.748,2.7866,2.8215,2.7582,2.9039,3.0065,2.8435,2.7894,2.6885,2.4187,2.3915,2.4198,2.4502,2.4354,2.4302,2.4559,2.4599,2.4599,2.4599,2.4599,2.4599,2.4599,2.4599,2.4599,2.4599,2.4599,2.4599,2.4599,2.4599,2.4599,2.4599,2.4599,2.4599,2.4599,2.4599,2.4599,2.4599,2.4599,2.4599,2.4613,2.5037,2.5317,2.5531,2.5957,2.6238,2.6386,2.6386,2.6386,2.6386,2.6386,2.6386,2.6386,2.6386,2.6386,2.6386,2.6386,2.6386,2.6386,2.6386,2.6386,2.6386,2.6386,2.6386,2.6386,2.6386,2.6386,2.6386,2.6386,2.6386,2.6386,2.6386,2.6386,2.6386,2.6386,2.6386,2.6453,2.6653,2.676,2.6987,2.7482,2.7642,2.7802,2.8138,2.8179,2.8179,2.8179,2.8179,2.8179,2.8179,2.8179,2.8179,2.8179,2.8179,2.8179,2.8179,2.8179,2.8179,2.8179,2.8179,2.8179,2.8179,2.8179,2.8179,2.8179,2.8179,2.8179,2.8179,2.8179,2.8179,2.5952,2.6743,2.7368,2.7511,2.7241,2.6997,2.7336,2.8167,2.8466,2.7003,2.6145,2.5123,2.3392,2.33,2.3594,2.3901,2.4182,2.4436,2.4572,2.4599,2.4599,2.4599,2.4599,2.4599,2.4599,2.4599,2.4599,2.4599,2.4599,2.4599,2.4599,2.4599,2.4599,2.4599,2.4599,2.4599,2.4599,2.4599,2.4599,2.4599,2.4599,2.4599,2.4613,2.4943,2.5237,2.5531,2.5984,2.6265,2.6386,2.6386,2.6386,2.6386,2.6386,2.6386,2.6386,2.6386,2.6386,2.6386,2.6386,2.6386,2.6386,2.6386,2.6386,2.6386,2.6386,2.6386,2.6386,2.6386,2.6386,2.6386,2.6386,2.6386,2.6386,2.6386,2.6386,2.6386,2.6386,2.648,2.6613,2.6787,2.6974,2.7281,2.7642,2.7802,2.7978,2.8165,2.8179,2.8179,2.8179,2.8179,2.8179,2.8179,2.8179,2.8179,2.8179,2.8179,2.8179,2.8179,2.8179,2.8179,2.8179,2.8179,2.8179,2.8179,2.8179,2.8179,2.8179,2.8179,2.8179,2.8179,2.8179,2.8179,2.7958,2.7358,2.6524,2.7764,2.635,2.5068,2.6575,2.5775,2.4875,2.539,2.4249,2.3159,2.3273,2.3567,2.3897,2.4155,2.4412,2.4599,2.4599,2.4599,2.4599,2.4599,2.4599,2.4599,2.4599,2.4599,2.4599,2.4599,2.4599,2.4599,2.4599,2.4599,2.4599,2.4599,2.4599,2.4599,2.4599,2.4599,2.4599,2.4599,2.4599,2.4599,2.4613,2.4917,2.5211,2.5545,2.6132,2.6386,2.6386,2.6386,2.6386,2.6386,2.6386,2.6386,2.6386,2.6386,2.6386,2.6386,2.6386,2.6386,2.6386,2.6386,2.6386,2.6386,2.6386,2.6386,2.6386,2.6386,2.6386,2.6386,2.6386,2.6386,2.64,2.6426,2.6413,2.64,2.6426,2.664,2.6841,2.6854,2.7335,2.7709,2.7736,2.8005,2.8179,2.8179,2.8179,2.8179,2.8179,2.8179,2.8179,2.8179,2.8179,2.8179,2.8179,2.8179,2.8179,2.8179,2.8179,2.8179,2.8179,2.8179,2.8179,2.8179,2.8179,2.8179,2.8179,2.8179,2.8179,2.8179,2.8179,2.8179,2.5117,2.6854,2.8277,2.6052,2.4974,2.4661,2.5386,2.439,2.3752,2.52,2.5214,2.4587,2.3504,2.3567,2.3897,2.4155,2.4412,2.4599,2.4599,2.4599,2.4599,2.4599,2.4599,2.4599,2.4599,2.4599,2.4599,2.4599,2.4599,2.4599,2.4599,2.4599,2.4599,2.4599,2.4599,2.4599,2.4599,2.4599,2.4599,2.4599,2.4599,2.4599,2.4599,2.4666,2.5024,2.5545,2.6132,2.6386,2.6386,2.6386,2.6386,2.6386,2.6386,2.6386,2.6386,2.6386,2.6386,2.6386,2.6386,2.6386,2.6386,2.6386,2.6386,2.6386,2.6386,2.6386,2.6386,2.6386,2.6386,2.6386,2.6386,2.6386,2.6453,2.668,2.656,2.6453,2.668,2.6774,2.6961,2.7415,2.7615,2.7776,2.8045,2.8138,2.8179,2.8179,2.8179,2.8179,2.8179,2.8179,2.8179,2.8179,2.8179,2.8179,2.8179,2.8179,2.8179,2.8179,2.8179,2.8179,2.8179,2.8179,2.8179,2.8179,2.8179,2.8179,2.8179,2.8179,2.8179,2.8179,2.8179,2.8179,2.5366,2.6035,2.6084,2.3793,2.3855,2.4361,2.3908,2.3969,2.4162,2.4249,2.4343,2.426,2.365,2.3781,2.4075,2.4369,2.4506,2.4599,2.4599,2.4599,2.4599,2.4599,2.4599,2.4599,2.4599,2.4599,2.4599,2.4599,2.4599,2.4599,2.4599,2.4599,2.4599,2.4599,2.4599,2.4599,2.4599,2.4599,2.4599,2.4599,2.4599,2.4599,2.4599,2.4783,2.509,2.5545,2.5985,2.6305,2.6386,2.6386,2.6386,2.6386,2.6386,2.6386,2.6386,2.6386,2.6386,2.6386,2.6386,2.6386,2.6386,2.6386,2.6386,2.6386,2.6386,2.6386,2.6386,2.6386,2.6386,2.6386,2.6386,2.6493,2.664,2.6787,2.6707,2.668,2.6974,2.7148,2.7335,2.7642,2.7816,2.8005,2.8165,2.8179,2.8179,2.8179,2.8179,2.8179,2.8179,2.8179,2.8179,2.8179,2.8179,2.8179,2.8179,2.8179,2.8179,2.8179,2.8179,2.8179,2.8179,2.8179,2.8179,2.8179,2.8179,2.8179,2.8179,2.8179,2.8179,2.8179,2.8179,2.8179,2.63,2.4992,2.3039,2.2258,2.3142,2.3869,2.274,2.3809,2.4655,2.3201,2.3113,2.3385,2.375,2.4008,2.4302,2.4559,2.4599,2.4599,2.4599,2.4599,2.4599,2.4599,2.4599,2.4599,2.4599,2.4599,2.4599,2.4599,2.4599,2.4599,2.4599,2.4599,2.4599,2.4599,2.4599,2.4599,2.4599,2.4599,2.4599,2.4599,2.4599,2.4599,2.4613,2.489,2.5184,2.5531,2.5864,2.6158,2.6386,2.6386,2.6386,2.6386,2.6386,2.6386,2.6386,2.6386,2.6386,2.6386,2.6386,2.6386,2.6386,2.6386,2.6386,2.6386,2.6386,2.6386,2.6386,2.6386,2.6426,2.6466,2.6466,2.668,2.6907,2.692,2.6974,2.7041,2.7322,2.7522,2.7709,2.7762,2.8018,2.8179,2.8179,2.8179,2.8179,2.8179,2.8179,2.8179,2.8179,2.8179,2.8179,2.8179,2.8179,2.8179,2.8179,2.8179,2.8179,2.8179,2.8179,2.8179,2.8179,2.8179,2.8179,2.8179,2.8179,2.8179,2.8179,2.8179,2.8179,2.8179,2.8179,2.8179,2.5047,2.3704,2.2707,2.376,2.3168,2.2422,2.274,2.3038,2.3201,2.2962,2.3113,2.3385,2.375,2.4008,2.4302,2.4559,2.4599,2.4599,2.4599,2.4599,2.4599,2.4599,2.4599,2.4599,2.4599,2.4599,2.4599,2.4599,2.4599,2.4599,2.4599,2.4599,2.4599,2.4599,2.4599,2.4599,2.4599,2.4599,2.4599,2.4599,2.4599,2.4599,2.4599,2.4639,2.4959,2.5531,2.5864,2.6158,2.6386,2.6386,2.6386,2.6386,2.6386,2.6386,2.6386,2.6386,2.6386,2.6386,2.6386,2.6386,2.6386,2.6386,2.6386,2.6386,2.6386,2.6386,2.6386,2.6386,2.6573,2.676,2.676,2.6987,2.7268,2.7522,2.7575,2.7589,2.7629,2.7669,2.7776,2.8072,2.8165,2.8179,2.8179,2.8179,2.8179,2.8179,2.8179,2.8179,2.8179,2.8179,2.8179,2.8179,2.8179,2.8179,2.8179,2.8179,2.8179,2.8179,2.8179,2.8179,2.8179,2.8179,2.8179,2.8179,2.8179,2.8179,2.8179,2.8179,2.8179,2.8179,2.8179,2.8179,2.42,2.3241,2.2621,2.296,2.266,2.2338,2.28,2.2893,2.2893,2.2893,2.3281,2.3621,2.3777,2.4142,2.4452,2.4572,2.4599,2.4599,2.4599,2.4599,2.4599,2.4599,2.4599,2.4599,2.4599,2.4599,2.4599,2.4599,2.4599,2.4599,2.4599,2.4599,2.4599,2.4599,2.4599,2.4599,2.4599,2.4599,2.4599,2.4599,2.4599,2.4599,2.4599,2.4599,2.4919,2.5518,2.5651,2.5972,2.6386,2.6386,2.6386,2.6386,2.6386,2.6386,2.6386,2.6386,2.6386,2.6386,2.6386,2.6386,2.6386,2.6386,2.6386,2.6386,2.6386,2.6386,2.6426,2.6587,2.672,2.6854,2.7028,2.7295,2.7535,2.7669,2.7829,2.7991,2.7991,2.7991,2.8031,2.8165,2.8179,2.8179,2.8179,2.8179,2.8179,2.8179,2.8179,2.8179,2.8179,2.8179,2.8179,2.8179,2.8179,2.8179,2.8179,2.8179,2.8179,2.8179,2.8179,2.8179,2.8179,2.8179,2.8179,2.8179,2.8179,2.8179,2.8179,2.8179,2.8179,2.8179,2.8179,2.8179,2.411,2.3314,2.2735,2.2512,2.2328,2.2311,2.28,2.2893,2.2893,2.2893,2.3375,2.3803,2.3803,2.4249,2.4599,2.4599,2.4599,2.4599,2.4599,2.4599,2.4599,2.4599,2.4599,2.4599,2.4599,2.4599,2.4599,2.4599,2.4599,2.4599,2.4599,2.4599,2.4599,2.4599,2.4599,2.4599,2.4599,2.4599,2.4599,2.4599,2.4599,2.4599,2.4599,2.4599,2.4919,2.5518,2.5518,2.5838,2.6386,2.6386,2.6386,2.6386,2.6386,2.6386,2.6386,2.6386,2.6386,2.6386,2.6386,2.6386,2.6386,2.6386,2.6386,2.6386,2.6386,2.6386,2.6453,2.6734,2.6881,2.7001,2.7295,2.7589,2.7816,2.7816,2.8018,2.8179,2.8179,2.8179,2.8179,2.8179,2.8179,2.8179,2.8179,2.8179,2.8179,2.8179,2.8179,2.8179,2.8179,2.8179,2.8179,2.8179,2.8179,2.8179,2.8179,2.8179,2.8179,2.8179,2.8179,2.8179,2.8179,2.8179,2.8179,2.8179,2.8179,2.8179,2.8179,2.8179,2.8179,2.8179,2.8179,2.8179,2.5214,2.4068,2.3106,2.3604,2.2658,2.185,2.2706,2.2893,2.2893,2.2893,2.3375,2.3803,2.3803,2.4249,2.4599,2.4599,2.4599,2.4599,2.4599,2.4599,2.4599,2.4599,2.4599,2.4599,2.4599,2.4599,2.4599,2.4599,2.4599,2.4599,2.4599,2.4599,2.4599,2.4599,2.4599,2.4599,2.4599,2.4599,2.4599,2.4599,2.4599,2.4599,2.4599,2.4599,2.4919,2.5518,2.5518,2.5838,2.6386,2.6386,2.6386,2.6386,2.6386,2.6386,2.6386,2.6386,2.6386,2.6386,2.6386,2.6386,2.6386,2.6386,2.6386,2.6386,2.6386,2.6386,2.6453,2.6734,2.7028,2.7349,2.7602,2.7938,2.8165,2.8165,2.8179,2.8179,2.8179,2.8179,2.8179,2.8179,2.8179,2.8179,2.8179,2.8179,2.8179,2.8179,2.8179,2.8179,2.8179,2.8179,2.8179,2.8179,2.8179,2.8179,2.8179,2.8179,2.8179,2.8179,2.8179,2.8179,2.8179,2.8179,2.8179,2.8179,2.8179,2.8179,2.8179,2.8179,2.8179,2.8179,2.8179,2.8179,2.3907,2.2908,2.1935,2.1826,2.1819,2.1943,2.2265,2.2626,2.2893,2.2893,2.3375,2.3803,2.3803,2.4249,2.4599,2.4599,2.4599,2.4599,2.4599,2.4599,2.4599,2.4599,2.4599,2.4599,2.4599,2.4599,2.4599,2.4599,2.4599,2.4599,2.4599,2.4599,2.4599,2.4599,2.4599,2.4599,2.4599,2.4599,2.4599,2.4599,2.4599,2.4599,2.4599,2.4599,2.4919,2.5518,2.5518,2.5838,2.6386,2.6386,2.6386,2.6386,2.6386,2.6386,2.6386,2.6386,2.6386,2.6386,2.6386,2.6386,2.6386,2.6386,2.6386,2.6386,2.6386,2.652,2.6734,2.7028,2.7321,2.7615,2.7951,2.8098,2.8179,2.8179,2.8179,2.8179,2.8179,2.8179,2.8179,2.8179,2.8179,2.8179,2.8179,2.8179,2.8179,2.8179,2.8179,2.8179,2.8179,2.8179,2.8179,2.8179,2.8179,2.8179,2.8179,2.8179,2.8179,2.8179,2.8179,2.8179,2.8179,2.8179,2.8179,2.8179,2.8179,2.8179,2.8179,2.8179,2.8179,2.8179,2.8179,2.8179,2.362,2.2375,2.1128,2.1252,2.1339,2.1496,2.1897,2.2318,2.2653,2.2853,2.3375,2.3803,2.3803,2.4249,2.4599,2.4599,2.4599,2.4599,2.4599,2.4599,2.4599,2.4599,2.4599,2.4599,2.4599,2.4599,2.4599,2.4599,2.4599,2.4599,2.4599,2.4599,2.4599,2.4599,2.4599,2.4599,2.4599,2.4599,2.4599,2.4599,2.4599,2.4599,2.4599,2.4599,2.4919,2.5518,2.5518,2.5838,2.6386,2.6386,2.6386,2.6386,2.6386,2.6386,2.6386,2.6386,2.6386,2.6386,2.6386,2.6386,2.6386,2.6386,2.6386,2.6386,2.6386,2.6587,2.6881,2.7229,2.7468,2.7762,2.8112,2.8179,2.8179,2.8179,2.8179,2.8179,2.8179,2.8179,2.8179,2.8179,2.8179,2.8179,2.8179,2.8179,2.8179,2.8179,2.8179,2.8179,2.8179,2.8179,2.8179,2.8179,2.8179,2.8179,2.8179,2.8179,2.8179,2.8179,2.8179,2.8179,2.8179,2.8179,2.8179,2.8179,2.8179,2.8179,2.8179,2.8179,2.8179,2.8179,2.8179,2.8299,0.0,0.0,0.0,2.2126,2.1346,2.0504,2.167,2.1964,2.2184,2.276,2.3375,2.3803,2.3803,2.4249,2.4599,2.4599,2.4599,2.4599,2.4599,2.4599,2.4599,2.4599,2.4599,2.4599,2.4599,2.4599,2.4599,2.4599,2.4599,2.4599,2.4599,2.4599,2.4599,2.4599,2.4599,2.4599,2.4599,2.4599,2.4599,2.4599,2.4599,2.4599,2.4599,2.4599,2.4919,2.5504,2.5504,2.5838,2.6373,2.6386,2.6386,2.6386,2.6386,2.6386,2.6386,2.6386,2.6386,2.6386,2.6386,2.6386,2.6386,2.6386,2.6386,2.6386,2.6386,2.6587,2.6881,2.7229,2.7468,2.7762,2.8112,2.8179,2.8179,2.8179,2.8179,2.8179,2.8179,2.8179,2.8179,2.8179,2.8179,2.8179,2.8179,2.8179,2.8179,2.8179,2.8179,2.8179,2.8179,2.8179,2.8179,2.8179,2.8179,2.8179,2.8179,2.8179,2.8179,2.8179,2.8179,2.8179,2.8179,2.8179,2.8179,2.8179,2.8179,2.8179,2.8179,2.8179,2.8179,2.8179,2.8179,2.8513,2.3144,0.0,0.0,0.0,0.0,0.0,2.061,2.1376,2.2064,2.2191,2.3081,2.3803,2.3803,2.4249,2.4599,2.4599,2.4599,2.4599,2.4599,2.4599,2.4599,2.4599,2.4599,2.4599,2.4599,2.4599,2.4599,2.4599,2.4599,2.4599,2.4599,2.4599,2.4599,2.4599,2.4599,2.4599,2.4599,2.4599,2.4599,2.4599,2.4599,2.4599,2.4599,2.4599,2.4799,2.5211,2.5424,2.5732,2.6131,2.6306,2.6386,2.6386,2.6386,2.6386,2.6386,2.6386,2.6386,2.6386,2.6386,2.6386,2.6386,2.6386,2.6386,2.6386,2.6386,2.6587,2.6881,2.7229,2.7468,2.7762,2.8112,2.8179,2.8179,2.8179,2.8179,2.8179,2.8179,2.8179,2.8179,2.8179,2.8179,2.8179,2.8179,2.8179,2.8179,2.8179,2.8179,2.8179,2.8179,2.8179,2.8179,2.8179,2.8179,2.8179,2.8179,2.8179,2.8179,2.8179,2.8179,2.8179,2.8179,2.8179,2.8179,2.8179,2.8179,2.8179,2.8179,2.8179,2.8179,2.8179,2.8179,2.8513,0.0,0.0,1.9157,2.0203,0.0,0.0,2.0464,2.1122,2.1764,2.2278,2.3148,2.3803,2.3803,2.4249,2.4599,2.4599,2.4599,2.4599,2.4599,2.4599,2.4599,2.4599,2.4599,2.4599,2.4599,2.4599,2.4599,2.4599,2.4599,2.4599,2.4599,2.4599,2.4599,2.4599,2.4599,2.4599,2.4599,2.4599,2.4599,2.4599,2.4599,2.4599,2.4599,2.4599,2.4796,2.509,2.5384,2.5678,2.6011,2.6266,2.6386,2.6386,2.6386,2.6386,2.6386,2.6386,2.6386,2.6386,2.6386,2.6386,2.6386,2.6386,2.6386,2.6386,2.6386,2.6587,2.6881,2.7229,2.7603,2.7965,2.8138,2.8179,2.8179,2.8179,2.8179,2.8179,2.8179,2.8179,2.8179,2.8179,2.8179,2.8179,2.8179,2.8179,2.8179,2.8179,2.8179,2.8179,2.8179,2.8179,2.8179,2.8179,2.8179,2.8179,2.8179,2.8179,2.8179,2.8179,2.8179,2.8179,2.8179,2.8179,2.8179,2.8179,2.8179,2.8179,2.8179,2.8179,2.8179,2.8179,2.8179,2.8513,0.0,0.0,0.0,1.9103,1.9262,0.0,2.0668,2.0962,2.1309,2.2385,2.3121,2.3562,2.3562,2.3968,2.4306,2.4306,2.4386,2.4492,2.4586,2.4599,2.4599,2.4599,2.4599,2.4599,2.4599,2.4599,2.4599,2.4599,2.4599,2.4599,2.4599,2.4599,2.4599,2.4599,2.4599,2.4599,2.4599,2.4599,2.4599,2.4599,2.4599,2.4599,2.4599,2.4599,2.4746,2.505,2.5371,2.5665,2.5971,2.6253,2.6386,2.6386,2.6386,2.6386,2.6386,2.6386,2.6386,2.6386,2.6386,2.6386,2.6386,2.6386,2.6386,2.6386,2.6386,2.6573,2.6841,2.7215,2.7737,2.8179,2.8179,2.8179,2.8179,2.8179,2.8179,2.8179,2.8179,2.8179,2.8179,2.8179,2.8179,2.8179,2.8179,2.8179,2.8179,2.8179,2.8179,2.8179,2.8179,2.8179,2.8179,2.8179,2.8179,2.8179,2.8179,2.8179,2.8179,2.8179,2.8179,2.8179,2.8179,2.8179,2.8179,2.8179,2.8179,2.8179,2.8179,2.8179,2.8179,2.8179,2.8179,2.8513,2.2613,2.074,1.8931,2.0381,1.9864,0.0,1.9629,2.0067,2.0437,2.0664,2.1403,2.2024,2.2024,2.2305,2.2498,2.2498,2.3113,2.3799,2.4506,2.4599,2.4599,2.4599,2.4599,2.4599,2.4599,2.4599,2.4599,2.4599,2.4599,2.4599,2.4599,2.4599,2.4599,2.4599,2.4599,2.4599,2.4599,2.4599,2.4599,2.4599,2.4599,2.4599,2.4599,2.4599,2.4639,2.4719,2.5277,2.5545,2.5638,2.6172,2.6386,2.6386,2.6386,2.6386,2.6386,2.6386,2.6386,2.6386,2.6386,2.6386,2.6386,2.6386,2.6386,2.6386,2.6386,2.6426,2.6587,2.7162,2.7737,2.8179,2.8179,2.8179,2.8179,2.8179,2.8179,2.8179,2.8179,2.8179,2.8179,2.8179,2.8179,2.8179,2.8179,2.8179,2.8179,2.8179,2.8179,2.8179,2.8179,2.8179,2.8179,2.8179,2.8179,2.8179,2.8179,2.8179,2.8179,2.8179,2.8179,2.8179,2.8179,2.8179,2.8179,2.8179,2.8179,2.8179,2.8179,2.8179,2.8179,2.8179,2.8179,2.8513,2.2813,2.1221,1.9567,1.9805,1.936,0.0,0.0,2.0027,2.029,2.0584,2.1167,2.1582,2.1582,2.1823,2.1991,2.1991,2.2739,2.3292,2.3313,2.4039,2.4599,2.4599,2.4599,2.4599,2.4599,2.4599,2.4599,2.4599,2.4599,2.4599,2.4599,2.4599,2.4599,2.4599,2.4599,2.4599,2.4599,2.4599,2.4599,2.4599,2.4599,2.4599,2.4599,2.4599,2.4599,2.4626,2.5104,2.5384,2.5545,2.6024,2.6305,2.6386,2.6386,2.6386,2.6386,2.6386,2.6386,2.6386,2.6386,2.6386,2.6386,2.6386,2.6386,2.6386,2.6386,2.6493,2.6694,2.7188,2.7617,2.7991,2.8152,2.8179,2.8179,2.8179,2.8179,2.8179,2.8179,2.8179,2.8179,2.8179,2.8179,2.8179,2.8179,2.8179,2.8179,2.8179,2.8179,2.8179,2.8179,2.8179,2.8179,2.8179,2.8179,2.8179,2.8179,2.8179,2.8179,2.8179,2.8179,2.8179,2.8179,2.8179,2.8179,2.8179,2.8179,2.8179,2.8179,2.8179,2.8179,2.8179,2.8179,2.8433,2.2468,2.1236,1.9767,1.874,1.8704,1.909,0.0,0.0,0.0,2.0681,2.0993,2.1199,2.1199,2.1355,2.1515,2.1515,2.2231,2.2565,2.183,2.3113,2.4092,2.4092,2.4399,2.4532,2.4359,2.4399,2.4479,2.4586,2.4492,2.4479,2.4586,2.4599,2.4599,2.4599,2.4599,2.4599,2.4599,2.4599,2.4599,2.4599,2.4599,2.4599,2.4599,2.4599,2.4599,2.4613,2.4957,2.5251,2.5531,2.5877,2.6172,2.6386,2.6386,2.6386,2.6386,2.6386,2.6386,2.6386,2.6386,2.6386,2.6386,2.6386,2.6386,2.6386,2.6386,2.6587,2.6881,2.7229,2.7468,2.7762,2.8112,2.8179,2.8179,2.8179,2.8179,2.8179,2.8179,2.8179,2.8179,2.8179,2.8179,2.8179,2.8179,2.8179,2.8179,2.8179,2.8179,2.8179,2.8179,2.8179,2.8179,2.8179,2.8179,2.8179,2.8179,2.8179,2.8179,2.8179,2.8179,2.8179,2.8179,2.8179,2.8179,2.8179,2.8179,2.8179,2.8179,2.8179,2.8179,2.8179,2.8179,2.8353,2.0599,1.9449,1.832,1.8451,1.8704,1.8996,1.9415,0.0,1.9508,1.9575,0.0,1.9642,1.9642,0.0,0.0,1.9696,2.0431,2.0967,2.0873,2.167,2.2285,2.2285,2.3674,2.4292,2.3519,2.3714,2.4075,2.4559,2.4155,2.4102,2.4572,2.4599,2.4599,2.4599,2.4599,2.4599,2.4599,2.4599,2.4599,2.4599,2.4599,2.4599,2.4599,2.4599,2.4599,2.4613,2.4957,2.5251,2.5531,2.5877,2.6172,2.6386,2.6386,2.6386,2.6386,2.6386,2.6386,2.6386,2.6386,2.6386,2.6386,2.6386,2.6386,2.6386,2.6386,2.6587,2.6881,2.7229,2.7468,2.7762,2.8112,2.8179,2.8179,2.8179,2.8179,2.8179,2.8179,2.8179,2.8179,2.8179,2.8179,2.8179,2.8179,2.8179,2.8179,2.8179,2.8179,2.8179,2.8179,2.8179,2.8179,2.8179,2.8179,2.8179,2.8179,2.8179,2.8179,2.8179,2.8179,2.8179,2.8179,2.8179,2.8179,2.8179,2.8179,2.8179,2.8179,2.8179,2.8179,2.8179,2.8179,2.8353,2.0562,2.012,1.9513,1.89,1.9092,1.9372,1.9158,1.9105,1.9105,1.9105,0.0,0.0,0.0,0.0,0.0,0.0,1.996,2.0307,1.999,2.1141,2.1991,2.1991,2.2645,2.3153,2.3278,2.3865,2.4369,2.4586,2.4372,2.4346,2.4586,2.4599,2.4599,2.4599,2.4599,2.4599,2.4599,2.4599,2.4599,2.4599,2.4599,2.4599,2.4599,2.4599,2.4599,2.4613,2.4733,2.509,2.5518,2.5651,2.5972,2.6386,2.6386,2.6386,2.6386,2.6386,2.6386,2.6386,2.6386,2.6386,2.6386,2.6386,2.6386,2.6386,2.6386,2.648,2.6667,2.7175,2.7389,2.7603,2.8058,2.8179,2.8179,2.8179,2.8179,2.8179,2.8179,2.8179,2.8179,2.8179,2.8179,2.8179,2.8179,2.8179,2.8179,2.8179,2.8179,2.8179,2.8179,2.8179,2.8179,2.8179,2.8179,2.8179,2.8179,2.8179,2.8179,2.8179,2.8179,2.8179,2.8179,2.8179,2.8179,2.8179,2.8179,2.8179,2.8179,2.8179,2.8179,2.8179,2.8179,2.8259,2.0493,2.0453,2.0316,1.9077,1.9156,1.9426,1.8918,1.8836,1.889,1.889,1.889,0.0,0.0,0.0,1.8998,1.9212,0.0,1.984,1.9455,2.0498,2.1301,2.1301,2.155,2.2098,2.2958,2.3692,2.4186,2.4382,2.4396,2.4426,2.4586,2.4599,2.4599,2.4599,2.4599,2.4599,2.4599,2.4599,2.4599,2.4599,2.4599,2.4599,2.4599,2.4599,2.4599,2.4599,2.4599,2.4933,2.5518,2.5518,2.5865,2.6386,2.6386,2.6386,2.6386,2.6386,2.6386,2.6386,2.6386,2.6386,2.6386,2.6386,2.6386,2.6386,2.6386,2.6386,2.652,2.7148,2.7309,2.7443,2.8031,2.8179,2.8179,2.8179,2.8179,2.8179,2.8179,2.8179,2.8179,2.8179,2.8179,2.8179,2.8179,2.8179,2.8179,2.8179,2.8179,2.8179,2.8179,2.8179,2.8179,2.8179,2.8179,2.8179,2.8179,2.8179,2.8179,2.8179,2.8179,2.8179,2.8179,2.8179,2.8179,2.8179,2.8179,2.8179,2.8179,2.8179,2.8179,2.8179,2.8179,2.8179,1.9838,1.9634,1.9631,1.8718,1.8731,1.8878,1.8571,1.8718,1.889,1.889,1.889,1.8903,1.8903,1.8903,1.8903,0.0,1.9199,0.0,0.0,1.9441,1.9481,1.9481,2.0454,2.1483,2.2331,2.276,2.3201,2.379,2.383,2.4048,2.4572,2.4599,2.4599,2.4599,2.4599,2.4599,2.4599,2.4599,2.4599,2.4599,2.4599,2.4599,2.4599,2.4599,2.4599,2.4599,2.4599,2.4933,2.5518,2.5518,2.5865,2.6386,2.6386,2.6386,2.6386,2.6386,2.6386,2.6386,2.6386,2.6386,2.6386,2.6386,2.6386,2.6386,2.6386,2.6386,2.652,2.7148,2.7309,2.7443,2.8031,2.8179,2.8179,2.8179,2.8179,2.8179,2.8179,2.8179,2.8179,2.8179,2.8179,2.8179,2.8179,2.8179,2.8179,2.8179,2.8179,2.8179,2.8179,2.8179,2.8179,2.8179,2.8179,2.8179,2.8179,2.8179,2.8179,2.8179,2.8179,2.8179,2.8179,2.8179,2.8179,2.8179,2.8179,2.8179,2.8179,2.8179,2.8179,2.8179,2.8179,2.8179,2.0351,2.0619,2.0779,1.9867,1.9983,2.0094,1.9025,1.8823,1.889,1.889,1.8771,1.8758,1.9145,1.8891,1.8758,0.0,0.0,1.9145,0.0,1.9401,1.9401,1.9401,2.0401,2.1229,2.1523,2.2746,2.3589,2.379,2.4128,2.4399,2.4586,2.4599,2.4599,2.4599,2.4599,2.4599,2.4599,2.4599,2.4599,2.4599,2.4599,2.4599,2.4599,2.4599,2.4599,2.4599,2.4599,2.4933,2.5518,2.5518,2.5865,2.6386,2.6386,2.6386,2.6386,2.6386,2.6386,2.6386,2.6386,2.6386,2.6386,2.6386,2.6386,2.6386,2.6386,2.6386,2.652,2.7148,2.7309,2.7443,2.8031,2.8179,2.8179,2.8179,2.8179,2.8179,2.8179,2.8179,2.8179,2.8179,2.8179,2.8179,2.8179,2.8179,2.8179,2.8179,2.8179,2.8179,2.8179,2.8179,2.8179,2.8179,2.8179,2.8179,2.8179,2.8179,2.8179,2.8179,2.8179,2.8179,2.8179,2.8179,2.8179,2.8179,2.8179,2.8179,2.8179,2.8179,2.8179,2.8179,2.8179,2.8179,2.1149,2.1448,2.1555,2.0704,2.0797,2.0775,1.9519,1.929,1.9356,1.9356,1.8998,1.8958,1.999,1.9348,1.8878,0.0,0.0,1.9145,0.0,1.9401,1.9441,1.9535,2.0281,2.0851,2.1082,2.2338,2.3348,2.3777,2.4115,2.4386,2.4586,2.4599,2.4599,2.4599,2.4599,2.4599,2.4599,2.4599,2.4599,2.4599,2.4599,2.4599,2.4599,2.4599,2.4599,2.4599,2.4599,2.4933,2.5518,2.5518,2.5865,2.6386,2.6386,2.6386,2.6386,2.6386,2.6386,2.6386,2.6386,2.6386,2.6386,2.6386,2.6386,2.6386,2.6386,2.6386,2.6533,2.7269,2.7389,2.7469,2.8165,2.8272,2.8179,2.8179,2.8179,2.8179,2.8179,2.8179,2.8179,2.8179,2.8179,2.8179,2.8179,2.8179,2.8179,2.8179,2.8179,2.8179,2.8179,2.8179,2.8179,2.8179,2.8179,2.8179,2.8179,2.8179,2.8179,2.8179,2.8179,2.8179,2.8179,2.8179,2.8232,2.8353,2.8245,2.8232,2.8353,2.8232,2.8179,2.8179,2.8179,2.8179]},{"header":{"parameterUnit":"m.s-1","parameterCategory":1,"la1":30.6,"la2":29.2853,"lo1":-89.7004,"lo2":-87.6739,"dy":0.0162,"dx":0.0183,"nx":112,"ny":82,"refTime":"2023-09-17T18:00:00:Z","depth":0,"parameterNumber":3,"parameterNumberName":"V-component_of_WINDS"},"data":[0.0,0.0,0.0,0.0,0.0,0.0,0.0,0.0,0.0,0.0,0.0,0.0,0.0,0.0,0.0,0.0,0.0,0.0,0.0,0.0,0.0,0.0,0.0,0.0,0.0,0.0,0.0,0.0,0.0,0.0,0.0,0.0,0.0,0.0,0.0,0.0,0.0,0.0,0.0,0.0,0.0,0.0,0.0,0.0,0.0,0.0,0.0,0.0,0.0,0.0,0.0,0.0,0.0,0.0,0.0,0.0,0.0,0.0,0.0,0.0,0.0,0.0,0.0,0.0,0.0,0.0,0.0,0.0,0.0,0.0,0.0,0.0,0.0,0.0,0.0,0.0,0.0,0.0,0.0,0.0,0.0,0.0,0.0,0.0,0.0,0.0,0.0,0.0,0.0,0.0,3.7275,3.7913,4.0526,4.2505,4.3229,4.3169,4.1501,3.7814,0.0,0.0,0.0,0.0,0.0,0.0,0.0,0.0,0.0,0.0,0.0,0.0,0.0,0.0,0.0,0.0,0.0,0.0,0.0,0.0,0.0,0.0,0.0,0.0,0.0,0.0,0.0,0.0,0.0,0.0,0.0,0.0,0.0,0.0,0.0,0.0,0.0,0.0,0.0,0.0,0.0,0.0,0.0,0.0,0.0,0.0,0.0,0.0,0.0,0.0,0.0,0.0,0.0,0.0,0.0,0.0,0.0,0.0,0.0,0.0,0.0,0.0,0.0,0.0,0.0,0.0,0.0,0.0,0.0,0.0,0.0,0.0,0.0,0.0,0.0,0.0,0.0,0.0,0.0,0.0,0.0,0.0,0.0,0.0,0.0,0.0,0.0,0.0,0.0,0.0,0.0,0.0,0.0,0.0,0.0,0.0,0.0,0.0,0.0,0.0,0.0,0.0,0.0,0.0,3.8723,4.2976,4.323,4.3154,4.3307,4.2614,4.0238,3.558,0.0,0.0,0.0,0.0,0.0,0.0,0.0,0.0,0.0,0.0,0.0,0.0,0.0,0.0,0.0,0.0,0.0,0.0,0.0,0.0,0.0,0.0,0.0,0.0,0.0,0.0,0.0,0.0,0.0,0.0,0.0,0.0,0.0,0.0,0.0,0.0,0.0,0.0,0.0,0.0,0.0,0.0,0.0,0.0,0.0,0.0,0.0,0.0,0.0,0.0,0.0,0.0,0.0,0.0,0.0,0.0,0.0,0.0,0.0,0.0,0.0,0.0,0.0,0.0,0.0,0.0,0.0,0.0,0.0,0.0,0.0,0.0,0.0,0.0,0.0,0.0,0.0,0.0,0.0,0.0,0.0,0.0,0.0,0.0,0.0,0.0,0.0,0.0,0.0,0.0,0.0,0.0,0.0,0.0,0.0,0.0,0.0,0.0,0.0,0.0,0.0,0.0,0.0,3.8201,4.0688,4.422,4.4255,4.4006,4.4006,4.3651,4.1789,3.791,3.7934,0.0,0.0,0.0,0.0,0.0,0.0,0.0,0.0,0.0,0.0,0.0,0.0,0.0,0.0,0.0,0.0,0.0,0.0,0.0,0.0,0.0,0.0,0.0,0.0,0.0,0.0,0.0,0.0,0.0,0.0,0.0,0.0,0.0,0.0,0.0,0.0,0.0,0.0,0.0,0.0,0.0,0.0,0.0,0.0,0.0,0.0,0.0,0.0,0.0,0.0,0.0,0.0,0.0,0.0,0.0,0.0,0.0,0.0,0.0,0.0,0.0,0.0,0.0,0.0,0.0,0.0,0.0,0.0,0.0,0.0,0.0,0.0,0.0,0.0,0.0,0.0,0.0,0.0,0.0,0.0,0.0,0.0,0.0,0.0,0.0,0.0,0.0,0.0,0.0,0.0,0.0,0.0,0.0,0.0,0.0,0.0,0.0,0.0,0.0,0.0,0.0,0.0,4.0876,4.2672,4.4398,4.4615,4.4615,4.4615,4.4615,4.3172,3.9821,3.9214,0.0,0.0,0.0,0.0,0.0,0.0,0.0,0.0,0.0,0.0,0.0,0.0,0.0,0.0,0.0,0.0,0.0,0.0,0.0,0.0,0.0,0.0,0.0,0.0,0.0,0.0,0.0,0.0,0.0,0.0,0.0,0.0,0.0,0.0,0.0,0.0,0.0,0.0,0.0,0.0,0.0,0.0,0.0,0.0,0.0,0.0,0.0,0.0,0.0,0.0,0.0,0.0,0.0,0.0,0.0,0.0,0.0,0.0,0.0,0.0,0.0,0.0,0.0,0.0,0.0,0.0,0.0,0.0,0.0,0.0,0.0,0.0,0.0,0.0,0.0,0.0,0.0,0.0,0.0,0.0,0.0,0.0,0.0,0.0,0.0,0.0,0.0,0.0,0.0,0.0,0.0,0.0,0.0,0.0,0.0,0.0,0.0,0.0,0.0,0.0,0.0,0.0,4.2587,4.4398,4.4567,4.4615,4.4615,4.4615,4.4615,4.2772,3.8498,3.8711,0.0,0.0,0.0,0.0,0.0,0.0,0.0,0.0,0.0,0.0,0.0,0.0,0.0,0.0,0.0,0.0,0.0,0.0,0.0,0.0,0.0,0.0,0.0,0.0,0.0,0.0,0.0,0.0,0.0,0.0,0.0,0.0,0.0,0.0,0.0,0.0,0.0,0.0,0.0,0.0,0.0,0.0,0.0,0.0,0.0,0.0,0.0,0.0,0.0,0.0,0.0,0.0,0.0,0.0,0.0,0.0,0.0,0.0,0.0,0.0,0.0,0.0,0.0,0.0,0.0,0.0,0.0,0.0,0.0,0.0,0.0,0.0,0.0,0.0,0.0,0.0,0.0,0.0,0.0,0.0,0.0,0.0,0.0,0.0,0.0,0.0,0.0,0.0,0.0,0.0,0.0,0.0,0.0,0.0,0.0,0.0,0.0,0.0,0.0,0.0,0.0,0.0,4.3029,4.477,4.5229,4.5717,4.5954,4.5954,4.5954,4.4483,4.0929,0.0,0.0,0.0,0.0,0.0,0.0,0.0,0.0,0.0,0.0,0.0,0.0,0.0,0.0,0.0,0.0,0.0,0.0,0.0,0.0,0.0,0.0,0.0,0.0,0.0,0.0,0.0,0.0,0.0,0.0,0.0,0.0,0.0,0.0,0.0,0.0,0.0,0.0,0.0,0.0,0.0,0.0,0.0,0.0,0.0,0.0,0.0,0.0,0.0,0.0,0.0,0.0,0.0,0.0,0.0,0.0,0.0,0.0,0.0,0.0,0.0,0.0,0.0,0.0,0.0,0.0,0.0,0.0,0.0,0.0,0.0,0.0,0.0,0.0,0.0,0.0,0.0,0.0,0.0,0.0,0.0,0.0,0.0,0.0,0.0,0.0,0.0,0.0,0.0,0.0,0.0,0.0,0.0,0.0,0.0,0.0,0.0,0.0,0.0,0.0,0.0,0.0,4.2151,4.4059,4.5481,4.6007,4.6481,4.68,4.68,4.68,4.5602,4.2828,0.0,0.0,0.0,0.0,0.0,0.0,0.0,0.0,0.0,0.0,0.0,0.0,0.0,0.0,0.0,0.0,0.0,0.0,0.0,0.0,0.0,0.0,0.0,0.0,0.0,0.0,0.0,0.0,0.0,0.0,0.0,0.0,0.0,0.0,0.0,0.0,0.0,0.0,0.0,0.0,0.0,0.0,0.0,0.0,0.0,0.0,0.0,0.0,0.0,0.0,0.0,0.0,0.0,0.0,0.0,0.0,0.0,0.0,0.0,0.0,0.0,0.0,0.0,0.0,0.0,0.0,0.0,0.0,0.0,0.0,0.0,0.0,0.0,0.0,0.0,0.0,0.0,0.0,0.0,0.0,0.0,0.0,0.0,0.0,0.0,0.0,0.0,0.0,0.0,0.0,0.0,0.0,0.0,0.0,0.0,0.0,0.0,0.0,0.0,0.0,0.0,0.0,4.4398,4.5887,4.6819,4.6819,4.6834,4.6834,4.6834,4.6834,4.5838,0.0,0.0,0.0,0.0,0.0,0.0,0.0,0.0,0.0,0.0,0.0,0.0,0.0,0.0,0.0,0.0,0.0,0.0,0.0,0.0,0.0,0.0,0.0,0.0,0.0,0.0,0.0,0.0,0.0,0.0,0.0,0.0,0.0,0.0,0.0,0.0,0.0,0.0,0.0,0.0,0.0,0.0,0.0,0.0,0.0,0.0,0.0,0.0,0.0,0.0,0.0,0.0,0.0,0.0,0.0,0.0,0.0,0.0,0.0,0.0,0.0,0.0,0.0,0.0,0.0,0.0,0.0,0.0,0.0,0.0,0.0,0.0,0.0,0.0,0.0,0.0,0.0,0.0,0.0,0.0,0.0,0.0,0.0,0.0,0.0,0.0,0.0,0.0,0.0,0.0,0.0,0.0,0.0,0.0,0.0,0.0,0.0,0.0,0.0,0.0,0.0,0.0,0.0,4.4533,4.6346,4.7582,4.7582,4.8037,4.8342,4.8342,4.8342,4.7394,4.5148,0.0,0.0,0.0,0.0,0.0,0.0,0.0,0.0,0.0,0.0,0.0,0.0,0.0,0.0,0.0,0.0,0.0,0.0,0.0,0.0,0.0,0.0,0.0,0.0,0.0,0.0,0.0,0.0,0.0,0.0,0.0,0.0,0.0,0.0,0.0,0.0,0.0,0.0,0.0,0.0,0.0,0.0,0.0,0.0,0.0,0.0,0.0,0.0,0.0,0.0,0.0,0.0,0.0,0.0,0.0,0.0,0.0,0.0,0.0,0.0,0.0,0.0,0.0,0.0,0.0,0.0,0.0,0.0,0.0,0.0,0.0,0.0,0.0,0.0,0.0,0.0,0.0,0.0,0.0,0.0,0.0,0.0,0.0,0.0,0.0,0.0,0.0,0.0,0.0,0.0,0.0,0.0,0.0,0.0,0.0,0.0,0.0,0.0,0.0,0.0,0.0,0.0,4.5838,4.7327,4.8326,4.8326,4.9018,4.9424,4.9424,4.9729,4.9052,4.7158,0.0,0.0,0.0,0.0,0.0,0.0,0.0,0.0,0.0,0.0,0.0,0.0,0.0,0.0,0.0,0.0,0.0,0.0,0.0,0.0,0.0,0.0,0.0,0.0,0.0,0.0,0.0,0.0,0.0,0.0,0.0,0.0,0.0,0.0,0.0,0.0,0.0,0.0,0.0,0.0,0.0,0.0,0.0,0.0,0.0,0.0,0.0,0.0,0.0,0.0,0.0,0.0,0.0,0.0,0.0,0.0,0.0,0.0,0.0,0.0,0.0,0.0,0.0,0.0,0.0,0.0,0.0,0.0,0.0,0.0,0.0,0.0,0.0,0.0,0.0,0.0,0.0,0.0,0.0,0.0,0.0,0.0,0.0,0.0,0.0,0.0,0.0,0.0,0.0,0.0,0.0,0.0,0.0,0.0,0.0,0.0,0.0,0.0,0.0,0.0,0.0,0.0,4.7819,4.8714,4.9221,4.9221,4.9796,5.0218,5.0218,5.0829,5.0592,4.9187,0.0,0.0,0.0,0.0,0.0,0.0,0.0,0.0,0.0,0.0,0.0,0.0,0.0,0.0,0.0,0.0,0.0,0.0,0.0,0.0,0.0,0.0,0.0,0.0,0.0,0.0,0.0,0.0,0.0,0.0,0.0,0.0,0.0,0.0,0.0,0.0,0.0,0.0,0.0,0.0,0.0,0.0,0.0,0.0,0.0,0.0,0.0,0.0,0.0,0.0,0.0,0.0,0.0,0.0,0.0,0.0,0.0,0.0,0.0,0.0,3.3378,3.1424,0.0,0.0,0.0,0.0,0.0,0.0,0.0,0.0,0.0,0.0,0.0,0.0,0.0,0.0,0.0,0.0,0.0,0.0,0.0,0.0,0.0,0.0,0.0,0.0,0.0,0.0,0.0,0.0,0.0,0.0,0.0,0.0,0.0,0.0,0.0,0.0,0.0,0.0,0.0,0.0,4.8698,4.9916,5.0728,5.0728,5.0863,5.0964,5.0964,5.11,5.0829,4.9932,4.9575,0.0,0.0,0.0,0.0,0.0,0.0,0.0,0.0,0.0,0.0,0.0,0.0,0.0,0.0,0.0,0.0,0.0,0.0,0.0,0.0,0.0,0.0,0.0,0.0,0.0,0.0,0.0,0.0,0.0,0.0,0.0,0.0,0.0,0.0,0.0,0.0,0.0,0.0,0.0,0.0,0.0,0.0,0.0,0.0,0.0,0.0,0.0,0.0,0.0,0.0,0.0,0.0,0.0,0.0,0.0,0.0,0.0,0.0,0.0,3.5911,3.4756,0.0,0.0,0.0,0.0,0.0,0.0,0.0,0.0,0.0,0.0,0.0,0.0,0.0,0.0,0.0,0.0,0.0,0.0,0.0,0.0,0.0,0.0,0.0,0.0,0.0,0.0,0.0,0.0,0.0,0.0,0.0,0.0,0.0,0.0,0.0,0.0,0.0,0.0,0.0,0.0,4.995,5.0728,5.1201,5.1201,5.1505,5.1708,5.1708,5.208,5.1995,5.1217,5.0811,0.0,0.0,0.0,0.0,0.0,0.0,0.0,0.0,0.0,0.0,0.0,0.0,0.0,0.0,0.0,0.0,0.0,0.0,0.0,0.0,0.0,0.0,0.0,0.0,0.0,0.0,0.0,0.0,0.0,0.0,0.0,0.0,0.0,0.0,0.0,0.0,0.0,0.0,0.0,0.0,0.0,0.0,0.0,0.0,0.0,0.0,0.0,0.0,0.0,0.0,0.0,0.0,0.0,3.8687,3.8757,3.8757,3.8746,3.9462,4.066,3.8764,3.8786,4.0018,3.7569,0.0,0.0,0.0,0.0,0.0,0.0,0.0,0.0,0.0,0.0,0.0,0.0,0.0,0.0,0.0,0.0,0.0,0.0,0.0,0.0,0.0,0.0,4.3704,4.2527,4.4217,4.5383,4.2842,0.0,0.0,0.0,0.0,0.0,0.0,0.0,0.0,0.0,0.0,0.0,5.1235,5.1505,5.1607,5.1607,5.2164,5.2503,5.2503,5.3112,5.3213,5.257,5.1945,5.1269,0.0,0.0,0.0,0.0,0.0,0.0,0.0,0.0,0.0,0.0,0.0,0.0,0.0,0.0,0.0,0.0,0.0,0.0,0.0,0.0,0.0,0.0,0.0,0.0,0.0,0.0,0.0,0.0,0.0,0.0,0.0,0.0,3.1712,3.1192,0.0,0.0,0.0,0.0,0.0,0.0,0.0,0.0,0.0,0.0,0.0,0.0,0.0,3.8888,3.9572,4.0381,4.0762,4.0809,4.1423,4.1722,4.1728,4.1664,4.2143,4.2954,4.2602,0.0,4.0153,3.9775,0.0,0.0,0.0,0.0,0.0,0.0,0.0,0.0,0.0,0.0,0.0,0.0,0.0,0.0,0.0,0.0,0.0,0.0,0.0,0.0,0.0,0.0,4.6297,4.6123,4.6862,4.7489,4.7087,4.5756,4.4742,4.5183,4.6017,4.6616,0.0,0.0,0.0,0.0,0.0,0.0,5.2131,5.2773,5.3213,5.3213,5.3281,5.3348,5.3348,5.345,5.345,5.3348,5.3247,5.2841,5.2029,5.1928,0.0,0.0,0.0,0.0,0.0,0.0,0.0,0.0,0.0,0.0,0.0,0.0,0.0,0.0,0.0,0.0,0.0,0.0,0.0,0.0,0.0,0.0,0.0,0.0,0.0,0.0,0.0,0.0,0.0,3.0865,3.1961,3.1551,3.2277,3.2625,0.0,0.0,0.0,0.0,0.0,0.0,0.0,0.0,0.0,4.0189,4.0624,4.1173,4.191,4.2703,4.3107,4.3107,4.3872,4.4215,4.4234,4.463,4.4995,4.5302,4.5287,4.4733,4.3791,4.2076,4.0809,3.984,0.0,0.0,0.0,0.0,3.92,4.0025,4.0676,4.1164,4.1553,4.1855,0.0,0.0,0.0,0.0,0.0,0.0,0.0,4.5819,4.5737,4.6549,4.753,4.7936,4.8612,4.9255,4.9679,4.8969,4.8173,4.7665,4.8139,4.8661,4.8661,4.9796,0.0,0.0,0.0,5.2469,5.2909,5.3281,5.3653,5.4059,5.4126,5.4296,5.4684,5.4718,5.4718,5.4718,5.4718,5.4397,5.3619,5.3179,5.23,0.0,0.0,0.0,0.0,0.0,0.0,0.0,0.0,0.0,0.0,0.0,0.0,0.0,0.0,0.0,0.0,0.0,0.0,0.0,0.0,0.0,0.0,0.0,0.0,0.0,0.0,0.0,0.0,3.193,3.3029,3.2345,3.4089,3.4912,0.0,0.0,0.0,0.0,0.0,0.0,3.9833,4.0336,4.1051,4.2052,4.2779,4.3437,4.3984,4.477,4.5142,4.5176,4.5703,4.5974,4.6007,4.6549,4.68,4.68,4.68,4.68,4.6621,4.4392,4.3226,4.2769,4.1621,4.1428,4.173,4.1329,4.2019,4.3199,4.338,4.3791,4.4268,4.4268,4.4654,4.5041,4.4437,0.0,0.0,0.0,0.0,4.7293,4.6921,4.7785,4.8868,4.9409,4.9965,5.0541,5.1066,5.1201,5.0863,4.9781,5.0168,5.0608,5.0405,5.115,0.0,5.2536,5.2773,5.3179,5.3957,5.4059,5.4262,5.4803,5.4871,5.5108,5.5665,5.5699,5.5699,5.5699,5.5699,5.5428,5.4905,5.4363,5.3687,5.2909,0.0,0.0,0.0,0.0,0.0,0.0,0.0,0.0,0.0,0.0,0.0,0.0,0.0,0.0,0.0,0.0,0.0,0.0,0.0,0.0,0.0,0.0,0.0,0.0,0.0,0.0,0.0,0.0,0.0,3.4617,3.7601,0.0,0.0,0.0,0.0,3.885,3.9525,4.0577,4.2067,4.2162,4.286,4.4361,4.5153,4.5558,4.5587,4.6312,4.6699,4.6699,4.6733,4.6718,4.6766,4.68,4.68,4.68,4.68,4.68,4.6786,4.6621,4.5727,4.4491,4.4381,4.3942,4.3368,4.4097,4.4849,4.5621,4.635,4.6602,4.6631,4.6631,4.6665,4.6699,4.6631,4.6684,0.0,0.0,4.8326,4.9052,4.971,5.0439,5.1032,5.1066,5.1133,5.1167,5.1201,5.1201,5.1167,5.11,5.1674,5.1961,5.1269,0.0,5.3416,5.345,5.4025,5.4735,5.5496,5.5597,5.5597,5.5631,5.5631,5.5665,5.5699,5.5699,5.5699,5.5699,5.5699,5.5665,5.5665,5.5597,5.5243,5.4516,5.4448,0.0,0.0,0.0,0.0,0.0,0.0,0.0,0.0,0.0,0.0,0.0,0.0,0.0,0.0,0.0,0.0,0.0,0.0,0.0,0.0,0.0,0.0,0.0,0.0,0.0,0.0,0.0,0.0,3.6947,3.9163,0.0,3.8393,3.9962,4.1118,4.1118,4.2694,4.3904,4.4452,4.4951,4.5437,4.6022,4.6718,4.7109,4.7109,4.7868,4.8206,4.8206,4.868,4.8932,4.8932,4.9424,4.9627,4.9627,4.9627,4.9627,4.9627,4.9627,4.8206,4.6022,4.6022,4.5838,4.5635,4.592,4.6191,4.6447,4.6733,4.68,4.6887,4.7361,4.7834,4.8308,4.8797,4.9255,4.9679,4.995,5.022,5.0491,5.0744,5.0998,5.1336,5.1792,5.1911,5.2198,5.3179,5.3382,5.3518,5.4008,5.3534,5.3145,5.3348,5.4262,5.4921,5.4921,5.5124,5.5395,5.5665,5.5699,5.5868,5.6341,5.6409,5.6596,5.707,5.7103,5.7103,5.7103,5.7103,5.69,5.6427,5.6409,5.6037,5.5327,5.531,5.4702,0.0,0.0,0.0,0.0,0.0,0.0,0.0,0.0,0.0,0.0,0.0,0.0,0.0,0.0,0.0,0.0,0.0,0.0,0.0,0.0,0.0,0.0,0.0,0.0,0.0,3.8307,4.0029,3.8524,4.0701,4.1863,4.0593,4.2276,4.3546,4.3794,4.5221,4.6177,4.6433,4.6921,4.7293,4.753,4.8274,4.8646,4.8646,4.9375,4.9747,4.9763,5.0236,5.0473,5.0473,5.0964,5.1201,5.1201,5.1201,5.1201,5.1201,5.1201,5.0051,4.8274,4.8019,4.7917,4.7917,4.7917,4.8071,4.8274,4.8274,4.8274,4.8376,4.8834,4.9341,4.9814,5.0338,5.0811,5.1201,5.1201,5.137,5.1573,5.1573,5.1945,5.2469,5.2976,5.3281,5.3721,5.4735,5.4972,5.5108,5.5597,5.4921,5.4397,5.4905,5.5378,5.5767,5.6037,5.6071,5.624,5.6747,5.6815,5.7085,5.7848,5.7915,5.8118,5.8592,5.8389,5.8389,5.8626,5.8389,5.8152,5.7915,5.7679,5.7288,5.6815,5.6578,5.5953,5.4972,0.0,0.0,0.0,0.0,0.0,0.0,0.0,0.0,0.0,0.0,0.0,0.0,0.0,0.0,0.0,0.0,0.0,0.0,0.0,0.0,0.0,0.0,0.0,3.8387,4.0001,4.0875,3.9392,4.2413,4.4346,4.358,4.4874,4.6041,4.68,4.6868,4.7192,4.7921,4.7988,4.8326,4.9052,4.9763,5.0184,5.0184,5.0947,5.1302,5.1302,5.1336,5.1336,5.1336,5.1336,5.1336,5.1336,5.1336,5.1336,5.1336,5.1336,5.1336,5.1269,5.0439,5.015,5.015,5.015,5.0574,5.1201,5.1201,5.1201,5.1201,5.1201,5.1235,5.1235,5.1235,5.1235,5.1269,5.1302,5.181,5.2367,5.2401,5.3518,5.4651,5.4651,5.5175,5.5699,5.5733,5.5733,5.5767,5.58,5.58,5.58,5.5733,5.5767,5.6037,5.6765,5.69,0.0,5.8844,5.9013,5.9317,6.0013,6.0114,6.0114,6.0114,5.9471,5.9317,6.0047,5.9438,5.9351,6.008,5.9419,5.9013,5.9013,5.8321,5.7934,5.7934,0.0,0.0,0.0,0.0,0.0,0.0,0.0,0.0,0.0,0.0,0.0,0.0,0.0,0.0,0.0,0.0,0.0,0.0,0.0,0.0,0.0,4.0139,4.1111,4.0485,4.2308,4.3737,4.3839,4.4779,4.553,4.5812,4.6243,4.6786,4.7549,4.8105,4.8714,4.9458,4.9984,5.0389,5.0592,5.1319,5.1691,5.1691,5.301,5.3653,5.3653,5.4211,5.4448,5.4448,5.4448,5.4448,5.4448,5.4448,5.4448,5.4448,5.4448,5.4448,5.4245,5.181,5.0897,5.0897,5.0897,5.1032,5.1201,5.1201,5.1201,5.1201,5.1201,5.1573,5.1995,5.1995,5.2401,5.2976,5.3518,5.3822,5.4093,5.4634,5.509,5.5395,5.5395,5.5564,5.5834,5.6393,5.6494,5.6815,5.7897,5.81,5.7762,5.6697,5.739,5.8168,5.8371,5.8863,5.9336,5.9742,5.981,5.9877,6.008,6.0114,6.0114,6.0114,5.9911,5.9877,6.008,5.9911,5.9877,6.008,5.9911,5.981,5.981,5.9066,5.8693,0.0,0.0,0.0,0.0,0.0,0.0,0.0,0.0,0.0,0.0,0.0,0.0,0.0,0.0,0.0,0.0,0.0,0.0,0.0,0.0,0.0,0.0,4.2427,4.3242,4.3557,4.4442,4.5331,4.6075,4.6447,4.6921,4.7665,4.8003,4.8477,4.924,4.9679,5.0236,5.098,5.142,5.1945,5.2604,5.3044,5.3416,5.3704,5.46,5.5074,5.5074,5.5496,5.5699,5.5699,5.5699,5.5699,5.5699,5.5699,5.5699,5.5699,5.5699,5.5699,5.553,0.0,0.0,0.0,0.0,5.3095,5.3095,5.3095,5.3095,5.3095,5.3095,5.3365,5.3704,5.3704,5.4042,5.4532,5.4938,5.5074,5.5175,5.5597,5.5936,5.6139,5.6139,5.6612,5.7187,5.7645,5.7983,5.8457,5.9302,5.9471,0.0,5.8848,5.9139,5.9471,5.9471,5.9844,6.0216,6.0554,6.0588,6.0723,6.1028,6.1061,6.1061,6.1061,6.0791,0.0,0.0,0.0,6.0588,6.0588,6.0588,0.0,0.0,0.0,5.9622,5.996,5.9201,0.0,0.0,5.69,5.6781,0.0,0.0,0.0,0.0,0.0,0.0,0.0,0.0,0.0,0.0,0.0,0.0,0.0,0.0,0.0,0.0,4.4843,4.621,4.6921,4.6549,4.6413,4.6989,4.7699,4.8428,4.9187,4.983,5.0541,5.1269,5.1336,5.1674,5.2503,5.257,0.0,0.0,0.0,5.504,5.5699,5.5767,5.5868,5.5936,5.6037,5.6105,5.6206,5.6206,5.6206,5.6206,5.6206,5.6206,5.6206,5.6206,5.6206,5.6172,5.5834,5.5699,5.5699,5.5699,5.5699,5.5699,5.5699,0.0,0.0,5.5699,5.5699,5.5699,5.5699,5.5699,5.5733,5.58,5.5868,5.5969,5.6037,5.663,5.7171,5.7171,5.8186,5.9152,5.9263,5.9716,6.0152,6.0333,6.0386,6.0684,6.1604,6.0996,6.0386,6.0386,6.0453,6.0721,6.1351,6.1434,6.167,6.2333,6.24,0.0,6.24,6.1806,6.1704,6.2367,6.1772,6.1434,6.1434,6.1434,6.1434,6.1434,6.0723,6.0723,6.1434,6.0723,6.0351,6.0317,5.8829,5.849,0.0,0.0,0.0,0.0,0.0,0.0,0.0,0.0,0.0,0.0,0.0,0.0,0.0,0.0,0.0,4.3321,4.5689,4.7718,4.8477,4.8951,4.9086,4.8646,4.9221,4.9965,5.0694,5.0897,5.1302,5.2029,5.2097,5.2706,5.4059,5.416,5.4566,5.5462,5.5496,5.5564,5.5699,5.6274,5.69,5.7476,5.8084,0.0,5.9268,5.9268,5.9268,5.9268,5.9268,5.9268,5.9268,5.9268,5.9268,5.8998,5.6612,5.5699,5.5699,5.5699,5.5699,5.5699,5.5699,5.5699,5.5699,5.5699,5.5699,5.5699,5.5699,5.5699,0.0,5.6427,5.7036,5.7611,5.8201,5.893,5.9471,5.9471,5.9674,6.0102,6.0854,6.0522,6.0495,6.187,6.2118,6.2345,6.3129,6.264,6.2118,6.2118,6.2618,6.2806,6.2261,6.2197,6.2265,6.24,6.24,6.24,6.24,6.2245,6.2245,6.2381,6.2245,6.2197,6.2197,6.2197,6.2197,6.2197,6.2028,6.2028,6.2197,6.2028,6.196,6.1907,6.0385,5.9742,0.0,0.0,0.0,0.0,0.0,0.0,0.0,0.0,0.0,0.0,0.0,4.046,4.1563,0.0,4.4485,4.5959,4.7481,4.8834,4.995,5.0744,5.0913,5.0186,5.0744,5.1352,5.1708,5.2114,5.2672,5.3382,5.345,5.3957,5.5108,5.5141,5.548,5.624,5.624,5.6612,5.7356,5.7728,5.8287,5.8998,5.937,5.9742,6.0114,6.0114,6.0114,6.0114,6.0114,6.0114,6.0114,6.0114,6.0114,5.9945,5.849,5.7897,5.7897,5.7897,5.7897,5.7897,5.7897,5.7897,5.7897,5.7897,5.7897,5.7897,5.7897,5.7897,5.7983,5.8355,5.8727,5.9099,5.9471,6.0149,6.0807,6.0807,6.1426,6.211,6.259,6.2631,6.2804,6.3623,6.3779,6.4073,6.4916,6.4732,6.4353,6.3847,6.3745,6.3701,6.3684,6.3332,6.3202,6.363,6.3684,6.3684,6.3684,6.3684,6.3519,6.3068,6.3049,6.2855,6.242,6.24,6.24,6.24,6.24,6.24,6.24,6.24,6.24,6.24,6.1603,6.1231,0.0,0.0,0.0,0.0,0.0,0.0,0.0,3.7719,3.851,3.9986,4.1373,4.2645,4.3829,4.4823,4.6225,4.8612,4.9357,5.0067,5.1235,5.2063,5.2334,5.1708,5.2148,5.2536,5.2536,5.3247,5.3957,5.4583,5.4735,5.5141,5.5868,5.5902,5.6308,5.7205,5.7239,5.7881,5.9182,5.9216,5.9588,6.0317,6.0317,6.0419,6.0554,6.0554,6.0554,6.0554,6.0554,6.0554,6.0554,6.0554,6.0554,6.0554,6.0554,6.0554,6.052,6.0216,6.0114,6.0114,6.0114,6.0114,6.0114,6.0114,6.0114,6.0114,6.0114,6.0212,6.0381,6.0381,6.0597,6.0847,6.0847,6.1514,6.2161,6.2161,6.3176,6.416,6.4356,6.4721,6.5049,6.5229,6.5261,6.5506,6.6262,6.6538,6.6338,6.5426,6.4666,6.4392,6.4933,6.4392,6.4218,6.4916,6.4999,6.4999,6.4999,6.4999,6.4682,6.4007,6.3954,6.3556,6.2697,6.2659,6.2562,6.24,6.24,6.24,6.24,6.24,6.24,6.24,6.24,6.24,3.3866,3.4259,3.6186,3.8125,3.8633,3.9478,0.0,4.3098,4.3085,4.4621,4.5602,4.621,4.638,4.7564,4.8612,4.8951,5.0642,5.1995,5.2164,5.2875,5.3348,5.3247,5.3315,5.3382,5.3382,5.4025,5.4516,5.4566,5.5209,5.5902,5.663,5.6697,5.734,5.8709,5.8743,5.9167,5.9979,5.9979,6.0385,6.1163,6.1163,6.1501,6.2164,6.2164,6.2164,6.2164,6.2164,6.2164,6.2164,6.2164,6.2164,6.2164,6.2164,6.2164,6.1994,6.0622,6.0114,6.0114,6.0114,6.0114,6.0114,6.0114,6.0114,6.0114,6.0114,6.0679,6.1344,6.1344,6.2367,6.3463,6.3463,6.4023,6.4619,6.4619,6.4756,6.5106,6.5935,6.5514,6.5229,6.6095,6.6232,6.6262,6.6389,6.7024,6.7258,6.6389,6.6156,6.5826,6.5098,6.4916,6.4883,6.4999,6.4999,6.4999,6.4999,6.4999,6.4966,6.4866,6.485,6.4478,6.3592,6.3537,6.3199,6.242,6.24,6.24,6.24,6.24,6.24,6.24,6.24,6.24,3.8768,3.8396,3.8768,4.0988,4.1563,4.2083,4.4127,4.433,4.4519,4.6041,4.7259,4.8071,4.8071,4.9289,5.0423,5.0845,5.1691,5.2469,5.2942,5.3281,5.3653,5.4093,5.4126,5.4126,5.4126,5.4803,5.5412,5.5852,5.619,5.6867,5.7999,5.8066,5.8558,5.9607,5.9641,6.0013,6.0791,6.0791,6.1163,6.1941,6.1941,6.211,6.24,6.24,6.24,6.24,6.24,6.24,6.244,6.2969,6.3162,6.3218,6.3703,6.3918,6.3723,6.2063,6.1434,6.153,6.2015,6.222,6.2277,6.2785,6.2927,6.2927,6.2927,6.3205,6.3547,6.3547,6.4027,6.4555,6.4555,6.5177,6.5826,6.5826,6.6196,6.6664,6.7053,6.6845,6.6678,6.7067,6.716,6.716,6.716,6.746,6.7593,6.7216,6.67,6.6464,6.6561,6.612,6.6012,6.6531,6.6576,6.6576,6.6576,6.6576,6.6332,6.5857,6.5826,6.5394,6.4512,6.4461,6.4288,6.3936,6.3918,6.3918,6.3918,6.3918,6.3918,6.3918,6.3918,6.3918,4.1048,4.1048,4.1149,4.2949,4.3862,4.4485,4.5074,4.5345,4.5819,4.6887,4.8274,4.9289,4.9289,5.0507,5.1674,5.2198,5.2503,5.2841,5.3416,5.3687,5.3991,5.4532,5.4956,5.5209,5.5209,5.5683,5.6206,5.6765,5.7171,5.7881,5.8945,5.9182,5.9674,6.0419,6.0419,6.0825,6.1603,6.1603,6.1873,6.24,6.24,6.24,6.24,6.24,6.2537,6.274,6.274,6.2912,6.3165,6.3793,6.406,6.4131,6.4749,6.4999,6.485,6.3592,6.3124,6.3202,6.3829,6.406,6.4148,6.4783,6.4999,6.4999,6.4999,6.518,6.5394,6.5394,6.557,6.5759,6.5759,6.6226,6.6765,6.6765,6.7244,6.77,6.77,6.77,6.77,6.77,6.77,6.77,6.77,6.77,6.77,6.77,6.7174,6.6982,6.7633,6.716,6.6996,6.7647,6.77,6.77,6.77,6.77,6.7433,6.6809,6.6765,6.6338,6.5426,6.5394,6.5245,6.5016,6.4999,6.5105,6.5334,6.5334,6.5441,6.567,6.567,6.5786,3.887,4.0641,4.2422,4.3186,4.506,4.6684,4.6733,4.7293,4.7819,4.7853,4.9052,5.0083,5.0083,5.1251,5.2266,5.23,5.2942,5.3484,5.3518,5.4126,5.4566,5.4617,5.5852,5.6731,5.6731,5.6765,5.6799,5.6799,5.81,5.8945,5.9013,5.9674,6.0419,6.1231,6.1264,6.1603,6.2367,6.2367,6.24,6.24,6.24,6.24,6.24,6.24,6.2855,6.3665,6.3665,6.4148,6.4916,6.4949,6.4966,6.4966,6.4999,6.4999,6.4999,6.4949,6.4916,6.4933,6.4949,6.4966,6.4966,6.4999,6.4999,6.4999,6.4999,6.5633,6.6374,6.6374,6.6967,6.7633,6.7633,6.7647,6.766,6.766,6.7687,6.77,6.77,6.77,6.77,6.77,6.77,6.77,6.77,6.77,6.77,6.77,6.7687,6.7674,6.77,6.7687,6.7674,6.77,6.77,6.77,6.77,6.77,6.7687,6.7674,6.766,6.7258,6.6404,6.6374,6.592,6.5016,6.4999,6.537,6.6166,6.6166,6.6572,6.7315,6.7315,6.7802,4.0865,4.2469,4.4228,4.5959,4.7312,4.8376,4.8898,4.9187,4.9357,4.9357,4.9729,5.0117,5.0117,5.1319,5.23,5.23,5.2976,5.3518,5.3518,5.4126,5.4769,5.5277,5.619,5.7002,5.7476,5.7509,5.7746,5.8201,5.8709,5.9453,6.0486,6.0757,6.1231,6.2009,6.2009,6.2144,6.24,6.24,6.24,6.24,6.3007,6.3258,6.3277,6.3864,6.4288,6.4581,6.4581,6.4715,6.5049,6.5649,6.592,6.5982,6.6561,6.6802,6.6802,6.6802,6.6802,6.6693,6.612,6.592,6.6012,6.659,6.6802,6.6802,6.6802,6.701,6.7258,6.7258,6.7474,6.77,6.77,6.77,6.77,6.77,6.77,6.77,6.77,6.77,6.77,6.77,6.77,6.77,6.77,6.77,6.7884,6.8421,6.8031,6.77,6.77,6.77,6.7921,6.8458,6.8495,6.8715,6.9242,6.9265,6.9265,6.9265,6.9265,6.9169,6.8879,6.8864,6.8713,6.8377,6.8377,6.8523,6.8777,6.8777,6.8922,6.9176,6.9176,6.9361,4.2706,4.4228,4.5853,4.78,4.8849,4.9526,4.9981,5.0117,5.0117,5.0117,5.0117,5.0184,5.0439,5.1488,5.23,5.23,5.2976,5.3585,5.3856,5.4532,5.5277,5.6003,5.6731,5.7476,5.822,5.8287,5.849,5.8945,5.952,6.0231,6.1264,6.1535,6.1907,6.24,6.24,6.24,6.24,6.24,6.2542,6.2874,6.3443,6.3846,6.4166,6.4732,6.518,6.5506,6.5506,6.5681,6.5992,6.6626,6.6867,6.691,6.7474,6.77,6.77,6.77,6.77,6.7633,6.7075,6.6867,6.6953,6.7515,6.77,6.77,6.77,6.77,6.77,6.77,6.77,6.77,6.77,6.77,6.77,6.77,6.77,6.77,6.77,6.77,6.77,6.77,6.7921,6.8128,6.8128,6.8361,6.8728,6.9265,6.8898,6.8545,6.8545,6.8545,6.8765,6.9265,6.9339,6.9522,7.0073,7.011,7.011,7.011,7.011,7.011,7.011,7.011,7.011,7.011,7.011,7.022,7.055,7.055,7.0697,7.0954,7.0954,7.0954,4.433,4.5819,4.7259,4.8748,4.9627,5.015,5.015,5.015,5.015,5.0117,5.0117,5.0304,5.0964,5.1708,5.2232,5.2232,5.2942,5.3754,5.4516,5.5243,5.5969,5.6697,5.7476,5.8238,5.8986,5.9084,5.9133,5.9189,6.0505,6.1332,6.1366,6.2067,6.2479,6.2479,6.2518,6.2523,6.2523,6.2523,6.2935,6.3773,6.3827,6.4253,6.5065,6.5114,6.5617,6.6464,6.6464,6.6939,6.77,6.77,6.77,6.77,6.77,6.77,6.77,6.77,6.77,6.77,6.77,6.77,6.77,6.77,6.77,6.77,6.77,6.77,6.77,6.77,6.77,6.77,6.77,6.77,6.77,6.77,6.77,6.77,6.7737,6.7774,6.7774,6.7811,6.8421,6.8972,6.8972,6.9596,7.011,7.0146,7.0146,7.0146,7.011,7.011,7.011,7.0146,7.0146,7.0183,7.022,7.022,7.022,7.022,7.022,7.022,7.022,7.022,7.022,7.022,7.022,7.0587,7.1344,7.1344,7.1747,7.2496,7.2496,7.2496,4.6515,4.7733,4.8781,5.0254,5.0761,5.0897,5.0897,5.0897,5.0777,5.0218,5.0117,4.9981,4.9627,5.0592,5.1472,5.1472,5.2621,5.3754,5.4516,5.5243,5.5969,5.6697,5.7949,5.9055,5.9977,6.0427,6.0978,6.1629,6.1431,6.1535,6.2076,6.2908,6.3369,6.3369,6.4007,6.4357,6.4357,6.4357,6.4461,6.4665,6.5361,6.5811,6.6079,6.6729,6.7137,6.7378,6.7378,6.7488,6.77,6.77,6.77,6.77,6.77,6.77,6.77,6.77,6.77,6.77,6.77,6.77,6.77,6.77,6.77,6.77,6.77,6.77,6.77,6.77,6.77,6.77,6.77,6.77,6.77,6.77,6.77,6.7847,6.8458,6.8605,6.8752,6.9376,6.9633,6.9779,6.9779,6.9963,7.0293,7.0903,7.0977,7.077,7.0183,7.011,7.033,7.094,7.0977,7.1248,7.1835,7.1908,7.1908,7.1908,7.1908,7.1908,7.1908,7.1908,7.1908,7.1908,7.1908,7.1982,7.2188,7.2188,7.2312,7.2496,7.2496,7.2496,4.7785,4.8917,4.983,5.1302,5.1438,5.1133,5.0811,5.071,5.0507,4.9763,4.9627,4.9593,4.9492,5.0423,5.1201,5.1201,5.2486,5.389,5.4938,5.5428,5.6206,5.7593,5.8857,6.0076,6.1242,6.202,6.2785,6.3589,6.2473,6.2135,6.2935,6.3443,6.3864,6.4253,6.4732,6.4999,6.4999,6.4999,6.5196,6.5617,6.6156,6.6597,6.6982,6.7474,6.77,6.77,6.77,6.77,6.77,6.77,6.77,6.77,6.77,6.77,6.77,6.77,6.77,6.77,6.77,6.77,6.77,6.77,6.77,6.77,6.77,6.77,6.77,6.77,6.77,6.77,6.77,6.7958,6.8238,6.8238,6.8508,6.8862,6.9339,6.9449,6.9669,7.0477,7.0624,7.0734,7.1101,7.1138,7.1321,7.1747,7.1821,7.1637,7.1211,7.1138,7.1321,7.1784,7.1821,7.2004,7.2459,7.2496,7.2496,7.2496,7.2496,7.2496,7.2496,7.2496,7.2496,7.2496,7.2496,7.2496,7.2496,7.2496,7.2496,7.2496,7.2496,7.2496,4.8698,4.9763,5.0574,5.1961,5.181,5.1133,5.027,5.0184,4.9999,4.9187,4.9086,4.9357,4.9965,5.071,5.1235,5.1336,5.2638,5.4126,5.5496,5.5767,5.6665,5.8911,5.9993,6.1189,6.2805,6.3591,6.4356,6.5128,6.3683,6.3087,6.3811,6.3989,6.4444,6.5326,6.5358,6.5358,6.5358,6.5358,6.5759,6.6568,6.6568,6.6967,6.77,6.77,6.77,6.77,6.77,6.77,6.77,6.77,6.77,6.77,6.77,6.77,6.77,6.77,6.77,6.77,6.77,6.77,6.77,6.77,6.77,6.77,6.77,6.77,6.77,6.77,6.7774,6.7847,6.7847,6.8458,6.9082,6.9082,6.9596,7.011,7.022,7.033,7.0624,7.1307,7.1454,7.1674,7.2386,7.2496,7.2496,7.2496,7.2496,7.2496,7.2496,7.2496,7.2496,7.2496,7.2496,7.2496,7.2496,7.2496,7.2496,7.2496,7.2496,7.2496,7.2496,7.2496,7.2496,7.2496,7.2496,7.2496,7.2496,7.2496,7.2569,7.2679,7.2679,7.2716,5.022,5.0897,5.1217,5.2097,5.2198,5.1758,5.0421,5.0574,5.0626,4.9289,4.9492,4.9947,5.0083,5.071,5.1404,5.2029,5.3416,5.4702,5.5564,5.6206,5.7492,5.9858,6.0843,6.2239,6.4516,6.4789,6.5167,6.6074,6.5166,6.4597,6.4766,6.549,6.6323,6.7179,6.7244,6.7244,6.7244,6.7244,6.7314,6.7474,6.7474,6.7542,6.77,6.77,6.77,6.77,6.77,6.77,6.77,6.77,6.77,6.77,6.77,6.77,6.77,6.77,6.77,6.77,6.77,6.77,6.77,6.77,6.77,6.77,6.77,6.77,6.77,6.77,6.8164,6.8678,6.8678,6.9302,6.9889,6.9889,7.0,7.0293,7.094,7.16,7.2129,7.2275,7.2312,7.2349,7.2496,7.2496,7.2496,7.2496,7.2496,7.2496,7.2496,7.2496,7.2496,7.2496,7.2496,7.2496,7.2496,7.2496,7.2496,7.2496,7.2496,7.2496,7.2496,7.2496,7.2496,7.2496,7.2496,7.2496,7.2496,7.2496,7.2826,7.3487,7.3487,7.3854,5.0135,5.0642,5.0811,5.1539,5.1708,5.1336,4.9864,5.0101,5.0202,4.8732,4.9018,4.9627,5.0049,5.071,5.1438,5.2198,5.3585,5.4871,5.5597,5.6712,5.829,6.0687,6.205,6.3621,6.5637,6.616,6.659,6.7024,6.6649,6.6211,6.5728,6.6597,6.7258,6.7687,6.77,6.77,6.77,6.77,6.77,6.77,6.77,6.77,6.77,6.77,6.77,6.77,6.77,6.77,6.77,6.77,6.77,6.77,6.77,6.77,6.77,6.77,6.77,6.77,6.77,6.7958,6.8311,6.8311,6.8031,6.7774,6.8201,6.8311,6.8421,6.8839,6.9229,6.9522,6.9522,7.011,7.0734,7.0734,7.1027,7.1468,7.1821,7.2239,7.2496,7.2496,7.2496,7.2496,7.2496,7.2496,7.2496,7.2496,7.2496,7.2496,7.2496,7.2496,7.2496,7.2496,7.2496,7.2496,7.2496,7.2496,7.2496,7.2496,7.2496,7.2496,7.2496,7.2496,7.2496,7.2496,7.2899,7.312,7.312,7.356,7.3964,7.4331,7.4331,7.4536,4.9695,5.0117,5.0236,5.0829,5.1201,5.0998,4.939,4.9695,4.9932,4.8428,4.8597,4.9255,5.0168,5.0811,5.1505,5.2401,5.3721,5.4871,5.5597,5.702,5.8952,6.1482,6.3091,6.4701,6.6496,6.7286,6.77,6.77,6.77,6.7405,6.6736,6.7314,6.77,6.77,6.77,6.77,6.77,6.77,6.77,6.77,6.77,6.77,6.77,6.77,6.77,6.77,6.77,6.77,6.77,6.77,6.77,6.77,6.77,6.77,6.7737,6.7884,6.7958,6.7994,6.8141,6.8641,6.9155,6.9155,6.8715,6.8325,6.8972,6.9155,6.9302,6.9926,7.022,7.0367,7.0367,7.094,7.1564,7.1564,7.2041,7.2496,7.2496,7.2496,7.2496,7.2496,7.2496,7.2496,7.2496,7.2496,7.2496,7.2496,7.2496,7.2496,7.2496,7.2496,7.2496,7.2496,7.2496,7.2496,7.2496,7.2496,7.2496,7.2496,7.2496,7.2569,7.2753,7.2753,7.2826,7.301,7.3634,7.3964,7.3964,7.4588,7.4977,7.516,7.516,7.5234,4.9695,5.0117,5.0117,5.0184,5.1217,5.1657,4.9492,5.0085,5.0694,4.9221,4.8951,4.9424,5.0829,5.1167,5.1674,5.3145,5.4059,5.4871,5.5597,5.702,5.9164,6.2303,6.3457,6.4952,6.7355,6.766,6.77,6.77,6.77,6.7674,6.7569,6.766,6.77,6.77,6.77,6.77,6.77,6.77,6.77,6.77,6.77,6.77,6.77,6.77,6.77,6.77,6.77,6.77,6.77,6.77,6.77,6.77,6.77,6.77,6.7811,6.8531,6.8788,6.8898,6.9633,6.9926,7.0,7.0,6.9926,6.9889,6.9963,7.0,7.0,7.0073,7.0624,7.1197,7.1197,7.1784,7.2386,7.2386,7.2459,7.2496,7.2496,7.2496,7.2496,7.2496,7.2496,7.2496,7.2496,7.2496,7.2496,7.2496,7.2496,7.2496,7.2496,7.2496,7.2496,7.2496,7.2496,7.2496,7.2496,7.2496,7.2496,7.2496,7.2496,7.2826,7.3575,7.3611,7.3927,7.4683,7.4757,7.4793,7.4793,7.4867,7.527,7.5983,7.5983,7.6371,4.9154,4.9424,4.9526,4.9981,5.0556,5.076,4.9864,5.0101,5.0236,4.9221,4.9018,4.9442,5.093,5.1201,5.1708,5.3247,5.4496,5.5208,5.5041,5.7593,6.0098,6.1918,6.3697,6.5559,6.7527,6.77,6.77,6.77,6.77,6.77,6.77,6.77,6.77,6.77,6.77,6.77,6.77,6.77,6.77,6.77,6.77,6.77,6.77,6.77,6.77,6.77,6.77,6.77,6.77,6.77,6.77,6.7737,6.8238,6.8421,6.8531,6.9339,6.9633,6.9669,7.0,7.0403,7.083,7.083,7.1138,7.1468,7.0991,7.083,7.0917,7.1394,7.1798,7.2004,7.2004,7.2275,7.2496,7.2496,7.2496,7.2496,7.2496,7.2496,7.2496,7.2496,7.2496,7.2496,7.2496,7.2496,7.2496,7.2496,7.2496,7.2496,7.2496,7.2496,7.2496,7.2496,7.2496,7.2716,7.3193,7.323,7.3413,7.3913,7.3949,7.4096,7.4404,7.4441,7.4588,7.4903,7.538,7.5616,7.5616,7.6114,7.6518,7.6812,7.6812,7.6995,4.8462,4.8834,4.9187,4.9914,5.0117,5.0117,5.0117,5.0117,4.9898,4.9154,4.9187,4.9661,5.066,5.1235,5.1877,5.2976,5.4381,5.5258,5.4957,5.7902,6.0474,6.1554,6.3591,6.5595,6.7187,6.7554,6.77,6.77,6.77,6.77,6.77,6.77,6.77,6.77,6.77,6.77,6.77,6.77,6.77,6.77,6.77,6.77,6.77,6.77,6.77,6.77,6.77,6.7847,6.8054,6.8054,6.8214,6.8471,6.9045,6.9265,6.9339,7.0146,7.044,7.0477,7.0734,7.1174,7.1637,7.1637,7.2041,7.2386,7.1821,7.1637,7.1784,7.2349,7.2496,7.2496,7.2496,7.2496,7.2496,7.2496,7.2496,7.2496,7.2496,7.2496,7.2496,7.2496,7.2496,7.2496,7.2496,7.2496,7.2496,7.2496,7.2496,7.2496,7.2496,7.2716,7.2863,7.2863,7.3083,7.334,7.3685,7.3927,7.4294,7.4867,7.4903,7.5014,7.5234,7.5234,7.538,7.5601,7.6151,7.6445,7.646,7.7032,7.7289,7.7289,7.7289,7.7289,4.7718,4.8428,4.9187,4.9914,5.0117,5.0117,5.0117,5.0117,4.9898,4.9154,4.9593,5.0083,5.0117,5.1285,5.23,5.23,5.3624,5.486,5.5584,5.7761,5.9891,6.1421,6.3106,6.4763,6.6366,6.7223,6.77,6.77,6.77,6.77,6.77,6.77,6.77,6.77,6.77,6.77,6.77,6.77,6.77,6.77,6.77,6.77,6.77,6.77,6.77,6.77,6.77,6.8128,6.8898,6.8898,6.9376,7.0073,7.0073,7.0073,7.0183,7.0977,7.1307,7.1417,7.2202,7.2496,7.2496,7.2496,7.2496,7.2496,7.2496,7.2496,7.2496,7.2496,7.2496,7.2496,7.2496,7.2496,7.2496,7.2496,7.2496,7.2496,7.2496,7.2496,7.2496,7.2496,7.2496,7.2496,7.2496,7.2496,7.2496,7.2496,7.2496,7.2496,7.2496,7.3193,7.367,7.367,7.4404,7.4551,7.378,7.4441,7.4903,7.4903,7.4903,7.527,7.6056,7.6093,7.646,7.7252,7.7289,7.7289,7.7289,7.7289,7.7289,7.7289,7.7289,7.7289,4.6955,4.7327,4.78,4.9052,4.8984,4.8849,4.988,4.9695,4.9289,4.9052,4.9187,4.9661,5.0676,5.1235,5.1877,5.2942,5.3951,5.4875,5.5655,5.7829,6.0097,6.2249,6.489,6.6746,6.726,6.7554,6.77,6.77,6.77,6.77,6.77,6.77,6.77,6.77,6.77,6.77,6.77,6.77,6.77,6.77,6.77,6.77,6.77,6.77,6.7981,6.8531,6.8531,6.8972,6.9706,6.9706,6.9853,7.0146,7.0697,7.0903,7.1013,7.1821,7.2129,7.2151,7.2422,7.2496,7.2496,7.2496,7.2496,7.2496,7.2496,7.2496,7.2496,7.2496,7.2496,7.2496,7.2496,7.2496,7.2496,7.2496,7.2496,7.2496,7.2496,7.2496,7.2496,7.2496,7.2496,7.2496,7.2496,7.2496,7.2496,7.2496,7.2496,7.2496,7.2496,7.3193,7.3722,7.3722,7.4918,7.5616,7.5359,7.5579,7.5931,7.6518,7.6555,7.6665,7.6922,7.6922,7.7032,7.7289,7.7289,7.7289,7.7289,7.7289,7.7289,7.7289,7.7289,7.7289,4.6177,4.6597,4.7158,4.8646,4.8462,4.8293,4.9763,4.9526,4.9086,4.9357,4.9424,4.9796,5.0964,5.1438,5.2025,5.3284,5.414,5.5077,5.6462,5.8196,6.0322,6.3021,6.565,6.726,6.726,6.7517,6.77,6.77,6.77,6.77,6.77,6.77,6.77,6.77,6.77,6.77,6.77,6.77,6.77,6.77,6.77,6.77,6.77,6.8031,6.8421,6.8921,6.9229,6.9816,0.0,7.055,7.0734,7.1064,7.1564,7.1747,7.1821,7.2312,7.2496,7.2496,7.2496,7.2496,7.2496,7.2496,7.2496,7.2496,7.2496,7.2496,7.2496,7.2496,7.2496,7.2496,7.2496,7.2496,7.2496,7.2496,7.2496,7.2496,7.2496,7.2496,7.2496,7.2496,7.2496,7.2496,7.2496,7.2496,7.2496,7.2496,7.2496,7.2606,7.2899,7.367,7.4258,7.4551,7.5763,7.6555,7.6555,7.6555,7.6775,7.7289,7.7289,7.7289,7.7289,7.7289,7.7289,7.7289,7.7289,7.7289,7.7289,7.7289,7.7289,7.7289,7.7289,7.7289,0.0,4.6109,4.6989,4.8477,4.8326,4.8191,4.971,4.9492,0.0,4.9947,5.0117,5.0338,5.1133,5.1844,5.2561,5.3368,5.4125,5.5436,5.778,5.902,6.0824,6.3843,6.5595,6.6549,6.6512,6.7223,6.77,6.77,6.77,6.77,6.77,6.77,6.77,6.77,6.77,6.77,6.77,6.77,6.77,6.77,6.77,6.7737,6.7811,6.8568,6.8972,6.9105,6.9853,7.066,7.138,7.138,7.1821,7.2496,7.2496,7.2496,7.2496,7.2496,7.2496,7.2496,7.2496,7.2496,7.2496,7.2496,7.2496,7.2496,7.2496,7.2496,7.2496,7.2496,7.2496,7.2496,7.2496,7.2496,7.2496,7.2496,7.2496,7.2496,7.2496,7.2496,7.2496,7.2496,7.2496,7.2496,7.2496,7.2496,7.2496,7.2496,7.2569,7.2863,7.3597,7.4441,7.527,7.6019,7.6812,7.7289,7.7289,7.7289,7.7289,7.7289,7.7289,7.7289,7.7289,7.7289,7.7289,7.7289,7.7289,7.7289,7.7289,7.7289,7.7289,7.7289,7.7289,7.7289,4.4804,0.0,4.5481,4.6955,4.7192,4.7428,0.0,4.912,4.9221,4.9947,5.0117,5.0507,5.1792,5.2198,5.2569,5.336,5.4129,5.5451,5.7839,6.147,6.4179,6.4908,6.6439,6.7187,6.6549,6.7223,6.77,6.77,6.77,6.77,6.77,6.77,6.77,6.77,6.77,6.77,6.77,6.77,6.77,6.77,6.77,6.8031,6.8641,6.8825,6.9582,7.0756,7.094,7.1454,7.2224,7.2224,7.2349,7.2496,7.2496,7.2496,7.2496,7.2496,7.2496,7.2496,7.2496,7.2496,7.2496,7.2496,7.2496,7.2496,7.2496,7.2496,7.2496,7.2496,7.2496,7.2496,7.2496,7.2496,7.2496,7.2496,7.2496,7.2496,7.2496,7.2496,7.2496,7.2496,7.2496,7.2496,7.2496,7.2496,7.2496,7.2496,7.301,7.3487,7.3685,7.4955,7.5909,7.6093,7.6812,7.7289,7.7289,7.7289,7.7289,7.7289,7.7289,7.7289,7.7289,7.7289,7.7289,7.7289,7.7289,7.7289,7.7289,7.7289,7.7289,7.7289,7.7289,7.7289,4.4615,4.4838,4.5379,4.653,4.7056,4.7699,4.9154,4.9492,4.9796,5.0879,5.0845,5.1048,5.257,5.3135,5.3649,5.4388,5.5501,5.6951,5.8959,6.244,6.4897,6.5251,6.6402,6.71,6.7063,6.7444,6.77,6.77,6.77,6.77,6.77,6.77,6.77,6.77,6.77,6.77,6.77,6.77,6.77,6.77,6.77,6.8128,6.8898,6.9302,7.0132,7.1307,7.1674,7.2078,7.2496,7.2496,7.2496,7.2496,7.2496,7.2496,7.2496,7.2496,7.2496,7.2496,7.2496,7.2496,7.2496,7.2496,7.2496,7.2496,7.2496,7.2496,7.2496,7.2496,7.2496,7.2496,7.2496,7.2496,7.2496,7.2496,7.2496,7.2496,7.2496,7.2496,7.2496,7.2496,7.2496,7.2496,7.2496,7.2496,7.2642,7.301,7.3413,7.3979,7.4698,7.5542,7.624,7.6592,7.7032,7.7289,7.7289,7.7289,7.7289,7.7289,7.7289,7.7289,7.7289,7.7289,7.7289,7.7289,7.7289,7.7289,7.7289,7.7289,7.7289,7.7289,7.7289,7.7289,4.4581,4.5297,4.621,4.6819,4.7447,4.8293,4.9763,5.0117,5.0507,5.1995,5.181,5.1844,5.3382,5.4223,5.4899,5.5577,5.7292,5.9144,6.0811,6.3022,6.4714,6.5398,6.6182,6.688,6.748,6.7627,6.77,6.77,6.77,6.77,6.77,6.77,6.77,6.77,6.77,6.77,6.77,6.77,6.77,6.77,6.77,6.8201,6.9119,6.9779,7.0624,7.1527,7.2202,7.2496,7.2496,7.2496,7.2496,7.2496,7.2496,7.2496,7.2496,7.2496,7.2496,7.2496,7.2496,7.2496,7.2496,7.2496,7.2496,7.2496,7.2496,7.2496,7.2496,7.2496,7.2496,7.2496,7.2496,7.2496,7.2496,7.2496,7.2496,7.2496,7.2496,7.2496,7.2496,7.2496,7.2496,7.2496,7.2496,7.2606,7.2899,7.3597,7.3891,7.4551,7.5909,7.6203,7.6518,7.7252,7.7289,7.7289,7.7289,7.7289,7.7289,7.7289,7.7289,7.7289,7.7289,7.7289,7.7289,7.7289,7.7289,7.7289,7.7289,7.7289,7.7289,7.7289,7.7289,7.7289,4.4398,4.6041,4.7582,4.7718,4.7819,4.8293,4.9763,5.0117,5.0507,5.1995,5.2198,5.2604,5.416,5.4534,5.4855,5.5587,5.8207,6.0961,6.3231,6.5029,6.6182,6.6292,6.7026,6.7297,6.6733,6.7297,6.77,6.77,6.77,6.77,6.77,6.77,6.77,6.77,6.77,6.77,6.77,6.77,6.77,6.77,6.77,6.8471,6.9926,7.0036,7.0917,7.2312,7.2459,7.2496,7.2496,7.2496,7.2496,7.2496,7.2496,7.2496,7.2496,7.2496,7.2496,7.2496,7.2496,7.2496,7.2496,7.2496,7.2496,7.2496,7.2496,7.2496,7.2496,7.2496,7.2496,7.2496,7.2496,7.2496,7.2496,7.2496,7.2496,7.2496,7.2496,7.2496,7.2496,7.2496,7.2496,7.2496,7.2496,7.3046,7.3575,7.3685,7.4845,7.5836,7.6056,7.6702,7.7179,7.7289,7.7289,7.7289,7.7289,7.7289,7.7289,7.7289,7.7289,7.7289,7.7289,7.7289,7.7289,7.7289,7.7289,7.7289,7.7289,7.7289,7.7289,7.7289,7.7289,7.7289,4.4364,4.592,4.7496,4.8293,4.9104,4.9984,5.1048,5.1285,5.1589,5.2706,5.2942,5.3281,5.4397,5.566,5.7203,5.9201,6.0787,6.2299,6.3888,6.5118,6.5999,6.6439,6.6843,6.7076,6.715,6.748,6.77,6.77,6.77,6.77,6.77,6.77,6.77,6.77,6.77,6.77,6.77,6.77,6.77,6.77,6.77,6.8325,6.9486,6.9889,7.0734,7.1857,7.2312,7.2496,7.2496,7.2496,7.2496,7.2496,7.2496,7.2496,7.2496,7.2496,7.2496,7.2496,7.2496,7.2496,7.2496,7.2496,7.2496,7.2496,7.2496,7.2496,7.2496,7.2496,7.2496,7.2496,7.2496,7.2496,7.2496,7.2496,7.2496,7.2496,7.2496,7.2496,7.2496,7.2496,7.2496,7.2496,7.2496,7.3156,7.3854,7.4294,7.5359,7.6276,7.6702,7.7069,7.7289,7.7289,7.7289,7.7289,7.7289,7.7289,7.7289,7.7289,7.7289,7.7289,7.7289,7.7289,7.7289,7.7289,7.7289,7.7289,7.7289,7.7289,7.7289,7.7289,7.7289,7.7289,4.4079,4.5548,4.709,4.8409,4.9713,5.0964,5.2063,5.2164,5.2367,5.3518,5.3889,5.4261,5.499,5.6928,5.9313,6.2053,6.2844,6.3437,6.4513,6.5338,6.6109,6.6696,6.6769,6.704,6.7627,6.77,6.77,6.77,6.77,6.77,6.77,6.77,6.77,6.77,6.77,6.77,6.77,6.77,6.77,6.77,6.77,6.8128,6.8921,6.9743,7.055,7.1344,7.2165,7.2496,7.2496,7.2496,7.2496,7.2496,7.2496,7.2496,7.2496,7.2496,7.2496,7.2496,7.2496,7.2496,7.2496,7.2496,7.2496,7.2496,7.2496,7.2496,7.2496,7.2496,7.2496,7.2496,7.2496,7.2496,7.2496,7.2496,7.2496,7.2496,7.2496,7.2496,7.2496,7.2496,7.2496,7.2569,7.2753,7.345,7.4258,7.505,7.5858,7.6592,7.7215,7.7289,7.7289,7.7289,7.7289,7.7289,7.7289,7.7289,7.7289,7.7289,7.7289,7.7289,7.7289,7.7289,7.7289,7.7289,7.7289,7.7289,7.7289,7.7289,7.7289,7.7289,7.7289,7.7289,4.3288,4.5128,4.6989,4.7785,4.8563,4.9729,5.1826,5.1776,5.1911,5.4059,5.5102,5.5825,5.6518,5.7964,5.9644,6.1414,6.2924,6.4466,6.609,6.704,6.7554,6.7627,6.7627,6.7627,6.77,6.77,6.77,6.77,6.77,6.77,6.77,6.77,6.77,6.77,6.77,6.77,6.77,6.77,6.77,6.77,6.77,6.8128,6.8921,6.9743,7.055,7.1344,7.2165,7.2496,7.2496,7.2496,7.2496,7.2496,7.2496,7.2496,7.2496,7.2496,7.2496,7.2496,7.2496,7.2496,7.2496,7.2496,7.2496,7.2496,7.2496,7.2496,7.2496,7.2496,7.2496,7.2496,7.2496,7.2496,7.2496,7.2496,7.2496,7.2496,7.2496,7.2496,7.2496,7.2496,7.2496,7.2753,7.3487,7.4294,7.5087,7.5909,7.6702,7.7252,7.7289,7.7289,7.7289,7.7289,7.7289,7.7289,7.7289,7.7289,7.7289,7.7289,7.7289,7.7289,7.7289,7.7289,7.7289,7.7289,7.7289,7.7289,7.7289,7.7289,7.7289,7.7289,7.7289,7.7289,4.3186,4.5384,4.7447,4.7259,4.8815,5.0592,5.1438,5.2148,5.2858,5.3754,5.4911,5.6485,5.8703,5.9936,6.1198,6.2897,6.4078,6.5181,6.6326,6.7187,6.77,6.77,6.77,6.77,6.77,6.77,6.77,6.77,6.77,6.77,6.77,6.77,6.77,6.77,6.77,6.77,6.77,6.77,6.77,6.77,6.77,6.7847,6.8201,6.9486,7.0257,7.0624,7.1945,7.2496,7.2496,7.2496,7.2496,7.2496,7.2496,7.2496,7.2496,7.2496,7.2496,7.2496,7.2496,7.2496,7.2496,7.2496,7.2496,7.2496,7.2496,7.2496,7.2496,7.2496,7.2496,7.2496,7.2496,7.2496,7.2496,7.2496,7.2496,7.2496,7.2496,7.2496,7.2496,7.2496,7.2496,7.2753,7.3575,7.4368,7.516,7.5983,7.6775,7.7289,7.7289,7.7289,7.7289,7.7289,7.7289,7.7289,7.7289,7.7289,7.7289,7.7289,7.7289,7.7289,7.7289,7.7289,7.7289,7.7289,7.7289,7.7289,7.7289,7.7289,7.7289,7.7289,7.7289,7.7289,4.3639,4.5635,4.7549,4.7496,4.9018,5.0706,5.1398,5.2773,5.4001,5.4478,5.5987,5.7998,6.0414,6.1487,6.2435,6.3846,6.4974,6.5962,6.6769,6.737,6.77,6.77,6.77,6.77,6.77,6.77,6.77,6.77,6.77,6.77,6.77,6.77,6.77,6.77,6.77,6.77,6.77,6.77,6.77,6.77,6.77,6.77,6.7737,6.9389,7.011,7.0183,7.1798,7.2496,7.2496,7.2496,7.2496,7.2496,7.2496,7.2496,7.2496,7.2496,7.2496,7.2496,7.2496,7.2496,7.2496,7.2496,7.2496,7.2496,7.2496,7.2496,7.2496,7.2496,7.2496,7.2496,7.2496,7.2496,7.2496,7.2496,7.2496,7.2496,7.2496,7.2496,7.2496,7.2496,7.2716,7.312,7.3927,7.4771,7.5542,7.635,7.6959,7.7289,7.7289,7.7289,7.7289,7.7289,7.7289,7.7289,7.7289,7.7289,7.7289,7.7289,7.7289,7.7289,7.7289,7.7289,7.7289,7.7289,7.7289,7.7289,7.7289,7.7289,7.7289,7.7289,7.7289,7.7289,4.4567,4.5684,4.7158,4.8612,4.9018,4.9637,5.1889,5.3589,5.5116,5.6611,5.8761,6.064,6.1442,6.2268,6.3076,6.3885,6.541,6.6769,6.759,6.77,6.77,6.77,6.77,6.77,6.77,6.77,6.77,6.77,6.77,6.77,6.77,6.77,6.77,6.77,6.77,6.77,6.77,6.77,6.77,6.77,6.77,6.77,6.7737,6.9353,7.0073,7.0183,7.1798,7.2496,7.2496,7.2496,7.2496,7.2496,7.2496,7.2496,7.2496,7.2496,7.2496,7.2496,7.2496,7.2496,7.2496,7.2496,7.2496,7.2496,7.2496,7.2496,7.2496,7.2496,7.2496,7.2496,7.2496,7.2496,7.2496,7.2496,7.2496,7.2496,7.2496,7.2496,7.2496,7.2496,7.3156,7.3964,7.4757,7.5579,7.6387,7.7179,7.7289,7.7289,7.7289,7.7289,7.7289,7.7289,7.7289,7.7289,7.7289,7.7289,7.7289,7.7289,7.7289,7.7289,7.7289,7.7289,7.7289,7.7289,7.7289,7.7289,7.7289,7.7289,7.7289,7.7289,7.7289,7.7289,4.2976,4.5602,4.8206,4.7597,5.0207,5.2996,5.3196,5.3973,5.5372,5.8059,5.9143,6.0207,6.2096,6.3121,6.3975,6.4779,6.5793,6.6769,6.759,6.77,6.77,6.77,6.77,6.77,6.77,6.77,6.77,6.77,6.77,6.77,6.77,6.77,6.77,6.77,6.77,6.77,6.77,6.77,6.77,6.77,6.77,6.77,6.7737,6.8788,6.9559,7.0146,7.1197,7.1967,7.2496,7.2496,7.2496,7.2496,7.2496,7.2496,7.2496,7.2496,7.2496,7.2496,7.2496,7.2496,7.2496,7.2496,7.2496,7.2496,7.2496,7.2496,7.2496,7.2496,7.2496,7.2496,7.2496,7.2496,7.2496,7.2496,7.2496,7.2496,7.2496,7.2496,7.2679,7.323,7.3523,7.4147,7.5506,7.5946,7.6387,7.7179,7.7289,7.7289,7.7289,7.7289,7.7289,7.7289,7.7289,7.7289,7.7289,7.7289,7.7289,7.7289,7.7289,7.7289,7.7289,7.7289,7.7289,7.7289,7.7289,7.7289,7.7289,7.7289,7.7289,7.7289,7.7289,7.7289,4.5007,4.7389,4.95,4.9823,5.2052,5.4369,5.5204,5.6187,5.7565,5.9769,6.049,6.1217,6.2984,6.4016,6.4824,6.5668,6.6439,6.7136,6.7627,6.77,6.77,6.77,6.77,6.77,6.77,6.77,6.77,6.77,6.77,6.77,6.77,6.77,6.77,6.77,6.77,6.77,6.77,6.77,6.77,6.77,6.77,6.77,6.7737,6.8531,6.9339,7.0146,7.127,7.2041,7.2496,7.2496,7.2496,7.2496,7.2496,7.2496,7.2496,7.2496,7.2496,7.2496,7.2496,7.2496,7.2496,7.2496,7.2496,7.2496,7.2496,7.2496,7.2496,7.2496,7.2496,7.2496,7.2496,7.2496,7.2496,7.2496,7.2496,7.2496,7.2496,7.2753,7.312,7.3597,7.4236,7.4955,7.5946,7.6387,7.6738,7.7252,7.7289,7.7289,7.7289,7.7289,7.7289,7.7289,7.7289,7.7289,7.7289,7.7289,7.7289,7.7289,7.7289,7.7289,7.7289,7.7289,7.7289,7.7289,7.7289,7.7289,7.7289,7.7289,7.7289,7.7289,7.7289,7.7289,4.8855,4.9996,5.0885,5.3762,5.4252,5.477,5.7646,5.9544,6.0897,6.1487,6.2156,6.2987,6.3943,6.4751,6.5545,6.6366,6.7187,6.77,6.77,6.77,6.77,6.77,6.77,6.77,6.77,6.77,6.77,6.77,6.77,6.77,6.77,6.77,6.77,6.77,6.77,6.77,6.77,6.77,6.77,6.77,6.77,6.77,6.7737,6.8458,6.9265,7.0183,7.1798,7.2496,7.2496,7.2496,7.2496,7.2496,7.2496,7.2496,7.2496,7.2496,7.2496,7.2496,7.2496,7.2496,7.2496,7.2496,7.2496,7.2496,7.2496,7.2496,7.2496,7.2496,7.2496,7.2496,7.2496,7.2496,7.2532,7.2606,7.2569,7.2532,7.2606,7.3193,7.3744,7.3905,7.5102,7.613,7.6203,7.6812,7.7289,7.7289,7.7289,7.7289,7.7289,7.7289,7.7289,7.7289,7.7289,7.7289,7.7289,7.7289,7.7289,7.7289,7.7289,7.7289,7.7289,7.7289,7.7289,7.7289,7.7289,7.7289,7.7289,7.7289,7.7289,7.7289,7.7289,7.7289,4.699,4.9203,5.1408,5.3267,5.5927,5.8363,5.9625,6.1134,6.218,6.1692,6.1728,6.2317,6.3817,6.4751,6.5545,6.6366,6.7187,6.77,6.77,6.77,6.77,6.77,6.77,6.77,6.77,6.77,6.77,6.77,6.77,6.77,6.77,6.77,6.77,6.77,6.77,6.77,6.77,6.77,6.77,6.77,6.77,6.77,6.77,6.7884,6.8752,7.0183,7.1798,7.2496,7.2496,7.2496,7.2496,7.2496,7.2496,7.2496,7.2496,7.2496,7.2496,7.2496,7.2496,7.2496,7.2496,7.2496,7.2496,7.2496,7.2496,7.2496,7.2496,7.2496,7.2496,7.2496,7.2496,7.2496,7.2679,7.3303,7.2973,7.2679,7.3303,7.356,7.4074,7.5322,7.5873,7.6313,7.6922,7.7179,7.7289,7.7289,7.7289,7.7289,7.7289,7.7289,7.7289,7.7289,7.7289,7.7289,7.7289,7.7289,7.7289,7.7289,7.7289,7.7289,7.7289,7.7289,7.7289,7.7289,7.7289,7.7289,7.7289,7.7289,7.7289,7.7289,7.7289,7.7289,4.8405,5.0347,5.2031,5.5379,5.7768,5.9545,6.0695,6.1636,6.2232,6.2156,6.2497,6.3199,6.4429,6.5338,6.6145,6.6953,6.7444,6.77,6.77,6.77,6.77,6.77,6.77,6.77,6.77,6.77,6.77,6.77,6.77,6.77,6.77,6.77,6.77,6.77,6.77,6.77,6.77,6.77,6.77,6.77,6.77,6.77,6.77,6.8091,6.8935,7.0183,7.1394,7.2151,7.2496,7.2496,7.2496,7.2496,7.2496,7.2496,7.2496,7.2496,7.2496,7.2496,7.2496,7.2496,7.2496,7.2496,7.2496,7.2496,7.2496,7.2496,7.2496,7.2496,7.2496,7.2496,7.2496,7.2789,7.3193,7.3597,7.3377,7.3303,7.4111,7.4588,7.5102,7.5946,7.6423,7.6812,7.7252,7.7289,7.7289,7.7289,7.7289,7.7289,7.7289,7.7289,7.7289,7.7289,7.7289,7.7289,7.7289,7.7289,7.7289,7.7289,7.7289,7.7289,7.7289,7.7289,7.7289,7.7289,7.7289,7.7289,7.7289,7.7289,7.7289,7.7289,7.7289,7.7289,4.9988,5.1741,5.3066,5.7984,5.9317,5.9828,6.1434,6.1824,6.1996,6.2679,6.3503,6.436,6.5141,6.5962,6.6769,6.759,6.77,6.77,6.77,6.77,6.77,6.77,6.77,6.77,6.77,6.77,6.77,6.77,6.77,6.77,6.77,6.77,6.77,6.77,6.77,6.77,6.77,6.77,6.77,6.77,6.77,6.77,6.7737,6.8385,6.9192,7.0146,7.094,7.1747,7.2496,7.2496,7.2496,7.2496,7.2496,7.2496,7.2496,7.2496,7.2496,7.2496,7.2496,7.2496,7.2496,7.2496,7.2496,7.2496,7.2496,7.2496,7.2496,7.2496,7.2606,7.2716,7.2716,7.3303,7.3927,7.4089,7.4111,7.4294,7.494,7.5616,7.613,7.6276,7.6848,7.7289,7.7289,7.7289,7.7289,7.7289,7.7289,7.7289,7.7289,7.7289,7.7289,7.7289,7.7289,7.7289,7.7289,7.7289,7.7289,7.7289,7.7289,7.7289,7.7289,7.7289,7.7289,7.7289,7.7289,7.7289,7.7289,7.7289,7.7289,7.7289,7.7289,7.7289,4.7734,5.127,5.4988,5.844,5.9768,6.0677,6.2266,6.2657,6.2679,6.2768,6.3503,6.436,6.5141,6.5962,6.6769,6.759,6.77,6.77,6.77,6.77,6.77,6.77,6.77,6.77,6.77,6.77,6.77,6.77,6.77,6.77,6.77,6.77,6.77,6.77,6.77,6.77,6.77,6.77,6.77,6.77,6.77,6.77,6.77,6.7811,6.8692,7.0146,7.094,7.1747,7.2496,7.2496,7.2496,7.2496,7.2496,7.2496,7.2496,7.2496,7.2496,7.2496,7.2496,7.2496,7.2496,7.2496,7.2496,7.2496,7.2496,7.2496,7.2496,7.2496,7.301,7.3523,7.3523,7.4147,7.4918,7.5616,7.5763,7.5799,7.5909,7.6019,7.6313,7.6995,7.7252,7.7289,7.7289,7.7289,7.7289,7.7289,7.7289,7.7289,7.7289,7.7289,7.7289,7.7289,7.7289,7.7289,7.7289,7.7289,7.7289,7.7289,7.7289,7.7289,7.7289,7.7289,7.7289,7.7289,7.7289,7.7289,7.7289,7.7289,7.7289,7.7289,7.7289,7.7289,4.8737,5.2508,5.6078,5.9137,6.0505,6.1374,6.2536,6.2793,6.2793,6.2793,6.3857,6.4897,6.5215,6.6329,6.7297,6.7627,6.77,6.77,6.77,6.77,6.77,6.77,6.77,6.77,6.77,6.77,6.77,6.77,6.77,6.77,6.77,6.77,6.77,6.77,6.77,6.77,6.77,6.77,6.77,6.77,6.77,6.77,6.77,6.77,6.8582,7.011,7.0477,7.1358,7.2496,7.2496,7.2496,7.2496,7.2496,7.2496,7.2496,7.2496,7.2496,7.2496,7.2496,7.2496,7.2496,7.2496,7.2496,7.2496,7.2496,7.2496,7.2606,7.3046,7.3413,7.378,7.4258,7.4992,7.5652,7.6019,7.646,7.6775,7.6775,7.6775,7.6885,7.7252,7.7289,7.7289,7.7289,7.7289,7.7289,7.7289,7.7289,7.7289,7.7289,7.7289,7.7289,7.7289,7.7289,7.7289,7.7289,7.7289,7.7289,7.7289,7.7289,7.7289,7.7289,7.7289,7.7289,7.7289,7.7289,7.7289,7.7289,7.7289,7.7289,7.7289,7.7289,7.7289,4.9434,5.2519,5.5314,5.8933,6.042,6.13,6.2536,6.2793,6.2793,6.2793,6.4114,6.5288,6.5288,6.6623,6.77,6.77,6.77,6.77,6.77,6.77,6.77,6.77,6.77,6.77,6.77,6.77,6.77,6.77,6.77,6.77,6.77,6.77,6.77,6.77,6.77,6.77,6.77,6.77,6.77,6.77,6.77,6.77,6.77,6.77,6.8582,7.011,7.011,7.0991,7.2496,7.2496,7.2496,7.2496,7.2496,7.2496,7.2496,7.2496,7.2496,7.2496,7.2496,7.2496,7.2496,7.2496,7.2496,7.2496,7.2496,7.2496,7.2679,7.345,7.3854,7.4184,7.4992,7.5799,7.6423,7.6423,7.6848,7.7289,7.7289,7.7289,7.7289,7.7289,7.7289,7.7289,7.7289,7.7289,7.7289,7.7289,7.7289,7.7289,7.7289,7.7289,7.7289,7.7289,7.7289,7.7289,7.7289,7.7289,7.7289,7.7289,7.7289,7.7289,7.7289,7.7289,7.7289,7.7289,7.7289,7.7289,7.7289,7.7289,7.7289,7.7289,7.7289,7.7289,4.8308,4.9758,5.167,5.6984,5.8835,5.993,6.2279,6.2793,6.2793,6.2793,6.4114,6.5288,6.5288,6.6623,6.77,6.77,6.77,6.77,6.77,6.77,6.77,6.77,6.77,6.77,6.77,6.77,6.77,6.77,6.77,6.77,6.77,6.77,6.77,6.77,6.77,6.77,6.77,6.77,6.77,6.77,6.77,6.77,6.77,6.77,6.8582,7.011,7.011,7.0991,7.2496,7.2496,7.2496,7.2496,7.2496,7.2496,7.2496,7.2496,7.2496,7.2496,7.2496,7.2496,7.2496,7.2496,7.2496,7.2496,7.2496,7.2496,7.2679,7.345,7.4258,7.5014,7.5836,7.6628,7.7252,7.7252,7.7289,7.7289,7.7289,7.7289,7.7289,7.7289,7.7289,7.7289,7.7289,7.7289,7.7289,7.7289,7.7289,7.7289,7.7289,7.7289,7.7289,7.7289,7.7289,7.7289,7.7289,7.7289,7.7289,7.7289,7.7289,7.7289,7.7289,7.7289,7.7289,7.7289,7.7289,7.7289,7.7289,7.7289,7.7289,7.7289,7.7289,7.7289,4.8881,5.056,5.239,5.6308,5.8651,6.0187,6.1068,6.2059,6.2793,6.2793,6.4114,6.5288,6.5288,6.6623,6.77,6.77,6.77,6.77,6.77,6.77,6.77,6.77,6.77,6.77,6.77,6.77,6.77,6.77,6.77,6.77,6.77,6.77,6.77,6.77,6.77,6.77,6.77,6.77,6.77,6.77,6.77,6.77,6.77,6.77,6.8582,7.011,7.011,7.0991,7.2496,7.2496,7.2496,7.2496,7.2496,7.2496,7.2496,7.2496,7.2496,7.2496,7.2496,7.2496,7.2496,7.2496,7.2496,7.2496,7.2496,7.2863,7.345,7.4258,7.5065,7.5873,7.6665,7.7069,7.7289,7.7289,7.7289,7.7289,7.7289,7.7289,7.7289,7.7289,7.7289,7.7289,7.7289,7.7289,7.7289,7.7289,7.7289,7.7289,7.7289,7.7289,7.7289,7.7289,7.7289,7.7289,7.7289,7.7289,7.7289,7.7289,7.7289,7.7289,7.7289,7.7289,7.7289,7.7289,7.7289,7.7289,7.7289,7.7289,7.7289,7.7289,7.7289,7.7289,4.863,5.0328,5.2131,5.5274,5.7454,5.9061,6.0162,6.1215,6.2132,6.2683,6.4114,6.5288,6.5288,6.6623,6.77,6.77,6.77,6.77,6.77,6.77,6.77,6.77,6.77,6.77,6.77,6.77,6.77,6.77,6.77,6.77,6.77,6.77,6.77,6.77,6.77,6.77,6.77,6.77,6.77,6.77,6.77,6.77,6.77,6.77,6.8582,7.011,7.011,7.0991,7.2496,7.2496,7.2496,7.2496,7.2496,7.2496,7.2496,7.2496,7.2496,7.2496,7.2496,7.2496,7.2496,7.2496,7.2496,7.2496,7.2496,7.3046,7.3854,7.4683,7.5469,7.6276,7.7105,7.7289,7.7289,7.7289,7.7289,7.7289,7.7289,7.7289,7.7289,7.7289,7.7289,7.7289,7.7289,7.7289,7.7289,7.7289,7.7289,7.7289,7.7289,7.7289,7.7289,7.7289,7.7289,7.7289,7.7289,7.7289,7.7289,7.7289,7.7289,7.7289,7.7289,7.7289,7.7289,7.7289,7.7289,7.7289,7.7289,7.7289,7.7289,7.7289,7.7289,7.7619,0.0,0.0,0.0,5.3749,5.507,5.6429,5.9538,6.0346,6.0848,6.2426,6.4114,6.5288,6.5288,6.6623,6.77,6.77,6.77,6.77,6.77,6.77,6.77,6.77,6.77,6.77,6.77,6.77,6.77,6.77,6.77,6.77,6.77,6.77,6.77,6.77,6.77,6.77,6.77,6.77,6.77,6.77,6.77,6.77,6.77,6.77,6.8582,7.0073,7.0073,7.0991,7.2459,7.2496,7.2496,7.2496,7.2496,7.2496,7.2496,7.2496,7.2496,7.2496,7.2496,7.2496,7.2496,7.2496,7.2496,7.2496,7.2496,7.3046,7.3854,7.4683,7.5469,7.6276,7.7105,7.7289,7.7289,7.7289,7.7289,7.7289,7.7289,7.7289,7.7289,7.7289,7.7289,7.7289,7.7289,7.7289,7.7289,7.7289,7.7289,7.7289,7.7289,7.7289,7.7289,7.7289,7.7289,7.7289,7.7289,7.7289,7.7289,7.7289,7.7289,7.7289,7.7289,7.7289,7.7289,7.7289,7.7289,7.7289,7.7289,7.7289,7.7289,7.7289,7.7289,7.8206,4.8252,0.0,0.0,0.0,0.0,0.0,5.6723,5.8731,6.0517,6.097,6.3306,6.5288,6.5288,6.6623,6.77,6.77,6.77,6.77,6.77,6.77,6.77,6.77,6.77,6.77,6.77,6.77,6.77,6.77,6.77,6.77,6.77,6.77,6.77,6.77,6.77,6.77,6.77,6.77,6.77,6.77,6.77,6.77,6.77,6.77,6.8251,6.9265,6.9853,7.0697,7.1674,7.2275,7.2496,7.2496,7.2496,7.2496,7.2496,7.2496,7.2496,7.2496,7.2496,7.2496,7.2496,7.2496,7.2496,7.2496,7.2496,7.3046,7.3854,7.4683,7.5469,7.6276,7.7105,7.7289,7.7289,7.7289,7.7289,7.7289,7.7289,7.7289,7.7289,7.7289,7.7289,7.7289,7.7289,7.7289,7.7289,7.7289,7.7289,7.7289,7.7289,7.7289,7.7289,7.7289,7.7289,7.7289,7.7289,7.7289,7.7289,7.7289,7.7289,7.7289,7.7289,7.7289,7.7289,7.7289,7.7289,7.7289,7.7289,7.7289,7.7289,7.7289,7.7289,7.8206,0.0,0.0,5.2014,5.2036,0.0,0.0,5.6319,5.8033,5.9795,6.1104,6.349,6.5288,6.5288,6.6623,6.77,6.77,6.77,6.77,6.77,6.77,6.77,6.77,6.77,6.77,6.77,6.77,6.77,6.77,6.77,6.77,6.77,6.77,6.77,6.77,6.77,6.77,6.77,6.77,6.77,6.77,6.77,6.77,6.77,6.77,6.8128,6.8935,6.9743,7.055,7.1344,7.2165,7.2496,7.2496,7.2496,7.2496,7.2496,7.2496,7.2496,7.2496,7.2496,7.2496,7.2496,7.2496,7.2496,7.2496,7.2496,7.3046,7.3854,7.4683,7.5711,7.6702,7.7179,7.7289,7.7289,7.7289,7.7289,7.7289,7.7289,7.7289,7.7289,7.7289,7.7289,7.7289,7.7289,7.7289,7.7289,7.7289,7.7289,7.7289,7.7289,7.7289,7.7289,7.7289,7.7289,7.7289,7.7289,7.7289,7.7289,7.7289,7.7289,7.7289,7.7289,7.7289,7.7289,7.7289,7.7289,7.7289,7.7289,7.7289,7.7289,7.7289,7.7289,7.8206,0.0,0.0,0.0,5.1867,5.2475,0.0,5.6785,5.7593,5.8547,6.1398,6.3417,6.4628,6.4628,6.5852,6.6893,6.6893,6.7113,6.7407,6.7664,6.77,6.77,6.77,6.77,6.77,6.77,6.77,6.77,6.77,6.77,6.77,6.77,6.77,6.77,6.77,6.77,6.77,6.77,6.77,6.77,6.77,6.77,6.77,6.77,6.77,6.8104,6.8825,6.9706,7.0513,7.1233,7.2129,7.2496,7.2496,7.2496,7.2496,7.2496,7.2496,7.2496,7.2496,7.2496,7.2496,7.2496,7.2496,7.2496,7.2496,7.2496,7.301,7.3744,7.4647,7.6078,7.7289,7.7289,7.7289,7.7289,7.7289,7.7289,7.7289,7.7289,7.7289,7.7289,7.7289,7.7289,7.7289,7.7289,7.7289,7.7289,7.7289,7.7289,7.7289,7.7289,7.7289,7.7289,7.7289,7.7289,7.7289,7.7289,7.7289,7.7289,7.7289,7.7289,7.7289,7.7289,7.7289,7.7289,7.7289,7.7289,7.7289,7.7289,7.7289,7.7289,7.7289,7.7289,7.8206,4.9192,4.9841,5.1056,5.1084,5.1664,0.0,5.3838,5.5133,5.6246,5.687,5.8804,6.0407,6.0407,6.1178,6.1814,6.1814,6.3503,6.5498,6.7444,6.77,6.77,6.77,6.77,6.77,6.77,6.77,6.77,6.77,6.77,6.77,6.77,6.77,6.77,6.77,6.77,6.77,6.77,6.77,6.77,6.77,6.77,6.77,6.77,6.77,6.7811,6.8031,6.9449,7.0183,7.044,7.1908,7.2496,7.2496,7.2496,7.2496,7.2496,7.2496,7.2496,7.2496,7.2496,7.2496,7.2496,7.2496,7.2496,7.2496,7.2496,7.2606,7.3046,7.45,7.6078,7.7289,7.7289,7.7289,7.7289,7.7289,7.7289,7.7289,7.7289,7.7289,7.7289,7.7289,7.7289,7.7289,7.7289,7.7289,7.7289,7.7289,7.7289,7.7289,7.7289,7.7289,7.7289,7.7289,7.7289,7.7289,7.7289,7.7289,7.7289,7.7289,7.7289,7.7289,7.7289,7.7289,7.7289,7.7289,7.7289,7.7289,7.7289,7.7289,7.7289,7.7289,7.7289,7.8206,4.9272,4.9468,5.0397,5.0765,5.1438,0.0,0.0,5.5023,5.5842,5.665,5.8058,5.9196,5.9196,5.9857,6.0419,6.0419,6.2475,6.4103,6.4053,6.6159,6.77,6.77,6.77,6.77,6.77,6.77,6.77,6.77,6.77,6.77,6.77,6.77,6.77,6.77,6.77,6.77,6.77,6.77,6.77,6.77,6.77,6.77,6.77,6.77,6.77,6.7774,6.8972,6.9743,7.0183,7.138,7.2151,7.2496,7.2496,7.2496,7.2496,7.2496,7.2496,7.2496,7.2496,7.2496,7.2496,7.2496,7.2496,7.2496,7.2496,7.2789,7.334,7.4573,7.5747,7.6775,7.7215,7.7289,7.7289,7.7289,7.7289,7.7289,7.7289,7.7289,7.7289,7.7289,7.7289,7.7289,7.7289,7.7289,7.7289,7.7289,7.7289,7.7289,7.7289,7.7289,7.7289,7.7289,7.7289,7.7289,7.7289,7.7289,7.7289,7.7289,7.7289,7.7289,7.7289,7.7289,7.7289,7.7289,7.7289,7.7289,7.7289,7.7289,7.7289,7.7289,7.7289,7.7986,4.9301,4.9207,4.9941,5.0627,5.1389,5.2538,0.0,0.0,0.0,5.6822,5.7581,5.8047,5.8047,5.8572,5.9013,5.9013,6.108,6.1998,5.9979,6.3503,6.6305,6.6305,6.715,6.7517,6.704,6.715,6.737,6.7664,6.7407,6.737,6.7664,6.77,6.77,6.77,6.77,6.77,6.77,6.77,6.77,6.77,6.77,6.77,6.77,6.77,6.77,6.7737,6.8568,6.9376,7.0146,7.0977,7.1784,7.2496,7.2496,7.2496,7.2496,7.2496,7.2496,7.2496,7.2496,7.2496,7.2496,7.2496,7.2496,7.2496,7.2496,7.3046,7.3854,7.4683,7.5469,7.6276,7.7105,7.7289,7.7289,7.7289,7.7289,7.7289,7.7289,7.7289,7.7289,7.7289,7.7289,7.7289,7.7289,7.7289,7.7289,7.7289,7.7289,7.7289,7.7289,7.7289,7.7289,7.7289,7.7289,7.7289,7.7289,7.7289,7.7289,7.7289,7.7289,7.7289,7.7289,7.7289,7.7289,7.7289,7.7289,7.7289,7.7289,7.7289,7.7289,7.7289,7.7289,7.7766,4.9731,4.9059,4.9825,5.0608,5.1389,5.2281,5.3251,0.0,5.3508,5.3691,0.0,5.3875,5.3875,0.0,0.0,5.4021,5.604,5.7508,5.7251,5.9538,6.1227,6.1227,6.5044,6.6856,6.4727,6.5154,6.6145,6.759,6.6366,6.6219,6.7627,6.77,6.77,6.77,6.77,6.77,6.77,6.77,6.77,6.77,6.77,6.77,6.77,6.77,6.77,6.7737,6.8568,6.9376,7.0146,7.0977,7.1784,7.2496,7.2496,7.2496,7.2496,7.2496,7.2496,7.2496,7.2496,7.2496,7.2496,7.2496,7.2496,7.2496,7.2496,7.3046,7.3854,7.4683,7.5469,7.6276,7.7105,7.7289,7.7289,7.7289,7.7289,7.7289,7.7289,7.7289,7.7289,7.7289,7.7289,7.7289,7.7289,7.7289,7.7289,7.7289,7.7289,7.7289,7.7289,7.7289,7.7289,7.7289,7.7289,7.7289,7.7289,7.7289,7.7289,7.7289,7.7289,7.7289,7.7289,7.7289,7.7289,7.7289,7.7289,7.7289,7.7289,7.7289,7.7289,7.7289,7.7289,7.7766,4.9873,4.98,5.0586,5.1318,5.2454,5.3225,5.2637,5.2491,5.2491,5.2491,0.0,0.0,0.0,0.0,0.0,0.0,5.484,5.5794,5.4829,5.7985,6.0419,6.0419,6.2218,6.3613,6.4066,6.5681,6.6953,6.7664,6.7076,6.7003,6.7664,6.77,6.77,6.77,6.77,6.77,6.77,6.77,6.77,6.77,6.77,6.77,6.77,6.77,6.77,6.7737,6.8068,6.8935,7.011,7.0477,7.1358,7.2496,7.2496,7.2496,7.2496,7.2496,7.2496,7.2496,7.2496,7.2496,7.2496,7.2496,7.2496,7.2496,7.2496,7.2753,7.3266,7.4536,7.5124,7.5711,7.6959,7.7289,7.7289,7.7289,7.7289,7.7289,7.7289,7.7289,7.7289,7.7289,7.7289,7.7289,7.7289,7.7289,7.7289,7.7289,7.7289,7.7289,7.7289,7.7289,7.7289,7.7289,7.7289,7.7289,7.7289,7.7289,7.7289,7.7289,7.7289,7.7289,7.7289,7.7289,7.7289,7.7289,7.7289,7.7289,7.7289,7.7289,7.7289,7.7289,7.7289,7.7509,5.1124,5.1266,5.1908,5.171,5.2721,5.3371,5.1977,5.184,5.1987,5.1987,5.1987,0.0,0.0,0.0,5.2197,5.2784,0.0,5.4509,5.3361,5.6223,5.8425,5.8425,5.9208,6.0713,6.3185,6.5204,6.6562,6.699,6.7026,6.7223,6.7664,6.77,6.77,6.77,6.77,6.77,6.77,6.77,6.77,6.77,6.77,6.77,6.77,6.77,6.77,6.77,6.77,6.8618,7.011,7.011,7.1064,7.2496,7.2496,7.2496,7.2496,7.2496,7.2496,7.2496,7.2496,7.2496,7.2496,7.2496,7.2496,7.2496,7.2496,7.2496,7.2863,7.4463,7.4903,7.527,7.6885,7.7289,7.7289,7.7289,7.7289,7.7289,7.7289,7.7289,7.7289,7.7289,7.7289,7.7289,7.7289,7.7289,7.7289,7.7289,7.7289,7.7289,7.7289,7.7289,7.7289,7.7289,7.7289,7.7289,7.7289,7.7289,7.7289,7.7289,7.7289,7.7289,7.7289,7.7289,7.7289,7.7289,7.7289,7.7289,7.7289,7.7289,7.7289,7.7289,7.7289,7.7289,5.4136,5.367,5.3754,5.1426,5.1463,5.1867,5.1022,5.1426,5.1987,5.1987,5.1987,5.2024,5.2024,5.2024,5.2024,0.0,5.2747,0.0,0.0,5.3324,5.3434,5.3434,5.6198,5.9024,6.1459,6.2426,6.3637,6.5251,6.5362,6.6072,6.7627,6.77,6.77,6.77,6.77,6.77,6.77,6.77,6.77,6.77,6.77,6.77,6.77,6.77,6.77,6.77,6.77,6.8618,7.011,7.011,7.1064,7.2496,7.2496,7.2496,7.2496,7.2496,7.2496,7.2496,7.2496,7.2496,7.2496,7.2496,7.2496,7.2496,7.2496,7.2496,7.2863,7.4463,7.4903,7.527,7.6885,7.7289,7.7289,7.7289,7.7289,7.7289,7.7289,7.7289,7.7289,7.7289,7.7289,7.7289,7.7289,7.7289,7.7289,7.7289,7.7289,7.7289,7.7289,7.7289,7.7289,7.7289,7.7289,7.7289,7.7289,7.7289,7.7289,7.7289,7.7289,7.7289,7.7289,7.7289,7.7289,7.7289,7.7289,7.7289,7.7289,7.7289,7.7289,7.7289,7.7289,7.7289,5.582,5.6554,5.6994,5.4583,5.4997,5.5207,5.227,5.1803,5.1987,5.1987,5.1573,5.1536,5.2601,5.1903,5.1536,0.0,0.0,5.2601,0.0,5.3214,5.3214,5.3214,5.6051,5.8327,5.9134,6.2389,6.4701,6.5251,6.6292,6.715,6.7664,6.77,6.77,6.77,6.77,6.77,6.77,6.77,6.77,6.77,6.77,6.77,6.77,6.77,6.77,6.77,6.77,6.8618,7.011,7.011,7.1064,7.2496,7.2496,7.2496,7.2496,7.2496,7.2496,7.2496,7.2496,7.2496,7.2496,7.2496,7.2496,7.2496,7.2496,7.2496,7.2863,7.4463,7.4903,7.527,7.6885,7.7289,7.7289,7.7289,7.7289,7.7289,7.7289,7.7289,7.7289,7.7289,7.7289,7.7289,7.7289,7.7289,7.7289,7.7289,7.7289,7.7289,7.7289,7.7289,7.7289,7.7289,7.7289,7.7289,7.7289,7.7289,7.7289,7.7289,7.7289,7.7289,7.7289,7.7289,7.7289,7.7289,7.7289,7.7289,7.7289,7.7289,7.7289,7.7289,7.7289,7.7289,5.8107,5.8829,5.9123,5.698,5.7237,5.7079,5.3628,5.3088,5.3272,5.3272,5.2197,5.2087,5.4829,5.3067,5.1867,0.0,0.0,5.2601,0.0,5.3214,5.3324,5.3581,5.5721,5.7384,5.7923,6.1374,6.404,6.5215,6.6256,6.7113,6.7664,6.77,6.77,6.77,6.77,6.77,6.77,6.77,6.77,6.77,6.77,6.77,6.77,6.77,6.77,6.77,6.77,6.8618,7.011,7.011,7.1064,7.2496,7.2496,7.2496,7.2496,7.2496,7.2496,7.2496,7.2496,7.2496,7.2496,7.2496,7.2496,7.2496,7.2496,7.2496,7.2899,7.4793,7.5124,7.5344,7.7252,7.7546,7.7289,7.7289,7.7289,7.7289,7.7289,7.7289,7.7289,7.7289,7.7289,7.7289,7.7289,7.7289,7.7289,7.7289,7.7289,7.7289,7.7289,7.7289,7.7289,7.7289,7.7289,7.7289,7.7289,7.7289,7.7289,7.7289,7.7289,7.7289,7.7289,7.7289,7.7436,7.7766,7.7472,7.7436,7.7766,7.7436,7.7289,7.7289,7.7289,7.7289]}]]